<?xml version='1.0' encoding='UTF-8'?>
<gpx version="1.1" creator="https://www.komoot.de" xmlns="http://www.topografix.com/GPX/1/1" xmlns:xsi="http://www.w3.org/2001/XMLSchema-instance" xsi:schemaLocation="http://www.topografix.com/GPX/1/1 http://www.topografix.com/GPX/1/1/gpx.xsd">
  <metadata>
    <name>60_550WiesletBrombach</name>
    <author>
      <link href="https://www.komoot.de">
        <text>komoot</text>
        <type>text/html</type>
      </link>
    </author>
  </metadata>
  <trk>
    <name>60_550WiesletBrombach</name>
    <trkseg>
      <trkpt lat="47.541177" lon="7.870984">
        <ele>339.233616</ele>
        <time>2021-11-15T20:20:29.959Z</time>
      </trkpt>
      <trkpt lat="47.541410" lon="7.870791">
        <ele>339.233616</ele>
        <time>2021-11-15T20:20:33.827Z</time>
      </trkpt>
      <trkpt lat="47.541576" lon="7.870664">
        <ele>339.233616</ele>
        <time>2021-11-15T20:20:36.256Z</time>
      </trkpt>
      <trkpt lat="47.541550" lon="7.870601">
        <ele>339.233616</ele>
        <time>2021-11-15T20:20:37.057Z</time>
      </trkpt>
      <trkpt lat="47.541521" lon="7.870517">
        <ele>339.233616</ele>
        <time>2021-11-15T20:20:38.100Z</time>
      </trkpt>
      <trkpt lat="47.541606" lon="7.870424">
        <ele>339.233616</ele>
        <time>2021-11-15T20:20:39.769Z</time>
      </trkpt>
      <trkpt lat="47.541910" lon="7.870106">
        <ele>339.113422</ele>
        <time>2021-11-15T20:20:45.431Z</time>
      </trkpt>
      <trkpt lat="47.542014" lon="7.870126">
        <ele>339.026981</ele>
        <time>2021-11-15T20:20:46.892Z</time>
      </trkpt>
      <trkpt lat="47.542118" lon="7.870135">
        <ele>338.941113</ele>
        <time>2021-11-15T20:20:48.614Z</time>
      </trkpt>
      <trkpt lat="47.542181" lon="7.870131">
        <ele>338.889137</ele>
        <time>2021-11-15T20:20:49.493Z</time>
      </trkpt>
      <trkpt lat="47.542317" lon="7.870012">
        <ele>338.758945</ele>
        <time>2021-11-15T20:20:51.610Z</time>
      </trkpt>
      <trkpt lat="47.542348" lon="7.869983">
        <ele>338.728725</ele>
        <time>2021-11-15T20:20:52.047Z</time>
      </trkpt>
      <trkpt lat="47.542329" lon="7.869820">
        <ele>338.636689</ele>
        <time>2021-11-15T20:20:53.810Z</time>
      </trkpt>
      <trkpt lat="47.542372" lon="7.869746">
        <ele>338.582362</ele>
        <time>2021-11-15T20:20:54.629Z</time>
      </trkpt>
      <trkpt lat="47.542657" lon="7.869354">
        <ele>338.261807</ele>
        <time>2021-11-15T20:20:59.431Z</time>
      </trkpt>
      <trkpt lat="47.542696" lon="7.869257">
        <ele>338.198988</ele>
        <time>2021-11-15T20:21:00.366Z</time>
      </trkpt>
      <trkpt lat="47.542722" lon="7.869201">
        <ele>338.161172</ele>
        <time>2021-11-15T20:21:00.957Z</time>
      </trkpt>
      <trkpt lat="47.543049" lon="7.868759">
        <ele>337.796306</ele>
        <time>2021-11-15T20:21:05.870Z</time>
      </trkpt>
      <trkpt lat="47.543105" lon="7.868711">
        <ele>337.737293</ele>
        <time>2021-11-15T20:21:06.609Z</time>
      </trkpt>
      <trkpt lat="47.543201" lon="7.868657">
        <ele>337.593304</ele>
        <time>2021-11-15T20:21:07.687Z</time>
      </trkpt>
      <trkpt lat="47.543657" lon="7.868359">
        <ele>336.894447</ele>
        <time>2021-11-15T20:21:13.482Z</time>
      </trkpt>
      <trkpt lat="47.543801" lon="7.868269">
        <ele>336.675294</ele>
        <time>2021-11-15T20:21:15.962Z</time>
      </trkpt>
      <trkpt lat="47.544214" lon="7.867988">
        <ele>336.038026</ele>
        <time>2021-11-15T20:21:23.578Z</time>
      </trkpt>
      <trkpt lat="47.544246" lon="7.867967">
        <ele>335.988950</ele>
        <time>2021-11-15T20:21:24.175Z</time>
      </trkpt>
      <trkpt lat="47.544410" lon="7.867825">
        <ele>335.722591</ele>
        <time>2021-11-15T20:21:27.428Z</time>
      </trkpt>
      <trkpt lat="47.544469" lon="7.867776">
        <ele>335.627747</ele>
        <time>2021-11-15T20:21:28.450Z</time>
      </trkpt>
      <trkpt lat="47.544568" lon="7.867693">
        <ele>335.468241</ele>
        <time>2021-11-15T20:21:30.377Z</time>
      </trkpt>
      <trkpt lat="47.545003" lon="7.867278">
        <ele>335.376113</ele>
        <time>2021-11-15T20:21:39.225Z</time>
      </trkpt>
      <trkpt lat="47.545160" lon="7.866985">
        <ele>335.483221</ele>
        <time>2021-11-15T20:21:43.876Z</time>
      </trkpt>
      <trkpt lat="47.545240" lon="7.866887">
        <ele>335.527252</ele>
        <time>2021-11-15T20:21:46.150Z</time>
      </trkpt>
      <trkpt lat="47.546096" lon="7.866147">
        <ele>335.947626</ele>
        <time>2021-11-15T20:22:11.220Z</time>
      </trkpt>
      <trkpt lat="47.546327" lon="7.865959">
        <ele>336.044715</ele>
        <time>2021-11-15T20:22:17.640Z</time>
      </trkpt>
      <trkpt lat="47.546510" lon="7.865766">
        <ele>336.119237</ele>
        <time>2021-11-15T20:22:24.026Z</time>
      </trkpt>
      <trkpt lat="47.546819" lon="7.865489">
        <ele>336.239054</ele>
        <time>2021-11-15T20:22:32.179Z</time>
      </trkpt>
      <trkpt lat="47.546889" lon="7.865225">
        <ele>336.302569</ele>
        <time>2021-11-15T20:22:35.966Z</time>
      </trkpt>
      <trkpt lat="47.546894" lon="7.864837">
        <ele>336.389468</ele>
        <time>2021-11-15T20:22:41.143Z</time>
      </trkpt>
      <trkpt lat="47.546885" lon="7.864500">
        <ele>336.464991</ele>
        <time>2021-11-15T20:22:46.782Z</time>
      </trkpt>
      <trkpt lat="47.546974" lon="7.864423">
        <ele>336.499183</ele>
        <time>2021-11-15T20:22:48.370Z</time>
      </trkpt>
      <trkpt lat="47.547320" lon="7.863864">
        <ele>336.236597</ele>
        <time>2021-11-15T20:22:58.295Z</time>
      </trkpt>
      <trkpt lat="47.547568" lon="7.863151">
        <ele>335.450057</ele>
        <time>2021-11-15T20:23:07.308Z</time>
      </trkpt>
      <trkpt lat="47.547930" lon="7.861711">
        <ele>333.945628</ele>
        <time>2021-11-15T20:23:23.682Z</time>
      </trkpt>
      <trkpt lat="47.548049" lon="7.860929">
        <ele>333.217532</ele>
        <time>2021-11-15T20:23:32.382Z</time>
      </trkpt>
      <trkpt lat="47.548334" lon="7.859801">
        <ele>332.123579</ele>
        <time>2021-11-15T20:23:45.863Z</time>
      </trkpt>
      <trkpt lat="47.548611" lon="7.858381">
        <ele>331.388472</ele>
        <time>2021-11-15T20:24:03.820Z</time>
      </trkpt>
      <trkpt lat="47.548686" lon="7.857973">
        <ele>331.305734</ele>
        <time>2021-11-15T20:24:09.208Z</time>
      </trkpt>
      <trkpt lat="47.548701" lon="7.857893">
        <ele>331.289489</ele>
        <time>2021-11-15T20:24:10.329Z</time>
      </trkpt>
      <trkpt lat="47.548743" lon="7.857692">
        <ele>331.248319</ele>
        <time>2021-11-15T20:24:13.103Z</time>
      </trkpt>
      <trkpt lat="47.548887" lon="7.857308">
        <ele>331.162367</ele>
        <time>2021-11-15T20:24:19.137Z</time>
      </trkpt>
      <trkpt lat="47.549362" lon="7.855774">
        <ele>330.870712</ele>
        <time>2021-11-15T20:24:43.181Z</time>
      </trkpt>
      <trkpt lat="47.549566" lon="7.855225">
        <ele>330.771537</ele>
        <time>2021-11-15T20:24:51.798Z</time>
      </trkpt>
      <trkpt lat="47.549883" lon="7.854434">
        <ele>330.625961</ele>
        <time>2021-11-15T20:25:03.253Z</time>
      </trkpt>
      <trkpt lat="47.550221" lon="7.853833">
        <ele>329.540994</ele>
        <time>2021-11-15T20:25:09.646Z</time>
      </trkpt>
      <trkpt lat="47.551516" lon="7.851950">
        <ele>324.914146</ele>
        <time>2021-11-15T20:25:28.443Z</time>
      </trkpt>
      <trkpt lat="47.551660" lon="7.851725">
        <ele>324.227584</ele>
        <time>2021-11-15T20:25:30.475Z</time>
      </trkpt>
      <trkpt lat="47.551830" lon="7.851603">
        <ele>323.607901</ele>
        <time>2021-11-15T20:25:32.395Z</time>
      </trkpt>
      <trkpt lat="47.551925" lon="7.851845">
        <ele>322.988025</ele>
        <time>2021-11-15T20:25:34.239Z</time>
      </trkpt>
      <trkpt lat="47.551962" lon="7.851896">
        <ele>322.822238</ele>
        <time>2021-11-15T20:25:34.759Z</time>
      </trkpt>
      <trkpt lat="47.552042" lon="7.852007">
        <ele>322.462676</ele>
        <time>2021-11-15T20:25:35.885Z</time>
      </trkpt>
      <trkpt lat="47.552097" lon="7.852063">
        <ele>322.243745</ele>
        <time>2021-11-15T20:25:36.516Z</time>
      </trkpt>
      <trkpt lat="47.552272" lon="7.852167">
        <ele>321.625175</ele>
        <time>2021-11-15T20:25:38.421Z</time>
      </trkpt>
      <trkpt lat="47.552449" lon="7.852231">
        <ele>321.027462</ele>
        <time>2021-11-15T20:25:40.222Z</time>
      </trkpt>
      <trkpt lat="47.552678" lon="7.851709">
        <ele>319.940233</ele>
        <time>2021-11-15T20:25:44.496Z</time>
      </trkpt>
      <trkpt lat="47.552876" lon="7.851300">
        <ele>319.165602</ele>
        <time>2021-11-15T20:25:48.042Z</time>
      </trkpt>
      <trkpt lat="47.553283" lon="7.850634">
        <ele>317.782898</ele>
        <time>2021-11-15T20:25:54.713Z</time>
      </trkpt>
      <trkpt lat="47.553344" lon="7.850525">
        <ele>317.564982</ele>
        <time>2021-11-15T20:25:55.790Z</time>
      </trkpt>
      <trkpt lat="47.553380" lon="7.850453">
        <ele>317.427081</ele>
        <time>2021-11-15T20:25:56.478Z</time>
      </trkpt>
      <trkpt lat="47.553537" lon="7.849904">
        <ele>316.509468</ele>
        <time>2021-11-15T20:26:00.963Z</time>
      </trkpt>
      <trkpt lat="47.553605" lon="7.849629">
        <ele>316.228260</ele>
        <time>2021-11-15T20:26:03.254Z</time>
      </trkpt>
      <trkpt lat="47.553725" lon="7.849291">
        <ele>315.864914</ele>
        <time>2021-11-15T20:26:06.176Z</time>
      </trkpt>
      <trkpt lat="47.554055" lon="7.848586">
        <ele>315.048662</ele>
        <time>2021-11-15T20:26:13.073Z</time>
      </trkpt>
      <trkpt lat="47.554209" lon="7.848300">
        <ele>314.700579</ele>
        <time>2021-11-15T20:26:16.036Z</time>
      </trkpt>
      <trkpt lat="47.554269" lon="7.848188">
        <ele>314.564537</ele>
        <time>2021-11-15T20:26:17.116Z</time>
      </trkpt>
      <trkpt lat="47.554351" lon="7.848049">
        <ele>314.388898</ele>
        <time>2021-11-15T20:26:18.575Z</time>
      </trkpt>
      <trkpt lat="47.554465" lon="7.847858">
        <ele>314.146320</ele>
        <time>2021-11-15T20:26:20.657Z</time>
      </trkpt>
      <trkpt lat="47.554618" lon="7.847626">
        <ele>313.846659</ele>
        <time>2021-11-15T20:26:23.156Z</time>
      </trkpt>
      <trkpt lat="47.554759" lon="7.847388">
        <ele>313.566159</ele>
        <time>2021-11-15T20:26:25.573Z</time>
      </trkpt>
      <trkpt lat="47.554892" lon="7.847148">
        <ele>313.291105</ele>
        <time>2021-11-15T20:26:28.004Z</time>
      </trkpt>
      <trkpt lat="47.554995" lon="7.846915">
        <ele>313.044402</ele>
        <time>2021-11-15T20:26:30.161Z</time>
      </trkpt>
      <trkpt lat="47.555068" lon="7.846672">
        <ele>312.808813</ele>
        <time>2021-11-15T20:26:32.221Z</time>
      </trkpt>
      <trkpt lat="47.555199" lon="7.846687">
        <ele>312.636376</ele>
        <time>2021-11-15T20:26:33.703Z</time>
      </trkpt>
      <trkpt lat="47.555727" lon="7.846715">
        <ele>311.942985</ele>
        <time>2021-11-15T20:26:40.160Z</time>
      </trkpt>
      <trkpt lat="47.555855" lon="7.846815">
        <ele>311.753079</ele>
        <time>2021-11-15T20:26:41.823Z</time>
      </trkpt>
      <trkpt lat="47.555892" lon="7.846856">
        <ele>311.692443</ele>
        <time>2021-11-15T20:26:42.380Z</time>
      </trkpt>
      <trkpt lat="47.555966" lon="7.846932">
        <ele>311.586681</ele>
        <time>2021-11-15T20:26:43.530Z</time>
      </trkpt>
      <trkpt lat="47.555990" lon="7.846965">
        <ele>311.560141</ele>
        <time>2021-11-15T20:26:43.962Z</time>
      </trkpt>
      <trkpt lat="47.556060" lon="7.846859">
        <ele>311.479010</ele>
        <time>2021-11-15T20:26:45.156Z</time>
      </trkpt>
      <trkpt lat="47.556636" lon="7.845928">
        <ele>310.788082</ele>
        <time>2021-11-15T20:26:55.542Z</time>
      </trkpt>
      <trkpt lat="47.557134" lon="7.845095">
        <ele>310.179311</ele>
        <time>2021-11-15T20:27:05.361Z</time>
      </trkpt>
      <trkpt lat="47.557282" lon="7.844832">
        <ele>310.110719</ele>
        <time>2021-11-15T20:27:08.500Z</time>
      </trkpt>
      <trkpt lat="47.557560" lon="7.844433">
        <ele>310.034626</ele>
        <time>2021-11-15T20:27:13.680Z</time>
      </trkpt>
      <trkpt lat="47.557715" lon="7.843940">
        <ele>309.962463</ele>
        <time>2021-11-15T20:27:18.685Z</time>
      </trkpt>
      <trkpt lat="47.557759" lon="7.843839">
        <ele>309.946513</ele>
        <time>2021-11-15T20:27:19.863Z</time>
      </trkpt>
      <trkpt lat="47.557846" lon="7.843756">
        <ele>309.926169</ele>
        <time>2021-11-15T20:27:21.210Z</time>
      </trkpt>
      <trkpt lat="47.557967" lon="7.843683">
        <ele>309.900483</ele>
        <time>2021-11-15T20:27:23.249Z</time>
      </trkpt>
      <trkpt lat="47.558136" lon="7.843582">
        <ele>309.864655</ele>
        <time>2021-11-15T20:27:25.932Z</time>
      </trkpt>
      <trkpt lat="47.558405" lon="7.843371">
        <ele>309.804815</ele>
        <time>2021-11-15T20:27:30.798Z</time>
      </trkpt>
      <trkpt lat="47.558471" lon="7.843365">
        <ele>309.797579</ele>
        <time>2021-11-15T20:27:31.648Z</time>
      </trkpt>
      <trkpt lat="47.558555" lon="7.843392">
        <ele>309.810257</ele>
        <time>2021-11-15T20:27:32.928Z</time>
      </trkpt>
      <trkpt lat="47.558612" lon="7.843469">
        <ele>309.821633</ele>
        <time>2021-11-15T20:27:34.274Z</time>
      </trkpt>
      <trkpt lat="47.558884" lon="7.843836">
        <ele>309.875889</ele>
        <time>2021-11-15T20:27:40.213Z</time>
      </trkpt>
      <trkpt lat="47.559060" lon="7.844197">
        <ele>309.920216</ele>
        <time>2021-11-15T20:27:45.036Z</time>
      </trkpt>
      <trkpt lat="47.559109" lon="7.844229">
        <ele>309.928114</ele>
        <time>2021-11-15T20:27:46.087Z</time>
      </trkpt>
      <trkpt lat="47.559158" lon="7.844233">
        <ele>309.935352</ele>
        <time>2021-11-15T20:27:47.033Z</time>
      </trkpt>
      <trkpt lat="47.559583" lon="7.843813">
        <ele>310.010697</ele>
        <time>2021-11-15T20:27:55.010Z</time>
      </trkpt>
      <trkpt lat="47.559847" lon="7.843604">
        <ele>310.054843</ele>
        <time>2021-11-15T20:27:59.410Z</time>
      </trkpt>
      <trkpt lat="47.560139" lon="7.843433">
        <ele>309.828903</ele>
        <time>2021-11-15T20:28:03.637Z</time>
      </trkpt>
      <trkpt lat="47.560209" lon="7.843393">
        <ele>309.766055</ele>
        <time>2021-11-15T20:28:04.588Z</time>
      </trkpt>
      <trkpt lat="47.560338" lon="7.843341">
        <ele>309.654065</ele>
        <time>2021-11-15T20:28:06.254Z</time>
      </trkpt>
      <trkpt lat="47.560430" lon="7.843341">
        <ele>309.576997</ele>
        <time>2021-11-15T20:28:07.797Z</time>
      </trkpt>
      <trkpt lat="47.560515" lon="7.843379">
        <ele>309.502623</ele>
        <time>2021-11-15T20:28:08.831Z</time>
      </trkpt>
      <trkpt lat="47.560812" lon="7.843560">
        <ele>309.233609</ele>
        <time>2021-11-15T20:28:12.890Z</time>
      </trkpt>
      <trkpt lat="47.560934" lon="7.843550">
        <ele>309.131253</ele>
        <time>2021-11-15T20:28:14.412Z</time>
      </trkpt>
      <trkpt lat="47.561038" lon="7.843502">
        <ele>309.040005</ele>
        <time>2021-11-15T20:28:15.701Z</time>
      </trkpt>
      <trkpt lat="47.561434" lon="7.843181">
        <ele>308.661891</ele>
        <time>2021-11-15T20:28:21.142Z</time>
      </trkpt>
      <trkpt lat="47.561498" lon="7.843130">
        <ele>308.601019</ele>
        <time>2021-11-15T20:28:21.906Z</time>
      </trkpt>
      <trkpt lat="47.562179" lon="7.842500">
        <ele>307.593884</ele>
        <time>2021-11-15T20:28:31.164Z</time>
      </trkpt>
      <trkpt lat="47.562300" lon="7.842326">
        <ele>307.377045</ele>
        <time>2021-11-15T20:28:33.116Z</time>
      </trkpt>
      <trkpt lat="47.562385" lon="7.842183">
        <ele>307.211661</ele>
        <time>2021-11-15T20:28:34.527Z</time>
      </trkpt>
      <trkpt lat="47.562440" lon="7.842083">
        <ele>307.099702</ele>
        <time>2021-11-15T20:28:35.643Z</time>
      </trkpt>
      <trkpt lat="47.562574" lon="7.841873">
        <ele>306.848876</ele>
        <time>2021-11-15T20:28:38.041Z</time>
      </trkpt>
      <trkpt lat="47.562904" lon="7.841632">
        <ele>306.375728</ele>
        <time>2021-11-15T20:28:42.530Z</time>
      </trkpt>
      <trkpt lat="47.562965" lon="7.841597">
        <ele>306.291602</ele>
        <time>2021-11-15T20:28:43.318Z</time>
      </trkpt>
      <trkpt lat="47.563016" lon="7.841568">
        <ele>306.225205</ele>
        <time>2021-11-15T20:28:44.019Z</time>
      </trkpt>
      <trkpt lat="47.563300" lon="7.841391">
        <ele>305.908997</ele>
        <time>2021-11-15T20:28:47.756Z</time>
      </trkpt>
      <trkpt lat="47.563483" lon="7.841269">
        <ele>305.703047</ele>
        <time>2021-11-15T20:28:50.314Z</time>
      </trkpt>
      <trkpt lat="47.563659" lon="7.841150">
        <ele>305.504499</ele>
        <time>2021-11-15T20:28:52.642Z</time>
      </trkpt>
      <trkpt lat="47.563805" lon="7.841046">
        <ele>305.338242</ele>
        <time>2021-11-15T20:28:54.704Z</time>
      </trkpt>
      <trkpt lat="47.563941" lon="7.840948">
        <ele>305.183035</ele>
        <time>2021-11-15T20:28:56.556Z</time>
      </trkpt>
      <trkpt lat="47.563986" lon="7.840916">
        <ele>305.131808</ele>
        <time>2021-11-15T20:28:57.177Z</time>
      </trkpt>
      <trkpt lat="47.564094" lon="7.840838">
        <ele>305.008501</ele>
        <time>2021-11-15T20:28:58.646Z</time>
      </trkpt>
      <trkpt lat="47.564463" lon="7.840580">
        <ele>304.589749</ele>
        <time>2021-11-15T20:29:03.633Z</time>
      </trkpt>
      <trkpt lat="47.564534" lon="7.840532">
        <ele>304.509654</ele>
        <time>2021-11-15T20:29:04.540Z</time>
      </trkpt>
      <trkpt lat="47.564558" lon="7.840516">
        <ele>304.482645</ele>
        <time>2021-11-15T20:29:04.863Z</time>
      </trkpt>
      <trkpt lat="47.564936" lon="7.840261">
        <ele>304.021388</ele>
        <time>2021-11-15T20:29:09.765Z</time>
      </trkpt>
      <trkpt lat="47.565057" lon="7.840213">
        <ele>303.879519</ele>
        <time>2021-11-15T20:29:11.178Z</time>
      </trkpt>
      <trkpt lat="47.565168" lon="7.840179">
        <ele>303.751143</ele>
        <time>2021-11-15T20:29:12.520Z</time>
      </trkpt>
      <trkpt lat="47.565233" lon="7.840176">
        <ele>303.677488</ele>
        <time>2021-11-15T20:29:13.256Z</time>
      </trkpt>
      <trkpt lat="47.565343" lon="7.840185">
        <ele>303.552712</ele>
        <time>2021-11-15T20:29:14.516Z</time>
      </trkpt>
      <trkpt lat="47.565906" lon="7.840272">
        <ele>302.911600</ele>
        <time>2021-11-15T20:29:21.376Z</time>
      </trkpt>
      <trkpt lat="47.566081" lon="7.840309">
        <ele>302.711388</ele>
        <time>2021-11-15T20:29:23.518Z</time>
      </trkpt>
      <trkpt lat="47.566142" lon="7.840322">
        <ele>302.641589</ele>
        <time>2021-11-15T20:29:24.201Z</time>
      </trkpt>
      <trkpt lat="47.566221" lon="7.840340">
        <ele>302.551062</ele>
        <time>2021-11-15T20:29:25.399Z</time>
      </trkpt>
      <trkpt lat="47.566350" lon="7.840350">
        <ele>302.404757</ele>
        <time>2021-11-15T20:29:27.088Z</time>
      </trkpt>
      <trkpt lat="47.566450" lon="7.840326">
        <ele>302.318541</ele>
        <time>2021-11-15T20:29:28.311Z</time>
      </trkpt>
      <trkpt lat="47.566515" lon="7.840312">
        <ele>302.275697</ele>
        <time>2021-11-15T20:29:29.057Z</time>
      </trkpt>
      <trkpt lat="47.566592" lon="7.840279">
        <ele>302.223413</ele>
        <time>2021-11-15T20:29:30.247Z</time>
      </trkpt>
      <trkpt lat="47.566826" lon="7.840179">
        <ele>302.064560</ele>
        <time>2021-11-15T20:29:33.181Z</time>
      </trkpt>
      <trkpt lat="47.567111" lon="7.839998">
        <ele>301.862309</ele>
        <time>2021-11-15T20:29:37.207Z</time>
      </trkpt>
      <trkpt lat="47.567406" lon="7.839778">
        <ele>301.646896</ele>
        <time>2021-11-15T20:29:41.459Z</time>
      </trkpt>
      <trkpt lat="47.567481" lon="7.839664">
        <ele>301.576820</ele>
        <time>2021-11-15T20:29:42.698Z</time>
      </trkpt>
      <trkpt lat="47.567510" lon="7.839548">
        <ele>301.522376</ele>
        <time>2021-11-15T20:29:43.976Z</time>
      </trkpt>
      <trkpt lat="47.567530" lon="7.839459">
        <ele>301.481090</ele>
        <time>2021-11-15T20:29:44.831Z</time>
      </trkpt>
      <trkpt lat="47.567564" lon="7.839283">
        <ele>301.400518</ele>
        <time>2021-11-15T20:29:46.485Z</time>
      </trkpt>
      <trkpt lat="47.567626" lon="7.839064">
        <ele>301.295993</ele>
        <time>2021-11-15T20:29:48.631Z</time>
      </trkpt>
      <trkpt lat="47.567634" lon="7.839037">
        <ele>301.283015</ele>
        <time>2021-11-15T20:29:48.871Z</time>
      </trkpt>
      <trkpt lat="47.567823" lon="7.838648">
        <ele>301.068739</ele>
        <time>2021-11-15T20:29:53.444Z</time>
      </trkpt>
      <trkpt lat="47.567846" lon="7.838609">
        <ele>301.045270</ele>
        <time>2021-11-15T20:29:53.900Z</time>
      </trkpt>
      <trkpt lat="47.567936" lon="7.838380">
        <ele>300.925193</ele>
        <time>2021-11-15T20:29:56.479Z</time>
      </trkpt>
      <trkpt lat="47.567961" lon="7.838248">
        <ele>300.863074</ele>
        <time>2021-11-15T20:29:57.655Z</time>
      </trkpt>
      <trkpt lat="47.567944" lon="7.838073">
        <ele>300.782965</ele>
        <time>2021-11-15T20:29:59.227Z</time>
      </trkpt>
      <trkpt lat="47.567822" lon="7.837479">
        <ele>300.501635</ele>
        <time>2021-11-15T20:30:04.464Z</time>
      </trkpt>
      <trkpt lat="47.567670" lon="7.836721">
        <ele>300.143343</ele>
        <time>2021-11-15T20:30:11.082Z</time>
      </trkpt>
      <trkpt lat="47.567647" lon="7.836576">
        <ele>300.075853</ele>
        <time>2021-11-15T20:30:12.344Z</time>
      </trkpt>
      <trkpt lat="47.567583" lon="7.836155">
        <ele>299.891012</ele>
        <time>2021-11-15T20:30:16.040Z</time>
      </trkpt>
      <trkpt lat="47.567562" lon="7.835760">
        <ele>299.731507</ele>
        <time>2021-11-15T20:30:19.493Z</time>
      </trkpt>
      <trkpt lat="47.567566" lon="7.835567">
        <ele>299.653776</ele>
        <time>2021-11-15T20:30:21.156Z</time>
      </trkpt>
      <trkpt lat="47.567674" lon="7.835182">
        <ele>299.485929</ele>
        <time>2021-11-15T20:30:24.804Z</time>
      </trkpt>
      <trkpt lat="47.567558" lon="7.835042">
        <ele>299.396675</ele>
        <time>2021-11-15T20:30:26.791Z</time>
      </trkpt>
      <trkpt lat="47.567179" lon="7.834275">
        <ele>299.013962</ele>
        <time>2021-11-15T20:30:35.136Z</time>
      </trkpt>
      <trkpt lat="47.566744" lon="7.833235">
        <ele>298.530347</ele>
        <time>2021-11-15T20:30:46.481Z</time>
      </trkpt>
      <trkpt lat="47.566366" lon="7.832333">
        <ele>298.112941</ele>
        <time>2021-11-15T20:30:55.935Z</time>
      </trkpt>
      <trkpt lat="47.566477" lon="7.832241">
        <ele>298.038846</ele>
        <time>2021-11-15T20:30:57.552Z</time>
      </trkpt>
      <trkpt lat="47.566755" lon="7.832115">
        <ele>297.869476</ele>
        <time>2021-11-15T20:31:01.183Z</time>
      </trkpt>
      <trkpt lat="47.566920" lon="7.832056">
        <ele>297.673417</ele>
        <time>2021-11-15T20:31:03.296Z</time>
      </trkpt>
      <trkpt lat="47.567257" lon="7.831926">
        <ele>297.237430</ele>
        <time>2021-11-15T20:31:07.496Z</time>
      </trkpt>
      <trkpt lat="47.568550" lon="7.831407">
        <ele>295.573817</ele>
        <time>2021-11-15T20:31:23.001Z</time>
      </trkpt>
      <trkpt lat="47.568694" lon="7.831293">
        <ele>295.433920</ele>
        <time>2021-11-15T20:31:24.914Z</time>
      </trkpt>
      <trkpt lat="47.568760" lon="7.831139">
        <ele>295.328438</ele>
        <time>2021-11-15T20:31:26.363Z</time>
      </trkpt>
      <trkpt lat="47.568775" lon="7.830924">
        <ele>295.203468</ele>
        <time>2021-11-15T20:31:28.124Z</time>
      </trkpt>
      <trkpt lat="47.568745" lon="7.830356">
        <ele>294.874063</ele>
        <time>2021-11-15T20:31:32.852Z</time>
      </trkpt>
      <trkpt lat="47.568703" lon="7.829453">
        <ele>294.350736</ele>
        <time>2021-11-15T20:31:40.617Z</time>
      </trkpt>
      <trkpt lat="47.568703" lon="7.829421">
        <ele>294.332235</ele>
        <time>2021-11-15T20:31:40.916Z</time>
      </trkpt>
      <trkpt lat="47.568659" lon="7.828544">
        <ele>294.021424</ele>
        <time>2021-11-15T20:31:48.939Z</time>
      </trkpt>
      <trkpt lat="47.568555" lon="7.826544">
        <ele>293.824162</ele>
        <time>2021-11-15T20:32:08.603Z</time>
      </trkpt>
      <trkpt lat="47.568503" lon="7.825849">
        <ele>293.727906</ele>
        <time>2021-11-15T20:32:15.561Z</time>
      </trkpt>
      <trkpt lat="47.568448" lon="7.824552">
        <ele>293.520940</ele>
        <time>2021-11-15T20:32:28.267Z</time>
      </trkpt>
      <trkpt lat="47.568380" lon="7.822935">
        <ele>293.322788</ele>
        <time>2021-11-15T20:32:42.619Z</time>
      </trkpt>
      <trkpt lat="47.568400" lon="7.820924">
        <ele>293.196565</ele>
        <time>2021-11-15T20:33:02.479Z</time>
      </trkpt>
      <trkpt lat="47.568443" lon="7.820342">
        <ele>293.423071</ele>
        <time>2021-11-15T20:33:35.081Z</time>
      </trkpt>
      <trkpt lat="47.568417" lon="7.819772">
        <ele>293.644092</ele>
        <time>2021-11-15T20:34:06.876Z</time>
      </trkpt>
      <trkpt lat="47.568311" lon="7.819210">
        <ele>293.869850</ele>
        <time>2021-11-15T20:34:39.366Z</time>
      </trkpt>
      <trkpt lat="47.568272" lon="7.818798">
        <ele>294.030803</ele>
        <time>2021-11-15T20:35:02.504Z</time>
      </trkpt>
      <trkpt lat="47.568146" lon="7.818228">
        <ele>294.139674</ele>
        <time>2021-11-15T20:35:35.825Z</time>
      </trkpt>
      <trkpt lat="47.568049" lon="7.817619">
        <ele>293.834935</ele>
        <time>2021-11-15T20:35:42.294Z</time>
      </trkpt>
      <trkpt lat="47.567988" lon="7.816752">
        <ele>293.410410</ele>
        <time>2021-11-15T20:35:49.497Z</time>
      </trkpt>
      <trkpt lat="47.568209" lon="7.815459">
        <ele>292.378840</ele>
        <time>2021-11-15T20:36:00.293Z</time>
      </trkpt>
      <trkpt lat="47.568245" lon="7.815273">
        <ele>292.043414</ele>
        <time>2021-11-15T20:36:01.621Z</time>
      </trkpt>
      <trkpt lat="47.568480" lon="7.814364">
        <ele>290.356001</ele>
        <time>2021-11-15T20:36:08.549Z</time>
      </trkpt>
      <trkpt lat="47.568572" lon="7.814114">
        <ele>289.862372</ele>
        <time>2021-11-15T20:36:10.623Z</time>
      </trkpt>
      <trkpt lat="47.568248" lon="7.813814">
        <ele>288.880871</ele>
        <time>2021-11-15T20:36:14.487Z</time>
      </trkpt>
      <trkpt lat="47.568430" lon="7.813371">
        <ele>287.802125</ele>
        <time>2021-11-15T20:36:17.984Z</time>
      </trkpt>
      <trkpt lat="47.568525" lon="7.813167">
        <ele>287.121185</ele>
        <time>2021-11-15T20:36:19.622Z</time>
      </trkpt>
      <trkpt lat="47.568896" lon="7.812282">
        <ele>284.258929</ele>
        <time>2021-11-15T20:36:26.609Z</time>
      </trkpt>
      <trkpt lat="47.569891" lon="7.809920">
        <ele>276.547096</ele>
        <time>2021-11-15T20:36:44.481Z</time>
      </trkpt>
      <trkpt lat="47.569996" lon="7.809672">
        <ele>275.731283</ele>
        <time>2021-11-15T20:36:46.463Z</time>
      </trkpt>
      <trkpt lat="47.570230" lon="7.809116">
        <ele>273.905361</ele>
        <time>2021-11-15T20:36:50.811Z</time>
      </trkpt>
      <trkpt lat="47.570259" lon="7.809051">
        <ele>273.688229</ele>
        <time>2021-11-15T20:36:51.333Z</time>
      </trkpt>
      <trkpt lat="47.570299" lon="7.808969">
        <ele>273.470711</ele>
        <time>2021-11-15T20:36:52.054Z</time>
      </trkpt>
      <trkpt lat="47.570185" lon="7.808855">
        <ele>273.181496</ele>
        <time>2021-11-15T20:36:53.476Z</time>
      </trkpt>
      <trkpt lat="47.568962" lon="7.807589">
        <ele>270.044235</ele>
        <time>2021-11-15T20:37:09.590Z</time>
      </trkpt>
      <trkpt lat="47.568803" lon="7.807323">
        <ele>269.708136</ele>
        <time>2021-11-15T20:37:12.789Z</time>
      </trkpt>
      <trkpt lat="47.567792" lon="7.804628">
        <ele>268.948936</ele>
        <time>2021-11-15T20:37:41.749Z</time>
      </trkpt>
      <trkpt lat="47.567677" lon="7.804308">
        <ele>268.959705</ele>
        <time>2021-11-15T20:37:45.355Z</time>
      </trkpt>
      <trkpt lat="47.567503" lon="7.803912">
        <ele>268.973741</ele>
        <time>2021-11-15T20:37:50.075Z</time>
      </trkpt>
      <trkpt lat="47.567287" lon="7.803523">
        <ele>268.988704</ele>
        <time>2021-11-15T20:37:55.193Z</time>
      </trkpt>
      <trkpt lat="47.566532" lon="7.802465">
        <ele>270.267926</ele>
        <time>2021-11-15T20:38:11.486Z</time>
      </trkpt>
      <trkpt lat="47.566334" lon="7.802192">
        <ele>270.911777</ele>
        <time>2021-11-15T20:38:17.273Z</time>
      </trkpt>
      <trkpt lat="47.565517" lon="7.801041">
        <ele>273.881428</ele>
        <time>2021-11-15T20:38:50.089Z</time>
      </trkpt>
      <trkpt lat="47.565485" lon="7.800897">
        <ele>274.355537</ele>
        <time>2021-11-15T20:38:53.336Z</time>
      </trkpt>
      <trkpt lat="47.565490" lon="7.800752">
        <ele>274.809572</ele>
        <time>2021-11-15T20:38:57.867Z</time>
      </trkpt>
      <trkpt lat="47.565627" lon="7.800333">
        <ele>276.265600</ele>
        <time>2021-11-15T20:39:10.003Z</time>
      </trkpt>
      <trkpt lat="47.565704" lon="7.800090">
        <ele>277.105129</ele>
        <time>2021-11-15T20:39:17.389Z</time>
      </trkpt>
      <trkpt lat="47.566114" lon="7.798822">
        <ele>281.502165</ele>
        <time>2021-11-15T20:39:50.817Z</time>
      </trkpt>
      <trkpt lat="47.566454" lon="7.797771">
        <ele>283.391518</ele>
        <time>2021-11-15T20:40:14.384Z</time>
      </trkpt>
      <trkpt lat="47.566478" lon="7.797694">
        <ele>283.524385</ele>
        <time>2021-11-15T20:40:15.699Z</time>
      </trkpt>
      <trkpt lat="47.567008" lon="7.798425">
        <ele>285.205245</ele>
        <time>2021-11-15T20:40:29.983Z</time>
      </trkpt>
      <trkpt lat="47.567200" lon="7.798690">
        <ele>285.806884</ele>
        <time>2021-11-15T20:40:34.027Z</time>
      </trkpt>
      <trkpt lat="47.567213" lon="7.798707">
        <ele>285.814152</ele>
        <time>2021-11-15T20:40:34.337Z</time>
      </trkpt>
      <trkpt lat="47.567386" lon="7.798946">
        <ele>285.913311</ele>
        <time>2021-11-15T20:40:38.398Z</time>
      </trkpt>
      <trkpt lat="47.567788" lon="7.799488">
        <ele>286.141166</ele>
        <time>2021-11-15T20:40:47.809Z</time>
      </trkpt>
      <trkpt lat="47.567987" lon="7.799745">
        <ele>286.251832</ele>
        <time>2021-11-15T20:40:52.203Z</time>
      </trkpt>
      <trkpt lat="47.568185" lon="7.800003">
        <ele>286.362370</ele>
        <time>2021-11-15T20:40:56.399Z</time>
      </trkpt>
      <trkpt lat="47.568315" lon="7.800179">
        <ele>286.436192</ele>
        <time>2021-11-15T20:40:58.825Z</time>
      </trkpt>
      <trkpt lat="47.568384" lon="7.800059">
        <ele>286.480793</ele>
        <time>2021-11-15T20:41:00.581Z</time>
      </trkpt>
      <trkpt lat="47.569185" lon="7.799810">
        <ele>286.906488</ele>
        <time>2021-11-15T20:41:13.360Z</time>
      </trkpt>
      <trkpt lat="47.569327" lon="7.799762">
        <ele>286.986606</ele>
        <time>2021-11-15T20:41:15.665Z</time>
      </trkpt>
      <trkpt lat="47.569912" lon="7.799564">
        <ele>287.316690</ele>
        <time>2021-11-15T20:41:26.743Z</time>
      </trkpt>
      <trkpt lat="47.571202" lon="7.799089">
        <ele>288.387951</ele>
        <time>2021-11-15T20:41:50.631Z</time>
      </trkpt>
      <trkpt lat="47.571921" lon="7.798830">
        <ele>289.072315</ele>
        <time>2021-11-15T20:42:05.074Z</time>
      </trkpt>
      <trkpt lat="47.571985" lon="7.798809">
        <ele>289.132942</ele>
        <time>2021-11-15T20:42:06.369Z</time>
      </trkpt>
      <trkpt lat="47.572308" lon="7.798703">
        <ele>289.374095</ele>
        <time>2021-11-15T20:42:12.196Z</time>
      </trkpt>
      <trkpt lat="47.572527" lon="7.798632">
        <ele>289.522115</ele>
        <time>2021-11-15T20:42:15.995Z</time>
      </trkpt>
      <trkpt lat="47.572628" lon="7.798599">
        <ele>289.590405</ele>
        <time>2021-11-15T20:42:17.827Z</time>
      </trkpt>
      <trkpt lat="47.573055" lon="7.798459">
        <ele>289.879161</ele>
        <time>2021-11-15T20:42:25.447Z</time>
      </trkpt>
      <trkpt lat="47.573410" lon="7.798344">
        <ele>290.119095</ele>
        <time>2021-11-15T20:42:31.815Z</time>
      </trkpt>
      <trkpt lat="47.573813" lon="7.798212">
        <ele>290.391608</ele>
        <time>2021-11-15T20:42:38.895Z</time>
      </trkpt>
      <trkpt lat="47.574296" lon="7.798050">
        <ele>290.673893</ele>
        <time>2021-11-15T20:42:47.355Z</time>
      </trkpt>
      <trkpt lat="47.574910" lon="7.797787">
        <ele>291.036699</ele>
        <time>2021-11-15T20:42:57.559Z</time>
      </trkpt>
      <trkpt lat="47.575240" lon="7.797626">
        <ele>291.233914</ele>
        <time>2021-11-15T20:43:03.334Z</time>
      </trkpt>
      <trkpt lat="47.575391" lon="7.797551">
        <ele>291.324315</ele>
        <time>2021-11-15T20:43:06.173Z</time>
      </trkpt>
      <trkpt lat="47.575499" lon="7.797497">
        <ele>291.389016</ele>
        <time>2021-11-15T20:43:08.262Z</time>
      </trkpt>
      <trkpt lat="47.575580" lon="7.797470">
        <ele>291.475209</ele>
        <time>2021-11-15T20:43:09.805Z</time>
      </trkpt>
      <trkpt lat="47.575720" lon="7.797458">
        <ele>291.759879</ele>
        <time>2021-11-15T20:43:12.343Z</time>
      </trkpt>
      <trkpt lat="47.575780" lon="7.797475">
        <ele>291.883882</ele>
        <time>2021-11-15T20:43:13.521Z</time>
      </trkpt>
      <trkpt lat="47.575796" lon="7.797494">
        <ele>291.925498</ele>
        <time>2021-11-15T20:43:13.927Z</time>
      </trkpt>
      <trkpt lat="47.575820" lon="7.797521">
        <ele>291.986659</ele>
        <time>2021-11-15T20:43:14.461Z</time>
      </trkpt>
      <trkpt lat="47.575847" lon="7.797547">
        <ele>292.052018</ele>
        <time>2021-11-15T20:43:15.034Z</time>
      </trkpt>
      <trkpt lat="47.575879" lon="7.797550">
        <ele>292.117107</ele>
        <time>2021-11-15T20:43:15.611Z</time>
      </trkpt>
      <trkpt lat="47.575981" lon="7.797492">
        <ele>292.338875</ele>
        <time>2021-11-15T20:43:17.793Z</time>
      </trkpt>
      <trkpt lat="47.576004" lon="7.797461">
        <ele>292.401979</ele>
        <time>2021-11-15T20:43:18.382Z</time>
      </trkpt>
      <trkpt lat="47.576024" lon="7.797407">
        <ele>292.486340</ele>
        <time>2021-11-15T20:43:19.138Z</time>
      </trkpt>
      <trkpt lat="47.576036" lon="7.797357">
        <ele>292.559016</ele>
        <time>2021-11-15T20:43:19.862Z</time>
      </trkpt>
      <trkpt lat="47.576158" lon="7.797249">
        <ele>292.847474</ele>
        <time>2021-11-15T20:43:22.643Z</time>
      </trkpt>
      <trkpt lat="47.576257" lon="7.797179">
        <ele>293.070132</ele>
        <time>2021-11-15T20:43:25.010Z</time>
      </trkpt>
      <trkpt lat="47.576588" lon="7.797053">
        <ele>293.763852</ele>
        <time>2021-11-15T20:43:32.147Z</time>
      </trkpt>
      <trkpt lat="47.576849" lon="7.796996">
        <ele>294.299392</ele>
        <time>2021-11-15T20:43:38.702Z</time>
      </trkpt>
      <trkpt lat="47.576931" lon="7.797009">
        <ele>294.466798</ele>
        <time>2021-11-15T20:43:40.890Z</time>
      </trkpt>
      <trkpt lat="47.576994" lon="7.797117">
        <ele>294.662320</ele>
        <time>2021-11-15T20:43:43.601Z</time>
      </trkpt>
      <trkpt lat="47.577074" lon="7.797194">
        <ele>294.855947</ele>
        <time>2021-11-15T20:43:46.448Z</time>
      </trkpt>
      <trkpt lat="47.577166" lon="7.797236">
        <ele>295.051359</ele>
        <time>2021-11-15T20:43:49.161Z</time>
      </trkpt>
      <trkpt lat="47.577262" lon="7.797239">
        <ele>295.617769</ele>
        <time>2021-11-15T20:43:52.062Z</time>
      </trkpt>
      <trkpt lat="47.577262" lon="7.797239">
        <ele>295.617769</ele>
        <time>2021-11-15T20:43:52.088Z</time>
      </trkpt>
      <trkpt lat="47.577343" lon="7.797210">
        <ele>296.147831</ele>
        <time>2021-11-15T20:43:54.683Z</time>
      </trkpt>
      <trkpt lat="47.577418" lon="7.797151">
        <ele>296.687927</ele>
        <time>2021-11-15T20:43:57.459Z</time>
      </trkpt>
      <trkpt lat="47.577539" lon="7.797107">
        <ele>297.480436</ele>
        <time>2021-11-15T20:44:01.497Z</time>
      </trkpt>
      <trkpt lat="47.577612" lon="7.797087">
        <ele>297.952659</ele>
        <time>2021-11-15T20:44:04.094Z</time>
      </trkpt>
      <trkpt lat="47.577787" lon="7.797122">
        <ele>299.075932</ele>
        <time>2021-11-15T20:44:10.503Z</time>
      </trkpt>
      <trkpt lat="47.577944" lon="7.797172">
        <ele>300.097407</ele>
        <time>2021-11-15T20:44:16.579Z</time>
      </trkpt>
      <trkpt lat="47.578554" lon="7.797534">
        <ele>304.277037</ele>
        <time>2021-11-15T20:44:44.820Z</time>
      </trkpt>
      <trkpt lat="47.578679" lon="7.797723">
        <ele>305.412805</ele>
        <time>2021-11-15T20:44:53.361Z</time>
      </trkpt>
      <trkpt lat="47.578882" lon="7.798252">
        <ele>308.765632</ele>
        <time>2021-11-15T20:45:14.215Z</time>
      </trkpt>
      <trkpt lat="47.579085" lon="7.798411">
        <ele>310.942641</ele>
        <time>2021-11-15T20:45:26.450Z</time>
      </trkpt>
      <trkpt lat="47.579284" lon="7.798330">
        <ele>312.899400</ele>
        <time>2021-11-15T20:45:37.909Z</time>
      </trkpt>
      <trkpt lat="47.579900" lon="7.797779">
        <ele>319.721227</ele>
        <time>2021-11-15T20:46:16.979Z</time>
      </trkpt>
      <trkpt lat="47.580222" lon="7.797578">
        <ele>323.034074</ele>
        <time>2021-11-15T20:46:36.031Z</time>
      </trkpt>
      <trkpt lat="47.580444" lon="7.797575">
        <ele>324.811519</ele>
        <time>2021-11-15T20:46:48.311Z</time>
      </trkpt>
      <trkpt lat="47.580966" lon="7.797737">
        <ele>328.813705</ele>
        <time>2021-11-15T20:47:14.933Z</time>
      </trkpt>
      <trkpt lat="47.581379" lon="7.797757">
        <ele>331.914654</ele>
        <time>2021-11-15T20:47:33.400Z</time>
      </trkpt>
      <trkpt lat="47.581869" lon="7.797750">
        <ele>335.591955</ele>
        <time>2021-11-15T20:47:53.338Z</time>
      </trkpt>
      <trkpt lat="47.582160" lon="7.797772">
        <ele>337.464073</ele>
        <time>2021-11-15T20:48:03.705Z</time>
      </trkpt>
      <trkpt lat="47.582752" lon="7.797833">
        <ele>339.952247</ele>
        <time>2021-11-15T20:48:23.169Z</time>
      </trkpt>
      <trkpt lat="47.583508" lon="7.797910">
        <ele>343.129538</ele>
        <time>2021-11-15T20:48:46.273Z</time>
      </trkpt>
      <trkpt lat="47.584517" lon="7.797802">
        <ele>347.070657</ele>
        <time>2021-11-15T20:49:14.393Z</time>
      </trkpt>
      <trkpt lat="47.584729" lon="7.797820">
        <ele>347.864196</ele>
        <time>2021-11-15T20:49:21.328Z</time>
      </trkpt>
      <trkpt lat="47.585233" lon="7.798047">
        <ele>349.832629</ele>
        <time>2021-11-15T20:49:37.142Z</time>
      </trkpt>
      <trkpt lat="47.585534" lon="7.798199">
        <ele>351.020918</ele>
        <time>2021-11-15T20:49:46.925Z</time>
      </trkpt>
      <trkpt lat="47.585911" lon="7.798303">
        <ele>352.434288</ele>
        <time>2021-11-15T20:49:58.636Z</time>
      </trkpt>
      <trkpt lat="47.586281" lon="7.798381">
        <ele>353.806484</ele>
        <time>2021-11-15T20:50:10.442Z</time>
      </trkpt>
      <trkpt lat="47.586543" lon="7.798436">
        <ele>354.778065</ele>
        <time>2021-11-15T20:50:17.644Z</time>
      </trkpt>
      <trkpt lat="47.587282" lon="7.798453">
        <ele>357.491782</ele>
        <time>2021-11-15T20:50:39.356Z</time>
      </trkpt>
      <trkpt lat="47.587388" lon="7.798430">
        <ele>357.885129</ele>
        <time>2021-11-15T20:50:42.742Z</time>
      </trkpt>
      <trkpt lat="47.587698" lon="7.798426">
        <ele>358.734308</ele>
        <time>2021-11-15T20:50:51.545Z</time>
      </trkpt>
      <trkpt lat="47.588177" lon="7.798477">
        <ele>360.030108</ele>
        <time>2021-11-15T20:51:03.855Z</time>
      </trkpt>
      <trkpt lat="47.588390" lon="7.798556">
        <ele>360.622549</ele>
        <time>2021-11-15T20:51:09.278Z</time>
      </trkpt>
      <trkpt lat="47.588797" lon="7.798670">
        <ele>361.740170</ele>
        <time>2021-11-15T20:51:19.965Z</time>
      </trkpt>
      <trkpt lat="47.589010" lon="7.798691">
        <ele>362.316171</ele>
        <time>2021-11-15T20:51:24.831Z</time>
      </trkpt>
      <trkpt lat="47.589153" lon="7.798651">
        <ele>362.708830</ele>
        <time>2021-11-15T20:51:28.481Z</time>
      </trkpt>
      <trkpt lat="47.589272" lon="7.798569">
        <ele>362.937734</ele>
        <time>2021-11-15T20:51:31.266Z</time>
      </trkpt>
      <trkpt lat="47.589486" lon="7.798387">
        <ele>363.302283</ele>
        <time>2021-11-15T20:51:36.956Z</time>
      </trkpt>
      <trkpt lat="47.589692" lon="7.798248">
        <ele>363.636723</ele>
        <time>2021-11-15T20:51:42.028Z</time>
      </trkpt>
      <trkpt lat="47.589924" lon="7.798072">
        <ele>364.021810</ele>
        <time>2021-11-15T20:51:48.207Z</time>
      </trkpt>
      <trkpt lat="47.590924" lon="7.797504">
        <ele>365.266481</ele>
        <time>2021-11-15T20:52:09.217Z</time>
      </trkpt>
      <trkpt lat="47.591349" lon="7.797193">
        <ele>364.490329</ele>
        <time>2021-11-15T20:52:15.928Z</time>
      </trkpt>
      <trkpt lat="47.591728" lon="7.796915">
        <ele>363.797861</ele>
        <time>2021-11-15T20:52:20.853Z</time>
      </trkpt>
      <trkpt lat="47.592114" lon="7.796545">
        <ele>363.045138</ele>
        <time>2021-11-15T20:52:25.705Z</time>
      </trkpt>
      <trkpt lat="47.592429" lon="7.796406">
        <ele>362.506915</ele>
        <time>2021-11-15T20:52:29.032Z</time>
      </trkpt>
      <trkpt lat="47.592802" lon="7.796368">
        <ele>360.704986</ele>
        <time>2021-11-15T20:52:32.623Z</time>
      </trkpt>
      <trkpt lat="47.593608" lon="7.796793">
        <ele>356.543910</ele>
        <time>2021-11-15T20:52:40.508Z</time>
      </trkpt>
      <trkpt lat="47.594060" lon="7.796856">
        <ele>354.335587</ele>
        <time>2021-11-15T20:52:44.820Z</time>
      </trkpt>
      <trkpt lat="47.594601" lon="7.796746">
        <ele>352.662670</ele>
        <time>2021-11-15T20:52:50.073Z</time>
      </trkpt>
      <trkpt lat="47.594663" lon="7.797229">
        <ele>351.815935</ele>
        <time>2021-11-15T20:52:53.390Z</time>
      </trkpt>
      <trkpt lat="47.594957" lon="7.798605">
        <ele>349.330165</ele>
        <time>2021-11-15T20:53:03.974Z</time>
      </trkpt>
      <trkpt lat="47.595383" lon="7.799322">
        <ele>349.631106</ele>
        <time>2021-11-15T20:53:15.658Z</time>
      </trkpt>
      <trkpt lat="47.595466" lon="7.799497">
        <ele>349.750003</ele>
        <time>2021-11-15T20:53:18.423Z</time>
      </trkpt>
      <trkpt lat="47.595757" lon="7.800208">
        <ele>350.212204</ele>
        <time>2021-11-15T20:53:30.032Z</time>
      </trkpt>
      <trkpt lat="47.595950" lon="7.800596">
        <ele>350.480138</ele>
        <time>2021-11-15T20:53:36.413Z</time>
      </trkpt>
      <trkpt lat="47.596083" lon="7.800764">
        <ele>350.624114</ele>
        <time>2021-11-15T20:53:39.878Z</time>
      </trkpt>
      <trkpt lat="47.596154" lon="7.800842">
        <ele>350.763973</ele>
        <time>2021-11-15T20:53:41.710Z</time>
      </trkpt>
      <trkpt lat="47.596631" lon="7.801307">
        <ele>351.773456</ele>
        <time>2021-11-15T20:53:52.531Z</time>
      </trkpt>
      <trkpt lat="47.596866" lon="7.801508">
        <ele>352.253208</ele>
        <time>2021-11-15T20:53:57.775Z</time>
      </trkpt>
      <trkpt lat="47.597625" lon="7.801971">
        <ele>353.704566</ele>
        <time>2021-11-15T20:54:17.802Z</time>
      </trkpt>
      <trkpt lat="47.597927" lon="7.802250">
        <ele>354.754977</ele>
        <time>2021-11-15T20:54:26.419Z</time>
      </trkpt>
      <trkpt lat="47.598146" lon="7.802509">
        <ele>355.655781</ele>
        <time>2021-11-15T20:54:33.489Z</time>
      </trkpt>
      <trkpt lat="47.598398" lon="7.802889">
        <ele>356.811540</ele>
        <time>2021-11-15T20:54:43.368Z</time>
      </trkpt>
      <trkpt lat="47.599983" lon="7.804755">
        <ele>363.290501</ele>
        <time>2021-11-15T20:55:43.913Z</time>
      </trkpt>
      <trkpt lat="47.600367" lon="7.805144">
        <ele>364.774304</ele>
        <time>2021-11-15T20:55:55.573Z</time>
      </trkpt>
      <trkpt lat="47.600707" lon="7.805537">
        <ele>365.725195</ele>
        <time>2021-11-15T20:56:05.376Z</time>
      </trkpt>
      <trkpt lat="47.600919" lon="7.805847">
        <ele>366.175650</ele>
        <time>2021-11-15T20:56:11.578Z</time>
      </trkpt>
      <trkpt lat="47.601434" lon="7.806809">
        <ele>367.428793</ele>
        <time>2021-11-15T20:56:25.797Z</time>
      </trkpt>
      <trkpt lat="47.601856" lon="7.807444">
        <ele>368.762484</ele>
        <time>2021-11-15T20:56:39.949Z</time>
      </trkpt>
      <trkpt lat="47.602242" lon="7.807771">
        <ele>370.473524</ele>
        <time>2021-11-15T20:56:51.465Z</time>
      </trkpt>
      <trkpt lat="47.602352" lon="7.807799">
        <ele>370.903112</ele>
        <time>2021-11-15T20:56:54.790Z</time>
      </trkpt>
      <trkpt lat="47.602603" lon="7.807841">
        <ele>371.875355</ele>
        <time>2021-11-15T20:57:01.771Z</time>
      </trkpt>
      <trkpt lat="47.603050" lon="7.808058">
        <ele>373.685712</ele>
        <time>2021-11-15T20:57:18.216Z</time>
      </trkpt>
      <trkpt lat="47.603664" lon="7.808428">
        <ele>376.908921</ele>
        <time>2021-11-15T20:57:42.082Z</time>
      </trkpt>
      <trkpt lat="47.603933" lon="7.808453">
        <ele>378.504332</ele>
        <time>2021-11-15T20:57:52.219Z</time>
      </trkpt>
      <trkpt lat="47.604147" lon="7.808404">
        <ele>379.786066</ele>
        <time>2021-11-15T20:58:02.239Z</time>
      </trkpt>
      <trkpt lat="47.604338" lon="7.808356">
        <ele>380.932765</ele>
        <time>2021-11-15T20:58:09.684Z</time>
      </trkpt>
      <trkpt lat="47.605468" lon="7.808045">
        <ele>387.782559</ele>
        <time>2021-11-15T20:58:53.930Z</time>
      </trkpt>
      <trkpt lat="47.605899" lon="7.808010">
        <ele>390.394490</ele>
        <time>2021-11-15T20:59:09.340Z</time>
      </trkpt>
      <trkpt lat="47.606698" lon="7.808066">
        <ele>395.234715</ele>
        <time>2021-11-15T20:59:40.351Z</time>
      </trkpt>
      <trkpt lat="47.607385" lon="7.807967">
        <ele>400.015256</ele>
        <time>2021-11-15T21:00:10.779Z</time>
      </trkpt>
      <trkpt lat="47.607595" lon="7.808039">
        <ele>401.591620</ele>
        <time>2021-11-15T21:00:20.245Z</time>
      </trkpt>
      <trkpt lat="47.607803" lon="7.808223">
        <ele>403.362871</ele>
        <time>2021-11-15T21:00:31.715Z</time>
      </trkpt>
      <trkpt lat="47.608602" lon="7.809088">
        <ele>410.365387</ele>
        <time>2021-11-15T21:01:16.073Z</time>
      </trkpt>
      <trkpt lat="47.609427" lon="7.809753">
        <ele>415.510696</ele>
        <time>2021-11-15T21:01:53.886Z</time>
      </trkpt>
      <trkpt lat="47.609797" lon="7.810201">
        <ele>418.127997</ele>
        <time>2021-11-15T21:02:10.181Z</time>
      </trkpt>
      <trkpt lat="47.610233" lon="7.810909">
        <ele>420.231028</ele>
        <time>2021-11-15T21:02:27.700Z</time>
      </trkpt>
      <trkpt lat="47.610772" lon="7.811907">
        <ele>421.780889</ele>
        <time>2021-11-15T21:02:46.014Z</time>
      </trkpt>
      <trkpt lat="47.611013" lon="7.812221">
        <ele>422.357561</ele>
        <time>2021-11-15T21:02:51.442Z</time>
      </trkpt>
      <trkpt lat="47.612313" lon="7.813004">
        <ele>424.324592</ele>
        <time>2021-11-15T21:03:16.628Z</time>
      </trkpt>
      <trkpt lat="47.612555" lon="7.813076">
        <ele>424.651974</ele>
        <time>2021-11-15T21:03:21.885Z</time>
      </trkpt>
      <trkpt lat="47.612810" lon="7.813060">
        <ele>424.990510</ele>
        <time>2021-11-15T21:03:27.771Z</time>
      </trkpt>
      <trkpt lat="47.613501" lon="7.812899">
        <ele>427.159117</ele>
        <time>2021-11-15T21:03:45.930Z</time>
      </trkpt>
      <trkpt lat="47.613621" lon="7.812859">
        <ele>427.584864</ele>
        <time>2021-11-15T21:03:49.368Z</time>
      </trkpt>
      <trkpt lat="47.613868" lon="7.812544">
        <ele>428.712410</ele>
        <time>2021-11-15T21:03:58.963Z</time>
      </trkpt>
      <trkpt lat="47.614051" lon="7.812407">
        <ele>429.421977</ele>
        <time>2021-11-15T21:04:05.335Z</time>
      </trkpt>
      <trkpt lat="47.614764" lon="7.812475">
        <ele>432.081722</ele>
        <time>2021-11-15T21:04:28.017Z</time>
      </trkpt>
      <trkpt lat="47.614932" lon="7.812637">
        <ele>433.023414</ele>
        <time>2021-11-15T21:04:34.158Z</time>
      </trkpt>
      <trkpt lat="47.615387" lon="7.813324">
        <ele>436.074566</ele>
        <time>2021-11-15T21:04:55.296Z</time>
      </trkpt>
      <trkpt lat="47.615645" lon="7.813447">
        <ele>437.348155</ele>
        <time>2021-11-15T21:05:04.376Z</time>
      </trkpt>
      <trkpt lat="47.615803" lon="7.813616">
        <ele>438.263593</ele>
        <time>2021-11-15T21:05:11.960Z</time>
      </trkpt>
      <trkpt lat="47.616224" lon="7.814793">
        <ele>442.895928</ele>
        <time>2021-11-15T21:05:43.696Z</time>
      </trkpt>
      <trkpt lat="47.616291" lon="7.814920">
        <ele>443.485857</ele>
        <time>2021-11-15T21:05:49.014Z</time>
      </trkpt>
      <trkpt lat="47.616368" lon="7.815112">
        <ele>444.303095</ele>
        <time>2021-11-15T21:05:53.869Z</time>
      </trkpt>
      <trkpt lat="47.616439" lon="7.815458">
        <ele>445.626113</ele>
        <time>2021-11-15T21:06:04.084Z</time>
      </trkpt>
      <trkpt lat="47.616582" lon="7.816196">
        <ele>448.435041</ele>
        <time>2021-11-15T21:06:21.708Z</time>
      </trkpt>
      <trkpt lat="47.616632" lon="7.816335">
        <ele>449.011369</ele>
        <time>2021-11-15T21:06:26.120Z</time>
      </trkpt>
      <trkpt lat="47.616707" lon="7.816445">
        <ele>449.583692</ele>
        <time>2021-11-15T21:06:30.558Z</time>
      </trkpt>
      <trkpt lat="47.617000" lon="7.816677">
        <ele>451.117353</ele>
        <time>2021-11-15T21:06:42.167Z</time>
      </trkpt>
      <trkpt lat="47.617243" lon="7.816840">
        <ele>452.348429</ele>
        <time>2021-11-15T21:06:50.150Z</time>
      </trkpt>
      <trkpt lat="47.617373" lon="7.816786">
        <ele>452.971616</ele>
        <time>2021-11-15T21:06:55.023Z</time>
      </trkpt>
      <trkpt lat="47.617466" lon="7.816748">
        <ele>453.416908</ele>
        <time>2021-11-15T21:06:57.659Z</time>
      </trkpt>
      <trkpt lat="47.617591" lon="7.816685">
        <ele>454.026324</ele>
        <time>2021-11-15T21:07:01.794Z</time>
      </trkpt>
      <trkpt lat="47.617645" lon="7.816658">
        <ele>454.289376</ele>
        <time>2021-11-15T21:07:03.781Z</time>
      </trkpt>
      <trkpt lat="47.617819" lon="7.816612">
        <ele>455.105248</ele>
        <time>2021-11-15T21:07:09.352Z</time>
      </trkpt>
      <trkpt lat="47.618026" lon="7.816656">
        <ele>456.070559</ele>
        <time>2021-11-15T21:07:16.643Z</time>
      </trkpt>
      <trkpt lat="47.618674" lon="7.816980">
        <ele>459.303321</ele>
        <time>2021-11-15T21:07:38.473Z</time>
      </trkpt>
      <trkpt lat="47.618799" lon="7.817081">
        <ele>459.997792</ele>
        <time>2021-11-15T21:07:43.695Z</time>
      </trkpt>
      <trkpt lat="47.619023" lon="7.817353">
        <ele>461.410117</ele>
        <time>2021-11-15T21:07:53.160Z</time>
      </trkpt>
      <trkpt lat="47.619222" lon="7.817606">
        <ele>462.688798</ele>
        <time>2021-11-15T21:08:02.260Z</time>
      </trkpt>
      <trkpt lat="47.619286" lon="7.817698">
        <ele>463.123598</ele>
        <time>2021-11-15T21:08:05.806Z</time>
      </trkpt>
      <trkpt lat="47.619369" lon="7.817884">
        <ele>463.857205</ele>
        <time>2021-11-15T21:08:10.986Z</time>
      </trkpt>
      <trkpt lat="47.619414" lon="7.817980">
        <ele>464.241762</ele>
        <time>2021-11-15T21:08:14.012Z</time>
      </trkpt>
      <trkpt lat="47.619455" lon="7.818047">
        <ele>464.539367</ele>
        <time>2021-11-15T21:08:15.696Z</time>
      </trkpt>
      <trkpt lat="47.619481" lon="7.818077">
        <ele>464.700073</ele>
        <time>2021-11-15T21:08:17.556Z</time>
      </trkpt>
      <trkpt lat="47.619880" lon="7.818346">
        <ele>466.857911</ele>
        <time>2021-11-15T21:08:32.328Z</time>
      </trkpt>
      <trkpt lat="47.619948" lon="7.818387">
        <ele>467.256500</ele>
        <time>2021-11-15T21:08:35.070Z</time>
      </trkpt>
      <trkpt lat="47.619983" lon="7.818525">
        <ele>467.796187</ele>
        <time>2021-11-15T21:08:38.736Z</time>
      </trkpt>
      <trkpt lat="47.620052" lon="7.818861">
        <ele>469.081838</ele>
        <time>2021-11-15T21:08:46.331Z</time>
      </trkpt>
      <trkpt lat="47.620091" lon="7.818898">
        <ele>469.333218</ele>
        <time>2021-11-15T21:08:47.759Z</time>
      </trkpt>
      <trkpt lat="47.620135" lon="7.818917">
        <ele>469.582064</ele>
        <time>2021-11-15T21:08:49.980Z</time>
      </trkpt>
      <trkpt lat="47.620588" lon="7.818608">
        <ele>472.289523</ele>
        <time>2021-11-15T21:09:07.822Z</time>
      </trkpt>
      <trkpt lat="47.621041" lon="7.817725">
        <ele>476.351124</ele>
        <time>2021-11-15T21:09:34.911Z</time>
      </trkpt>
      <trkpt lat="47.621099" lon="7.817634">
        <ele>476.908218</ele>
        <time>2021-11-15T21:09:39.270Z</time>
      </trkpt>
      <trkpt lat="47.621173" lon="7.817554">
        <ele>477.535674</ele>
        <time>2021-11-15T21:09:43.335Z</time>
      </trkpt>
      <trkpt lat="47.621261" lon="7.817493">
        <ele>478.201296</ele>
        <time>2021-11-15T21:09:46.823Z</time>
      </trkpt>
      <trkpt lat="47.621327" lon="7.817470">
        <ele>478.665889</ele>
        <time>2021-11-15T21:09:48.930Z</time>
      </trkpt>
      <trkpt lat="47.621408" lon="7.817443">
        <ele>479.234803</ele>
        <time>2021-11-15T21:09:53.427Z</time>
      </trkpt>
      <trkpt lat="47.622034" lon="7.817274">
        <ele>483.595093</ele>
        <time>2021-11-15T21:10:18.941Z</time>
      </trkpt>
      <trkpt lat="47.622464" lon="7.817228">
        <ele>486.549444</ele>
        <time>2021-11-15T21:10:39.433Z</time>
      </trkpt>
      <trkpt lat="47.622635" lon="7.817204">
        <ele>487.726503</ele>
        <time>2021-11-15T21:10:47.856Z</time>
      </trkpt>
      <trkpt lat="47.623176" lon="7.817016">
        <ele>491.050482</ele>
        <time>2021-11-15T21:11:10.436Z</time>
      </trkpt>
      <trkpt lat="47.623368" lon="7.816962">
        <ele>492.156272</ele>
        <time>2021-11-15T21:11:19.470Z</time>
      </trkpt>
      <trkpt lat="47.623648" lon="7.816926">
        <ele>493.746605</ele>
        <time>2021-11-15T21:11:30.531Z</time>
      </trkpt>
      <trkpt lat="47.624281" lon="7.816985">
        <ele>497.335531</ele>
        <time>2021-11-15T21:11:52.730Z</time>
      </trkpt>
      <trkpt lat="47.625987" lon="7.818025">
        <ele>504.644848</ele>
        <time>2021-11-15T21:12:46.209Z</time>
      </trkpt>
      <trkpt lat="47.626443" lon="7.818467">
        <ele>506.282083</ele>
        <time>2021-11-15T21:13:02.656Z</time>
      </trkpt>
      <trkpt lat="47.626482" lon="7.818488">
        <ele>506.385998</ele>
        <time>2021-11-15T21:13:04.071Z</time>
      </trkpt>
      <trkpt lat="47.626700" lon="7.818602">
        <ele>506.964932</ele>
        <time>2021-11-15T21:13:10.497Z</time>
      </trkpt>
      <trkpt lat="47.626983" lon="7.818622">
        <ele>507.674554</ele>
        <time>2021-11-15T21:13:18.537Z</time>
      </trkpt>
      <trkpt lat="47.627555" lon="7.818559">
        <ele>509.111161</ele>
        <time>2021-11-15T21:13:34.114Z</time>
      </trkpt>
      <trkpt lat="47.628903" lon="7.818442">
        <ele>507.871175</ele>
        <time>2021-11-15T21:13:52.812Z</time>
      </trkpt>
      <trkpt lat="47.629046" lon="7.818276">
        <ele>507.477168</ele>
        <time>2021-11-15T21:13:54.772Z</time>
      </trkpt>
      <trkpt lat="47.629116" lon="7.818158">
        <ele>507.247260</ele>
        <time>2021-11-15T21:13:55.768Z</time>
      </trkpt>
      <trkpt lat="47.629850" lon="7.816905">
        <ele>501.863625</ele>
        <time>2021-11-15T21:14:06.230Z</time>
      </trkpt>
      <trkpt lat="47.630743" lon="7.815987">
        <ele>494.122568</ele>
        <time>2021-11-15T21:14:15.799Z</time>
      </trkpt>
      <trkpt lat="47.631021" lon="7.815514">
        <ele>490.812728</ele>
        <time>2021-11-15T21:14:19.530Z</time>
      </trkpt>
      <trkpt lat="47.631083" lon="7.815420">
        <ele>490.095679</ele>
        <time>2021-11-15T21:14:20.313Z</time>
      </trkpt>
      <trkpt lat="47.631227" lon="7.815205">
        <ele>488.443173</ele>
        <time>2021-11-15T21:14:22.098Z</time>
      </trkpt>
      <trkpt lat="47.631677" lon="7.814692">
        <ele>483.852638</ele>
        <time>2021-11-15T21:14:27.082Z</time>
      </trkpt>
      <trkpt lat="47.631707" lon="7.814641">
        <ele>483.483590</ele>
        <time>2021-11-15T21:14:27.469Z</time>
      </trkpt>
      <trkpt lat="47.632099" lon="7.813963">
        <ele>478.630766</ele>
        <time>2021-11-15T21:14:32.829Z</time>
      </trkpt>
      <trkpt lat="47.632179" lon="7.813790">
        <ele>477.634724</ele>
        <time>2021-11-15T21:14:34.051Z</time>
      </trkpt>
      <trkpt lat="47.632515" lon="7.813155">
        <ele>473.801999</ele>
        <time>2021-11-15T21:14:39.052Z</time>
      </trkpt>
      <trkpt lat="47.632573" lon="7.813067">
        <ele>473.217652</ele>
        <time>2021-11-15T21:14:39.767Z</time>
      </trkpt>
      <trkpt lat="47.632601" lon="7.813004">
        <ele>472.859389</ele>
        <time>2021-11-15T21:14:40.205Z</time>
      </trkpt>
      <trkpt lat="47.632790" lon="7.812277">
        <ele>469.160253</ele>
        <time>2021-11-15T21:14:45.021Z</time>
      </trkpt>
      <trkpt lat="47.632845" lon="7.812246">
        <ele>468.745794</ele>
        <time>2021-11-15T21:14:45.556Z</time>
      </trkpt>
      <trkpt lat="47.632938" lon="7.812283">
        <ele>468.067512</ele>
        <time>2021-11-15T21:14:46.375Z</time>
      </trkpt>
      <trkpt lat="47.633151" lon="7.812590">
        <ele>465.964019</ele>
        <time>2021-11-15T21:14:49.100Z</time>
      </trkpt>
      <trkpt lat="47.633391" lon="7.813533">
        <ele>460.618993</ele>
        <time>2021-11-15T21:14:55.173Z</time>
      </trkpt>
      <trkpt lat="47.633759" lon="7.814194">
        <ele>456.072594</ele>
        <time>2021-11-15T21:15:00.182Z</time>
      </trkpt>
      <trkpt lat="47.633899" lon="7.814255">
        <ele>454.924468</ele>
        <time>2021-11-15T21:15:01.519Z</time>
      </trkpt>
      <trkpt lat="47.634025" lon="7.814248">
        <ele>453.932313</ele>
        <time>2021-11-15T21:15:02.611Z</time>
      </trkpt>
      <trkpt lat="47.634267" lon="7.814103">
        <ele>451.879290</ele>
        <time>2021-11-15T21:15:04.975Z</time>
      </trkpt>
      <trkpt lat="47.634603" lon="7.813838">
        <ele>448.923727</ele>
        <time>2021-11-15T21:15:08.351Z</time>
      </trkpt>
      <trkpt lat="47.634638" lon="7.813802">
        <ele>448.592949</ele>
        <time>2021-11-15T21:15:08.709Z</time>
      </trkpt>
      <trkpt lat="47.634810" lon="7.813677">
        <ele>447.105341</ele>
        <time>2021-11-15T21:15:10.424Z</time>
      </trkpt>
      <trkpt lat="47.635241" lon="7.813237">
        <ele>443.041908</ele>
        <time>2021-11-15T21:15:15.023Z</time>
      </trkpt>
      <trkpt lat="47.635461" lon="7.813093">
        <ele>441.174229</ele>
        <time>2021-11-15T21:15:17.164Z</time>
      </trkpt>
      <trkpt lat="47.635537" lon="7.813043">
        <ele>440.528493</ele>
        <time>2021-11-15T21:15:17.904Z</time>
      </trkpt>
      <trkpt lat="47.635617" lon="7.812948">
        <ele>439.732642</ele>
        <time>2021-11-15T21:15:18.804Z</time>
      </trkpt>
      <trkpt lat="47.635678" lon="7.812872">
        <ele>439.113985</ele>
        <time>2021-11-15T21:15:19.525Z</time>
      </trkpt>
      <trkpt lat="47.635984" lon="7.812598">
        <ele>436.387312</ele>
        <time>2021-11-15T21:15:22.729Z</time>
      </trkpt>
      <trkpt lat="47.636234" lon="7.812469">
        <ele>434.394227</ele>
        <time>2021-11-15T21:15:25.122Z</time>
      </trkpt>
      <trkpt lat="47.636362" lon="7.812419">
        <ele>433.397537</ele>
        <time>2021-11-15T21:15:26.326Z</time>
      </trkpt>
      <trkpt lat="47.636514" lon="7.812384">
        <ele>432.239259</ele>
        <time>2021-11-15T21:15:27.685Z</time>
      </trkpt>
      <trkpt lat="47.637056" lon="7.812257">
        <ele>428.107360</ele>
        <time>2021-11-15T21:15:32.603Z</time>
      </trkpt>
      <trkpt lat="47.637370" lon="7.812117">
        <ele>425.638492</ele>
        <time>2021-11-15T21:15:35.508Z</time>
      </trkpt>
      <trkpt lat="47.637893" lon="7.811811">
        <ele>421.390380</ele>
        <time>2021-11-15T21:15:40.401Z</time>
      </trkpt>
      <trkpt lat="47.638511" lon="7.811552">
        <ele>416.530863</ele>
        <time>2021-11-15T21:15:46.099Z</time>
      </trkpt>
      <trkpt lat="47.638925" lon="7.811482">
        <ele>413.377710</ele>
        <time>2021-11-15T21:15:49.805Z</time>
      </trkpt>
      <trkpt lat="47.639195" lon="7.811442">
        <ele>411.324368</ele>
        <time>2021-11-15T21:15:52.225Z</time>
      </trkpt>
      <trkpt lat="47.639796" lon="7.811469">
        <ele>408.533215</ele>
        <time>2021-11-15T21:15:57.792Z</time>
      </trkpt>
      <trkpt lat="47.639913" lon="7.811500">
        <ele>408.027079</ele>
        <time>2021-11-15T21:15:58.863Z</time>
      </trkpt>
      <trkpt lat="47.640114" lon="7.811584">
        <ele>407.137809</ele>
        <time>2021-11-15T21:16:00.932Z</time>
      </trkpt>
      <trkpt lat="47.640311" lon="7.811772">
        <ele>406.140395</ele>
        <time>2021-11-15T21:16:03.186Z</time>
      </trkpt>
      <trkpt lat="47.640406" lon="7.811979">
        <ele>405.421738</ele>
        <time>2021-11-15T21:16:05.026Z</time>
      </trkpt>
      <trkpt lat="47.640446" lon="7.812175">
        <ele>404.834109</ele>
        <time>2021-11-15T21:16:06.373Z</time>
      </trkpt>
      <trkpt lat="47.640965" lon="7.814694">
        <ele>399.163989</ele>
        <time>2021-11-15T21:16:25.617Z</time>
      </trkpt>
      <trkpt lat="47.641246" lon="7.815390">
        <ele>397.054303</ele>
        <time>2021-11-15T21:16:30.976Z</time>
      </trkpt>
      <trkpt lat="47.641404" lon="7.815775">
        <ele>394.880216</ele>
        <time>2021-11-15T21:16:33.779Z</time>
      </trkpt>
      <trkpt lat="47.641514" lon="7.816229">
        <ele>392.553408</ele>
        <time>2021-11-15T21:16:36.691Z</time>
      </trkpt>
      <trkpt lat="47.641687" lon="7.816751">
        <ele>389.747852</ele>
        <time>2021-11-15T21:16:40.155Z</time>
      </trkpt>
      <trkpt lat="47.641819" lon="7.816919">
        <ele>388.503187</ele>
        <time>2021-11-15T21:16:41.667Z</time>
      </trkpt>
      <trkpt lat="47.641916" lon="7.816921">
        <ele>387.808802</ele>
        <time>2021-11-15T21:16:42.515Z</time>
      </trkpt>
      <trkpt lat="47.642138" lon="7.816906">
        <ele>386.218099</ele>
        <time>2021-11-15T21:16:44.454Z</time>
      </trkpt>
      <trkpt lat="47.642758" lon="7.816795">
        <ele>381.834422</ele>
        <time>2021-11-15T21:16:49.926Z</time>
      </trkpt>
      <trkpt lat="47.642952" lon="7.816765">
        <ele>380.474576</ele>
        <time>2021-11-15T21:16:51.636Z</time>
      </trkpt>
      <trkpt lat="47.643638" lon="7.816626">
        <ele>375.647575</ele>
        <time>2021-11-15T21:16:57.799Z</time>
      </trkpt>
      <trkpt lat="47.643676" lon="7.816507">
        <ele>375.029008</ele>
        <time>2021-11-15T21:16:58.619Z</time>
      </trkpt>
      <trkpt lat="47.643672" lon="7.816390">
        <ele>374.478733</ele>
        <time>2021-11-15T21:16:59.359Z</time>
      </trkpt>
      <trkpt lat="47.643670" lon="7.816306">
        <ele>374.083925</ele>
        <time>2021-11-15T21:16:59.887Z</time>
      </trkpt>
      <trkpt lat="47.643631" lon="7.816174">
        <ele>373.406902</ele>
        <time>2021-11-15T21:17:00.807Z</time>
      </trkpt>
      <trkpt lat="47.643595" lon="7.815574">
        <ele>371.947925</ele>
        <time>2021-11-15T21:17:04.791Z</time>
      </trkpt>
      <trkpt lat="47.643583" lon="7.815386">
        <ele>371.683250</ele>
        <time>2021-11-15T21:17:06.114Z</time>
      </trkpt>
      <trkpt lat="47.643563" lon="7.815022">
        <ele>371.171384</ele>
        <time>2021-11-15T21:17:08.779Z</time>
      </trkpt>
      <trkpt lat="47.643526" lon="7.814068">
        <ele>369.832070</ele>
        <time>2021-11-15T21:17:16.154Z</time>
      </trkpt>
      <trkpt lat="47.643420" lon="7.812903">
        <ele>368.719999</ele>
        <time>2021-11-15T21:17:26.374Z</time>
      </trkpt>
      <trkpt lat="47.643356" lon="7.812369">
        <ele>368.633148</ele>
        <time>2021-11-15T21:17:31.822Z</time>
      </trkpt>
      <trkpt lat="47.643296" lon="7.811717">
        <ele>368.527775</ele>
        <time>2021-11-15T21:17:38.251Z</time>
      </trkpt>
      <trkpt lat="47.643273" lon="7.811468">
        <ele>368.487530</ele>
        <time>2021-11-15T21:17:40.712Z</time>
      </trkpt>
      <trkpt lat="47.643160" lon="7.810537">
        <ele>368.280367</ele>
        <time>2021-11-15T21:17:49.852Z</time>
      </trkpt>
      <trkpt lat="47.643048" lon="7.809936">
        <ele>367.962888</ele>
        <time>2021-11-15T21:17:55.647Z</time>
      </trkpt>
      <trkpt lat="47.643036" lon="7.809874">
        <ele>367.930045</ele>
        <time>2021-11-15T21:17:56.199Z</time>
      </trkpt>
      <trkpt lat="47.642844" lon="7.808839">
        <ele>367.383478</ele>
        <time>2021-11-15T21:18:05.289Z</time>
      </trkpt>
      <trkpt lat="47.642638" lon="7.807938">
        <ele>366.834017</ele>
        <time>2021-11-15T21:18:12.959Z</time>
      </trkpt>
      <trkpt lat="47.642575" lon="7.807502">
        <ele>366.464126</ele>
        <time>2021-11-15T21:18:16.500Z</time>
      </trkpt>
      <trkpt lat="47.642536" lon="7.807284">
        <ele>366.277026</ele>
        <time>2021-11-15T21:18:18.213Z</time>
      </trkpt>
      <trkpt lat="47.642474" lon="7.806929">
        <ele>365.972817</ele>
        <time>2021-11-15T21:18:21.269Z</time>
      </trkpt>
      <trkpt lat="47.642464" lon="7.806840">
        <ele>365.897970</ele>
        <time>2021-11-15T21:18:21.938Z</time>
      </trkpt>
      <trkpt lat="47.642457" lon="7.806775">
        <ele>365.843368</ele>
        <time>2021-11-15T21:18:22.443Z</time>
      </trkpt>
      <trkpt lat="47.642451" lon="7.806725">
        <ele>365.801239</ele>
        <time>2021-11-15T21:18:22.851Z</time>
      </trkpt>
      <trkpt lat="47.642419" lon="7.805794">
        <ele>365.027957</ele>
        <time>2021-11-15T21:18:30.233Z</time>
      </trkpt>
      <trkpt lat="47.642421" lon="7.805765">
        <ele>365.003776</ele>
        <time>2021-11-15T21:18:30.452Z</time>
      </trkpt>
      <trkpt lat="47.642430" lon="7.805613">
        <ele>364.877204</ele>
        <time>2021-11-15T21:18:31.636Z</time>
      </trkpt>
      <trkpt lat="47.642676" lon="7.804538">
        <ele>364.161625</ele>
        <time>2021-11-15T21:18:40.977Z</time>
      </trkpt>
      <trkpt lat="47.642770" lon="7.804334">
        <ele>364.011006</ele>
        <time>2021-11-15T21:18:43.124Z</time>
      </trkpt>
      <trkpt lat="47.642873" lon="7.804157">
        <ele>363.868472</ele>
        <time>2021-11-15T21:18:45.058Z</time>
      </trkpt>
      <trkpt lat="47.643129" lon="7.803855">
        <ele>363.572678</ele>
        <time>2021-11-15T21:18:49.162Z</time>
      </trkpt>
      <trkpt lat="47.643465" lon="7.803575">
        <ele>363.224127</ele>
        <time>2021-11-15T21:18:53.990Z</time>
      </trkpt>
      <trkpt lat="47.643772" lon="7.803319">
        <ele>363.046060</ele>
        <time>2021-11-15T21:18:58.415Z</time>
      </trkpt>
      <trkpt lat="47.644609" lon="7.803001">
        <ele>362.694316</ele>
        <time>2021-11-15T21:19:09.939Z</time>
      </trkpt>
      <trkpt lat="47.644860" lon="7.802911">
        <ele>362.589190</ele>
        <time>2021-11-15T21:19:13.618Z</time>
      </trkpt>
      <trkpt lat="47.645207" lon="7.802812">
        <ele>362.445334</ele>
        <time>2021-11-15T21:19:18.764Z</time>
      </trkpt>
      <trkpt lat="47.645311" lon="7.802799">
        <ele>362.423136</ele>
        <time>2021-11-15T21:19:20.309Z</time>
      </trkpt>
      <trkpt lat="47.645524" lon="7.802783">
        <ele>362.404313</ele>
        <time>2021-11-15T21:19:23.497Z</time>
      </trkpt>
      <trkpt lat="47.645603" lon="7.802779">
        <ele>362.397337</ele>
        <time>2021-11-15T21:19:24.666Z</time>
      </trkpt>
      <trkpt lat="47.645661" lon="7.802777">
        <ele>362.392216</ele>
        <time>2021-11-15T21:19:25.535Z</time>
      </trkpt>
      <trkpt lat="47.645690" lon="7.802775">
        <ele>362.389654</ele>
        <time>2021-11-15T21:19:25.979Z</time>
      </trkpt>
      <trkpt lat="47.645928" lon="7.802756">
        <ele>362.368618</ele>
        <time>2021-11-15T21:19:29.557Z</time>
      </trkpt>
      <trkpt lat="47.646891" lon="7.802749">
        <ele>362.283625</ele>
        <time>2021-11-15T21:19:43.836Z</time>
      </trkpt>
      <trkpt lat="47.646975" lon="7.802793">
        <ele>362.275763</ele>
        <time>2021-11-15T21:19:45.135Z</time>
      </trkpt>
      <trkpt lat="47.647353" lon="7.802987">
        <ele>361.889692</ele>
        <time>2021-11-15T21:19:50.608Z</time>
      </trkpt>
      <trkpt lat="47.647454" lon="7.803115">
        <ele>361.738811</ele>
        <time>2021-11-15T21:19:52.273Z</time>
      </trkpt>
      <trkpt lat="47.647677" lon="7.803299">
        <ele>361.448947</ele>
        <time>2021-11-15T21:19:55.417Z</time>
      </trkpt>
      <trkpt lat="47.647780" lon="7.802900">
        <ele>361.121906</ele>
        <time>2021-11-15T21:19:58.835Z</time>
      </trkpt>
      <trkpt lat="47.647896" lon="7.802634">
        <ele>360.879382</ele>
        <time>2021-11-15T21:20:01.307Z</time>
      </trkpt>
      <trkpt lat="47.648032" lon="7.802295">
        <ele>360.577396</ele>
        <time>2021-11-15T21:20:04.343Z</time>
      </trkpt>
      <trkpt lat="47.648175" lon="7.801942">
        <ele>360.262132</ele>
        <time>2021-11-15T21:20:07.440Z</time>
      </trkpt>
      <trkpt lat="47.648191" lon="7.801903">
        <ele>360.227183</ele>
        <time>2021-11-15T21:20:07.776Z</time>
      </trkpt>
      <trkpt lat="47.648544" lon="7.801029">
        <ele>359.083176</ele>
        <time>2021-11-15T21:20:15.306Z</time>
      </trkpt>
      <trkpt lat="47.648712" lon="7.800751">
        <ele>358.663809</ele>
        <time>2021-11-15T21:20:18.102Z</time>
      </trkpt>
      <trkpt lat="47.648726" lon="7.800730">
        <ele>358.630633</ele>
        <time>2021-11-15T21:20:18.316Z</time>
      </trkpt>
      <trkpt lat="47.648813" lon="7.800640">
        <ele>358.453875</ele>
        <time>2021-11-15T21:20:19.486Z</time>
      </trkpt>
      <trkpt lat="47.648842" lon="7.800639">
        <ele>358.405523</ele>
        <time>2021-11-15T21:20:19.815Z</time>
      </trkpt>
      <trkpt lat="47.648854" lon="7.800631">
        <ele>358.383596</ele>
        <time>2021-11-15T21:20:19.965Z</time>
      </trkpt>
      <trkpt lat="47.648906" lon="7.800592">
        <ele>358.286484</ele>
        <time>2021-11-15T21:20:20.627Z</time>
      </trkpt>
      <trkpt lat="47.648922" lon="7.800561">
        <ele>358.242632</ele>
        <time>2021-11-15T21:20:20.920Z</time>
      </trkpt>
      <trkpt lat="47.649025" lon="7.800505">
        <ele>358.059792</ele>
        <time>2021-11-15T21:20:22.142Z</time>
      </trkpt>
      <trkpt lat="47.649108" lon="7.800464">
        <ele>357.913984</ele>
        <time>2021-11-15T21:20:23.103Z</time>
      </trkpt>
      <trkpt lat="47.649238" lon="7.800402">
        <ele>357.686383</ele>
        <time>2021-11-15T21:20:24.693Z</time>
      </trkpt>
      <trkpt lat="47.649415" lon="7.800336">
        <ele>357.382183</ele>
        <time>2021-11-15T21:20:26.765Z</time>
      </trkpt>
      <trkpt lat="47.649440" lon="7.800327">
        <ele>357.339304</ele>
        <time>2021-11-15T21:20:27.047Z</time>
      </trkpt>
      <trkpt lat="47.649707" lon="7.800227">
        <ele>357.255876</ele>
        <time>2021-11-15T21:20:30.391Z</time>
      </trkpt>
      <trkpt lat="47.650046" lon="7.800072">
        <ele>357.302425</ele>
        <time>2021-11-15T21:20:35.242Z</time>
      </trkpt>
      <trkpt lat="47.650174" lon="7.800012">
        <ele>357.320040</ele>
        <time>2021-11-15T21:20:37.518Z</time>
      </trkpt>
      <trkpt lat="47.650489" lon="7.799868">
        <ele>357.363292</ele>
        <time>2021-11-15T21:20:42.936Z</time>
      </trkpt>
      <trkpt lat="47.650602" lon="7.799816">
        <ele>357.378817</ele>
        <time>2021-11-15T21:20:44.871Z</time>
      </trkpt>
      <trkpt lat="47.650602" lon="7.799816">
        <ele>357.378817</ele>
        <time>2021-11-15T21:20:44.878Z</time>
      </trkpt>
      <trkpt lat="47.650980" lon="7.799643">
        <ele>357.430726</ele>
        <time>2021-11-15T21:20:52.104Z</time>
      </trkpt>
      <trkpt lat="47.651021" lon="7.799621">
        <ele>357.436447</ele>
        <time>2021-11-15T21:20:52.852Z</time>
      </trkpt>
      <trkpt lat="47.651401" lon="7.799445">
        <ele>357.527115</ele>
        <time>2021-11-15T21:21:00.156Z</time>
      </trkpt>
      <trkpt lat="47.651510" lon="7.799390">
        <ele>357.566228</ele>
        <time>2021-11-15T21:21:03.257Z</time>
      </trkpt>
      <trkpt lat="47.651610" lon="7.799288">
        <ele>357.607451</ele>
        <time>2021-11-15T21:21:05.645Z</time>
      </trkpt>
      <trkpt lat="47.651827" lon="7.799068">
        <ele>357.696730</ele>
        <time>2021-11-15T21:21:12.029Z</time>
      </trkpt>
      <trkpt lat="47.652373" lon="7.798474">
        <ele>357.926715</ele>
        <time>2021-11-15T21:21:26.599Z</time>
      </trkpt>
      <trkpt lat="47.652486" lon="7.798377">
        <ele>357.971063</ele>
        <time>2021-11-15T21:21:28.904Z</time>
      </trkpt>
      <trkpt lat="47.652811" lon="7.798152">
        <ele>358.059431</ele>
        <time>2021-11-15T21:21:36.104Z</time>
      </trkpt>
      <trkpt lat="47.653088" lon="7.798043">
        <ele>357.968553</ele>
        <time>2021-11-15T21:21:41.621Z</time>
      </trkpt>
      <trkpt lat="47.653114" lon="7.798036">
        <ele>357.960173</ele>
        <time>2021-11-15T21:21:42.011Z</time>
      </trkpt>
      <trkpt lat="47.653274" lon="7.797996">
        <ele>357.908718</ele>
        <time>2021-11-15T21:21:44.984Z</time>
      </trkpt>
      <trkpt lat="47.653601" lon="7.798001">
        <ele>357.805011</ele>
        <time>2021-11-15T21:21:50.986Z</time>
      </trkpt>
      <trkpt lat="47.653659" lon="7.798008">
        <ele>357.786557</ele>
        <time>2021-11-15T21:21:52.130Z</time>
      </trkpt>
      <trkpt lat="47.653906" lon="7.798052">
        <ele>357.707664</ele>
        <time>2021-11-15T21:21:56.576Z</time>
      </trkpt>
      <trkpt lat="47.654804" lon="7.798282">
        <ele>357.600871</ele>
        <time>2021-11-15T21:22:14.722Z</time>
      </trkpt>
      <trkpt lat="47.654972" lon="7.798325">
        <ele>357.660666</ele>
        <time>2021-11-15T21:22:18.456Z</time>
      </trkpt>
      <trkpt lat="47.655261" lon="7.798389">
        <ele>357.763155</ele>
        <time>2021-11-15T21:22:24.829Z</time>
      </trkpt>
      <trkpt lat="47.655518" lon="7.798453">
        <ele>357.854558</ele>
        <time>2021-11-15T21:22:30.497Z</time>
      </trkpt>
      <trkpt lat="47.656074" lon="7.798592">
        <ele>358.052321</ele>
        <time>2021-11-15T21:22:43.071Z</time>
      </trkpt>
      <trkpt lat="47.656097" lon="7.798598">
        <ele>358.060512</ele>
        <time>2021-11-15T21:22:43.603Z</time>
      </trkpt>
      <trkpt lat="47.656579" lon="7.798702">
        <ele>358.280485</ele>
        <time>2021-11-15T21:22:54.561Z</time>
      </trkpt>
      <trkpt lat="47.656780" lon="7.798744">
        <ele>358.388393</ele>
        <time>2021-11-15T21:22:59.090Z</time>
      </trkpt>
      <trkpt lat="47.656989" lon="7.798756">
        <ele>358.499584</ele>
        <time>2021-11-15T21:23:03.745Z</time>
      </trkpt>
      <trkpt lat="47.657806" lon="7.798860">
        <ele>358.935509</ele>
        <time>2021-11-15T21:23:22.136Z</time>
      </trkpt>
      <trkpt lat="47.658094" lon="7.798895">
        <ele>359.089127</ele>
        <time>2021-11-15T21:23:28.455Z</time>
      </trkpt>
      <trkpt lat="47.658412" lon="7.798888">
        <ele>359.243866</ele>
        <time>2021-11-15T21:23:35.388Z</time>
      </trkpt>
      <trkpt lat="47.658617" lon="7.798885">
        <ele>359.343440</ele>
        <time>2021-11-15T21:23:40.028Z</time>
      </trkpt>
      <trkpt lat="47.658702" lon="7.798884">
        <ele>359.384726</ele>
        <time>2021-11-15T21:23:41.908Z</time>
      </trkpt>
      <trkpt lat="47.658990" lon="7.798898">
        <ele>359.524683</ele>
        <time>2021-11-15T21:23:48.370Z</time>
      </trkpt>
      <trkpt lat="47.659142" lon="7.798947">
        <ele>359.600230</ele>
        <time>2021-11-15T21:23:51.770Z</time>
      </trkpt>
      <trkpt lat="47.659353" lon="7.799038">
        <ele>359.706949</ele>
        <time>2021-11-15T21:23:56.704Z</time>
      </trkpt>
      <trkpt lat="47.659617" lon="7.799151">
        <ele>359.840396</ele>
        <time>2021-11-15T21:24:02.773Z</time>
      </trkpt>
      <trkpt lat="47.659695" lon="7.799185">
        <ele>359.879880</ele>
        <time>2021-11-15T21:24:04.595Z</time>
      </trkpt>
      <trkpt lat="47.659866" lon="7.799258">
        <ele>359.966347</ele>
        <time>2021-11-15T21:24:08.590Z</time>
      </trkpt>
      <trkpt lat="47.660413" lon="7.799490">
        <ele>360.271962</ele>
        <time>2021-11-15T21:24:21.010Z</time>
      </trkpt>
      <trkpt lat="47.660755" lon="7.799654">
        <ele>360.465037</ele>
        <time>2021-11-15T21:24:28.854Z</time>
      </trkpt>
      <trkpt lat="47.660793" lon="7.799673">
        <ele>360.486578</ele>
        <time>2021-11-15T21:24:29.770Z</time>
      </trkpt>
      <trkpt lat="47.661187" lon="7.799870">
        <ele>360.709923</ele>
        <time>2021-11-15T21:24:39.077Z</time>
      </trkpt>
      <trkpt lat="47.661224" lon="7.799885">
        <ele>360.730528</ele>
        <time>2021-11-15T21:24:40.038Z</time>
      </trkpt>
      <trkpt lat="47.661603" lon="7.800090">
        <ele>360.952684</ele>
        <time>2021-11-15T21:24:49.292Z</time>
      </trkpt>
      <trkpt lat="47.662007" lon="7.800299">
        <ele>361.265603</ele>
        <time>2021-11-15T21:24:59.077Z</time>
      </trkpt>
      <trkpt lat="47.662416" lon="7.800534">
        <ele>361.586375</ele>
        <time>2021-11-15T21:25:09.694Z</time>
      </trkpt>
      <trkpt lat="47.663470" lon="7.800659">
        <ele>362.293903</ele>
        <time>2021-11-15T21:25:33.849Z</time>
      </trkpt>
      <trkpt lat="47.663623" lon="7.800669">
        <ele>362.340088</ele>
        <time>2021-11-15T21:25:37.366Z</time>
      </trkpt>
      <trkpt lat="47.663648" lon="7.800671">
        <ele>362.347638</ele>
        <time>2021-11-15T21:25:37.919Z</time>
      </trkpt>
      <trkpt lat="47.663842" lon="7.800716">
        <ele>362.406853</ele>
        <time>2021-11-15T21:25:42.121Z</time>
      </trkpt>
      <trkpt lat="47.664106" lon="7.800746">
        <ele>362.486702</ele>
        <time>2021-11-15T21:25:47.873Z</time>
      </trkpt>
      <trkpt lat="47.664689" lon="7.800933">
        <ele>362.666575</ele>
        <time>2021-11-15T21:26:00.593Z</time>
      </trkpt>
      <trkpt lat="47.664798" lon="7.800967">
        <ele>362.700164</ele>
        <time>2021-11-15T21:26:02.896Z</time>
      </trkpt>
      <trkpt lat="47.664827" lon="7.800841">
        <ele>362.727208</ele>
        <time>2021-11-15T21:26:04.222Z</time>
      </trkpt>
      <trkpt lat="47.664908" lon="7.800883">
        <ele>362.753082</ele>
        <time>2021-11-15T21:26:05.603Z</time>
      </trkpt>
      <trkpt lat="47.665300" lon="7.801038">
        <ele>362.819845</ele>
        <time>2021-11-15T21:26:11.555Z</time>
      </trkpt>
      <trkpt lat="47.668652" lon="7.801735">
        <ele>363.296516</ele>
        <time>2021-11-15T21:27:03.245Z</time>
      </trkpt>
      <trkpt lat="47.669483" lon="7.801983">
        <ele>363.745871</ele>
        <time>2021-11-15T21:27:17.501Z</time>
      </trkpt>
      <trkpt lat="47.670462" lon="7.802451">
        <ele>364.300762</ele>
        <time>2021-11-15T21:27:35.415Z</time>
      </trkpt>
      <trkpt lat="47.670527" lon="7.802447">
        <ele>364.339503</ele>
        <time>2021-11-15T21:27:36.722Z</time>
      </trkpt>
      <trkpt lat="47.671143" lon="7.802769">
        <ele>364.728402</ele>
        <time>2021-11-15T21:27:47.936Z</time>
      </trkpt>
      <trkpt lat="47.672785" lon="7.803622">
        <ele>366.133375</ele>
        <time>2021-11-15T21:28:17.673Z</time>
      </trkpt>
      <trkpt lat="47.672874" lon="7.803578">
        <ele>366.232146</ele>
        <time>2021-11-15T21:28:19.433Z</time>
      </trkpt>
      <trkpt lat="47.673221" lon="7.803029">
        <ele>366.766025</ele>
        <time>2021-11-15T21:28:29.405Z</time>
      </trkpt>
      <trkpt lat="47.673257" lon="7.802852">
        <ele>366.897123</ele>
        <time>2021-11-15T21:28:32.103Z</time>
      </trkpt>
      <trkpt lat="47.673277" lon="7.802799">
        <ele>366.940200</ele>
        <time>2021-11-15T21:28:32.993Z</time>
      </trkpt>
      <trkpt lat="47.673308" lon="7.802785">
        <ele>366.974318</ele>
        <time>2021-11-15T21:28:33.864Z</time>
      </trkpt>
      <trkpt lat="47.673363" lon="7.802809">
        <ele>367.034680</ele>
        <time>2021-11-15T21:28:35.397Z</time>
      </trkpt>
      <trkpt lat="47.673416" lon="7.802881">
        <ele>367.110315</ele>
        <time>2021-11-15T21:28:37.318Z</time>
      </trkpt>
      <trkpt lat="47.673666" lon="7.802454">
        <ele>367.784299</ele>
        <time>2021-11-15T21:28:45.781Z</time>
      </trkpt>
      <trkpt lat="47.673827" lon="7.802204">
        <ele>368.230104</ele>
        <time>2021-11-15T21:28:51.021Z</time>
      </trkpt>
      <trkpt lat="47.673974" lon="7.801975">
        <ele>368.637832</ele>
        <time>2021-11-15T21:28:55.804Z</time>
      </trkpt>
      <trkpt lat="47.674327" lon="7.801371">
        <ele>369.668505</ele>
        <time>2021-11-15T21:29:08.034Z</time>
      </trkpt>
      <trkpt lat="47.674474" lon="7.801183">
        <ele>370.039783</ele>
        <time>2021-11-15T21:29:12.613Z</time>
      </trkpt>
      <trkpt lat="47.674792" lon="7.800871">
        <ele>370.752001</ele>
        <time>2021-11-15T21:29:21.371Z</time>
      </trkpt>
      <trkpt lat="47.675532" lon="7.800539">
        <ele>372.060605</ele>
        <time>2021-11-15T21:29:38.796Z</time>
      </trkpt>
      <trkpt lat="47.675630" lon="7.800465">
        <ele>372.246714</ele>
        <time>2021-11-15T21:29:41.465Z</time>
      </trkpt>
      <trkpt lat="47.675794" lon="7.800362">
        <ele>372.548141</ele>
        <time>2021-11-15T21:30:02.030Z</time>
      </trkpt>
      <trkpt lat="47.675912" lon="7.800265">
        <ele>372.776451</ele>
        <time>2021-11-15T21:30:18.041Z</time>
      </trkpt>
      <trkpt lat="47.675978" lon="7.800212">
        <ele>372.903464</ele>
        <time>2021-11-15T21:30:26.682Z</time>
      </trkpt>
      <trkpt lat="47.676167" lon="7.800066">
        <ele>373.264099</ele>
        <time>2021-11-15T21:30:50.993Z</time>
      </trkpt>
      <trkpt lat="47.676231" lon="7.800074">
        <ele>373.372823</ele>
        <time>2021-11-15T21:30:58.951Z</time>
      </trkpt>
      <trkpt lat="47.678027" lon="7.799442">
        <ele>375.565025</ele>
        <time>2021-11-15T21:34:33.111Z</time>
      </trkpt>
      <trkpt lat="47.679151" lon="7.799219">
        <ele>376.269659</ele>
        <time>2021-11-15T21:36:42.395Z</time>
      </trkpt>
      <trkpt lat="47.679352" lon="7.799059">
        <ele>376.396767</ele>
        <time>2021-11-15T21:37:08.239Z</time>
      </trkpt>
      <trkpt lat="47.679706" lon="7.798620">
        <ele>376.653811</ele>
        <time>2021-11-15T21:38:00.275Z</time>
      </trkpt>
      <trkpt lat="47.680009" lon="7.798422">
        <ele>376.685891</ele>
        <time>2021-11-15T21:38:37.313Z</time>
      </trkpt>
      <trkpt lat="47.681013" lon="7.798798">
        <ele>376.577006</ele>
        <time>2021-11-15T21:40:31.879Z</time>
      </trkpt>
      <trkpt lat="47.681280" lon="7.798801">
        <ele>376.548927</ele>
        <time>2021-11-15T21:41:01.159Z</time>
      </trkpt>
      <trkpt lat="47.682090" lon="7.798811">
        <ele>376.492698</ele>
        <time>2021-11-15T21:42:30.358Z</time>
      </trkpt>
      <trkpt lat="47.682143" lon="7.798819">
        <ele>376.489932</ele>
        <time>2021-11-15T21:42:36.060Z</time>
      </trkpt>
      <trkpt lat="47.682432" lon="7.798569">
        <ele>376.472566</ele>
        <time>2021-11-15T21:43:12.947Z</time>
      </trkpt>
      <trkpt lat="47.683513" lon="7.798053">
        <ele>376.663757</ele>
        <time>2021-11-15T21:45:19.661Z</time>
      </trkpt>
      <trkpt lat="47.683994" lon="7.798044">
        <ele>377.087114</ele>
        <time>2021-11-15T21:46:14.975Z</time>
      </trkpt>
      <trkpt lat="47.684400" lon="7.797862">
        <ele>377.460348</ele>
        <time>2021-11-15T21:47:04.021Z</time>
      </trkpt>
      <trkpt lat="47.684465" lon="7.797824">
        <ele>377.521825</ele>
        <time>2021-11-15T21:47:12.169Z</time>
      </trkpt>
      <trkpt lat="47.684548" lon="7.797775">
        <ele>377.600430</ele>
        <time>2021-11-15T21:47:22.618Z</time>
      </trkpt>
      <trkpt lat="47.684907" lon="7.797433">
        <ele>377.975776</ele>
        <time>2021-11-15T21:48:11.777Z</time>
      </trkpt>
      <trkpt lat="47.684934" lon="7.797356">
        <ele>378.037257</ele>
        <time>2021-11-15T21:48:18.712Z</time>
      </trkpt>
      <trkpt lat="47.685144" lon="7.797223">
        <ele>378.358972</ele>
        <time>2021-11-15T21:48:24.427Z</time>
      </trkpt>
      <trkpt lat="47.685475" lon="7.797037">
        <ele>378.857688</ele>
        <time>2021-11-15T21:48:33.207Z</time>
      </trkpt>
      <trkpt lat="47.685759" lon="7.796930">
        <ele>379.270582</ele>
        <time>2021-11-15T21:48:40.577Z</time>
      </trkpt>
      <trkpt lat="47.686089" lon="7.796835">
        <ele>379.744280</ele>
        <time>2021-11-15T21:48:49.364Z</time>
      </trkpt>
      <trkpt lat="47.686357" lon="7.796753">
        <ele>380.129882</ele>
        <time>2021-11-15T21:48:56.983Z</time>
      </trkpt>
      <trkpt lat="47.686604" lon="7.796684">
        <ele>380.484063</ele>
        <time>2021-11-15T21:49:03.397Z</time>
      </trkpt>
      <trkpt lat="47.686833" lon="7.796632">
        <ele>380.876755</ele>
        <time>2021-11-15T21:49:09.604Z</time>
      </trkpt>
      <trkpt lat="47.687014" lon="7.796595">
        <ele>381.198503</ele>
        <time>2021-11-15T21:49:14.862Z</time>
      </trkpt>
      <trkpt lat="47.687125" lon="7.796572">
        <ele>381.395868</ele>
        <time>2021-11-15T21:49:17.842Z</time>
      </trkpt>
      <trkpt lat="47.687299" lon="7.796542">
        <ele>381.704342</ele>
        <time>2021-11-15T21:49:22.298Z</time>
      </trkpt>
      <trkpt lat="47.687343" lon="7.796539">
        <ele>381.781908</ele>
        <time>2021-11-15T21:49:23.618Z</time>
      </trkpt>
      <trkpt lat="47.687384" lon="7.796535">
        <ele>381.854265</ele>
        <time>2021-11-15T21:49:24.972Z</time>
      </trkpt>
      <trkpt lat="47.687595" lon="7.796515">
        <ele>382.226595</ele>
        <time>2021-11-15T21:49:30.201Z</time>
      </trkpt>
      <trkpt lat="47.687607" lon="7.796514">
        <ele>382.247760</ele>
        <time>2021-11-15T21:49:30.535Z</time>
      </trkpt>
      <trkpt lat="47.687671" lon="7.796516">
        <ele>382.360490</ele>
        <time>2021-11-15T21:49:32.318Z</time>
      </trkpt>
      <trkpt lat="47.687769" lon="7.796519">
        <ele>382.533106</ele>
        <time>2021-11-15T21:49:35.432Z</time>
      </trkpt>
      <trkpt lat="47.688322" lon="7.796634">
        <ele>383.516444</ele>
        <time>2021-11-15T21:49:50.455Z</time>
      </trkpt>
      <trkpt lat="47.688430" lon="7.796592">
        <ele>383.712993</ele>
        <time>2021-11-15T21:49:53.904Z</time>
      </trkpt>
      <trkpt lat="47.688376" lon="7.796471">
        <ele>383.863084</ele>
        <time>2021-11-15T21:49:56.132Z</time>
      </trkpt>
      <trkpt lat="47.688243" lon="7.796236">
        <ele>384.180498</ele>
        <time>2021-11-15T21:50:00.533Z</time>
      </trkpt>
      <trkpt lat="47.688225" lon="7.796220">
        <ele>384.212714</ele>
        <time>2021-11-15T21:50:01.085Z</time>
      </trkpt>
      <trkpt lat="47.688100" lon="7.796113">
        <ele>384.434283</ele>
        <time>2021-11-15T21:50:04.505Z</time>
      </trkpt>
      <trkpt lat="47.687750" lon="7.795967">
        <ele>384.992612</ele>
        <time>2021-11-15T21:50:12.341Z</time>
      </trkpt>
      <trkpt lat="47.687733" lon="7.795960">
        <ele>385.019705</ele>
        <time>2021-11-15T21:50:12.796Z</time>
      </trkpt>
      <trkpt lat="47.687589" lon="7.795875">
        <ele>385.257684</ele>
        <time>2021-11-15T21:50:15.728Z</time>
      </trkpt>
      <trkpt lat="47.687244" lon="7.795566">
        <ele>385.876400</ele>
        <time>2021-11-15T21:50:23.953Z</time>
      </trkpt>
      <trkpt lat="47.686773" lon="7.795244">
        <ele>386.713294</ele>
        <time>2021-11-15T21:50:34.087Z</time>
      </trkpt>
      <trkpt lat="47.686447" lon="7.795085">
        <ele>387.348493</ele>
        <time>2021-11-15T21:50:40.760Z</time>
      </trkpt>
      <trkpt lat="47.685757" lon="7.794995">
        <ele>388.630758</ele>
        <time>2021-11-15T21:50:55.714Z</time>
      </trkpt>
      <trkpt lat="47.685630" lon="7.794901">
        <ele>388.893434</ele>
        <time>2021-11-15T21:50:59.198Z</time>
      </trkpt>
      <trkpt lat="47.685562" lon="7.794813">
        <ele>389.060389</ele>
        <time>2021-11-15T21:51:01.327Z</time>
      </trkpt>
      <trkpt lat="47.685487" lon="7.794521">
        <ele>389.449881</ele>
        <time>2021-11-15T21:51:06.558Z</time>
      </trkpt>
      <trkpt lat="47.685483" lon="7.793624">
        <ele>390.797269</ele>
        <time>2021-11-15T21:51:21.570Z</time>
      </trkpt>
      <trkpt lat="47.685522" lon="7.793290">
        <ele>391.346783</ele>
        <time>2021-11-15T21:51:27.361Z</time>
      </trkpt>
      <trkpt lat="47.685569" lon="7.792956">
        <ele>391.899915</ele>
        <time>2021-11-15T21:51:33.079Z</time>
      </trkpt>
      <trkpt lat="47.685693" lon="7.792135">
        <ele>393.263876</ele>
        <time>2021-11-15T21:51:46.895Z</time>
      </trkpt>
      <trkpt lat="47.685714" lon="7.791960">
        <ele>393.552030</ele>
        <time>2021-11-15T21:51:49.907Z</time>
      </trkpt>
      <trkpt lat="47.685709" lon="7.791561">
        <ele>394.185292</ele>
        <time>2021-11-15T21:51:56.338Z</time>
      </trkpt>
      <trkpt lat="47.685466" lon="7.790442">
        <ele>395.679049</ele>
        <time>2021-11-15T21:52:14.697Z</time>
      </trkpt>
      <trkpt lat="47.685435" lon="7.790058">
        <ele>396.170395</ele>
        <time>2021-11-15T21:52:20.173Z</time>
      </trkpt>
      <trkpt lat="47.685451" lon="7.789951">
        <ele>396.309646</ele>
        <time>2021-11-15T21:52:21.600Z</time>
      </trkpt>
      <trkpt lat="47.685517" lon="7.789491">
        <ele>396.907175</ele>
        <time>2021-11-15T21:52:28.326Z</time>
      </trkpt>
      <trkpt lat="47.685712" lon="7.788776">
        <ele>398.004643</ele>
        <time>2021-11-15T21:52:39.445Z</time>
      </trkpt>
      <trkpt lat="47.685727" lon="7.788724">
        <ele>398.100144</ele>
        <time>2021-11-15T21:52:40.703Z</time>
      </trkpt>
      <trkpt lat="47.685949" lon="7.787951">
        <ele>399.518845</ele>
        <time>2021-11-15T21:52:53.443Z</time>
      </trkpt>
      <trkpt lat="47.686130" lon="7.787340">
        <ele>400.645729</ele>
        <time>2021-11-15T21:53:04.775Z</time>
      </trkpt>
      <trkpt lat="47.686302" lon="7.786331">
        <ele>402.653492</ele>
        <time>2021-11-15T21:53:24.096Z</time>
      </trkpt>
      <trkpt lat="47.686331" lon="7.786036">
        <ele>403.505035</ele>
        <time>2021-11-15T21:53:29.803Z</time>
      </trkpt>
      <trkpt lat="47.686340" lon="7.785785">
        <ele>404.222980</ele>
        <time>2021-11-15T21:53:34.818Z</time>
      </trkpt>
      <trkpt lat="47.686341" lon="7.785005">
        <ele>406.450891</ele>
        <time>2021-11-15T21:53:50.854Z</time>
      </trkpt>
      <trkpt lat="47.686252" lon="7.784253">
        <ele>408.631764</ele>
        <time>2021-11-15T21:54:09.152Z</time>
      </trkpt>
      <trkpt lat="47.685935" lon="7.782954">
        <ele>412.067804</ele>
        <time>2021-11-15T21:54:41.373Z</time>
      </trkpt>
      <trkpt lat="47.685771" lon="7.782429">
        <ele>413.430540</ele>
        <time>2021-11-15T21:54:53.695Z</time>
      </trkpt>
      <trkpt lat="47.685457" lon="7.781526">
        <ele>415.823591</ele>
        <time>2021-11-15T21:55:11.116Z</time>
      </trkpt>
      <trkpt lat="47.685192" lon="7.780420">
        <ele>414.834395</ele>
        <time>2021-11-15T21:55:23.365Z</time>
      </trkpt>
      <trkpt lat="47.685111" lon="7.779800">
        <ele>414.195068</ele>
        <time>2021-11-15T21:55:27.856Z</time>
      </trkpt>
      <trkpt lat="47.685066" lon="7.779203">
        <ele>413.586955</ele>
        <time>2021-11-15T21:55:31.938Z</time>
      </trkpt>
      <trkpt lat="47.685010" lon="7.778565">
        <ele>412.350886</ele>
        <time>2021-11-15T21:55:36.190Z</time>
      </trkpt>
      <trkpt lat="47.684693" lon="7.776536">
        <ele>406.420909</ele>
        <time>2021-11-15T21:55:49.656Z</time>
      </trkpt>
      <trkpt lat="47.684265" lon="7.774268">
        <ele>400.158857</ele>
        <time>2021-11-15T21:56:05.160Z</time>
      </trkpt>
      <trkpt lat="47.683952" lon="7.772543">
        <ele>395.935775</ele>
        <time>2021-11-15T21:56:17.096Z</time>
      </trkpt>
      <trkpt lat="47.683943" lon="7.772495">
        <ele>395.824576</ele>
        <time>2021-11-15T21:56:17.427Z</time>
      </trkpt>
      <trkpt lat="47.683865" lon="7.772140">
        <ele>394.991191</ele>
        <time>2021-11-15T21:56:19.992Z</time>
      </trkpt>
      <trkpt lat="47.683745" lon="7.771752">
        <ele>394.038281</ele>
        <time>2021-11-15T21:56:22.919Z</time>
      </trkpt>
      <trkpt lat="47.683569" lon="7.771339">
        <ele>392.947440</ele>
        <time>2021-11-15T21:56:26.287Z</time>
      </trkpt>
      <trkpt lat="47.683285" lon="7.770864">
        <ele>391.678292</ele>
        <time>2021-11-15T21:56:30.689Z</time>
      </trkpt>
      <trkpt lat="47.682798" lon="7.770327">
        <ele>389.934013</ele>
        <time>2021-11-15T21:56:36.965Z</time>
      </trkpt>
      <trkpt lat="47.681387" lon="7.769148">
        <ele>385.928644</ele>
        <time>2021-11-15T21:56:53.731Z</time>
      </trkpt>
      <trkpt lat="47.680608" lon="7.768711">
        <ele>384.241674</ele>
        <time>2021-11-15T21:57:02.862Z</time>
      </trkpt>
      <trkpt lat="47.680291" lon="7.768374">
        <ele>383.590977</ele>
        <time>2021-11-15T21:57:08.587Z</time>
      </trkpt>
      <trkpt lat="47.680112" lon="7.768210">
        <ele>383.319483</ele>
        <time>2021-11-15T21:57:11.382Z</time>
      </trkpt>
      <trkpt lat="47.679654" lon="7.767908">
        <ele>382.672612</ele>
        <time>2021-11-15T21:57:17.710Z</time>
      </trkpt>
      <trkpt lat="47.679576" lon="7.767868">
        <ele>382.566090</ele>
        <time>2021-11-15T21:57:18.644Z</time>
      </trkpt>
      <trkpt lat="47.679489" lon="7.767825">
        <ele>382.447728</ele>
        <time>2021-11-15T21:57:19.647Z</time>
      </trkpt>
      <trkpt lat="47.679333" lon="7.767766">
        <ele>382.239923</ele>
        <time>2021-11-15T21:57:21.578Z</time>
      </trkpt>
      <trkpt lat="47.679217" lon="7.767752">
        <ele>382.089687</ele>
        <time>2021-11-15T21:57:22.865Z</time>
      </trkpt>
      <trkpt lat="47.679131" lon="7.767730">
        <ele>381.977036</ele>
        <time>2021-11-15T21:57:23.767Z</time>
      </trkpt>
      <trkpt lat="47.679013" lon="7.767707">
        <ele>381.823405</ele>
        <time>2021-11-15T21:57:25.220Z</time>
      </trkpt>
      <trkpt lat="47.678987" lon="7.767687">
        <ele>381.785607</ele>
        <time>2021-11-15T21:57:25.521Z</time>
      </trkpt>
      <trkpt lat="47.678922" lon="7.767592">
        <ele>381.667888</ele>
        <time>2021-11-15T21:57:26.517Z</time>
      </trkpt>
      <trkpt lat="47.678899" lon="7.767537">
        <ele>381.611615</ele>
        <time>2021-11-15T21:57:26.996Z</time>
      </trkpt>
      <trkpt lat="47.678852" lon="7.767327">
        <ele>381.304397</ele>
        <time>2021-11-15T21:57:28.616Z</time>
      </trkpt>
      <trkpt lat="47.678702" lon="7.766832">
        <ele>380.256493</ele>
        <time>2021-11-15T21:57:32.635Z</time>
      </trkpt>
      <trkpt lat="47.678683" lon="7.766771">
        <ele>380.126744</ele>
        <time>2021-11-15T21:57:33.171Z</time>
      </trkpt>
      <trkpt lat="47.678569" lon="7.766392">
        <ele>379.325404</ele>
        <time>2021-11-15T21:57:36.195Z</time>
      </trkpt>
      <trkpt lat="47.678412" lon="7.765986">
        <ele>378.421558</ele>
        <time>2021-11-15T21:57:39.504Z</time>
      </trkpt>
      <trkpt lat="47.678382" lon="7.765906">
        <ele>378.244782</ele>
        <time>2021-11-15T21:57:40.127Z</time>
      </trkpt>
      <trkpt lat="47.678359" lon="7.765855">
        <ele>378.126282</ele>
        <time>2021-11-15T21:57:40.561Z</time>
      </trkpt>
      <trkpt lat="47.678344" lon="7.765825">
        <ele>378.054145</ele>
        <time>2021-11-15T21:57:40.820Z</time>
      </trkpt>
      <trkpt lat="47.678233" lon="7.765617">
        <ele>377.541773</ele>
        <time>2021-11-15T21:57:42.551Z</time>
      </trkpt>
      <trkpt lat="47.678197" lon="7.765565">
        <ele>377.397789</ele>
        <time>2021-11-15T21:57:43.036Z</time>
      </trkpt>
      <trkpt lat="47.678111" lon="7.765484">
        <ele>377.105807</ele>
        <time>2021-11-15T21:57:43.989Z</time>
      </trkpt>
      <trkpt lat="47.677963" lon="7.765384">
        <ele>376.639610</ele>
        <time>2021-11-15T21:57:45.557Z</time>
      </trkpt>
      <trkpt lat="47.677617" lon="7.765148">
        <ele>375.621981</ele>
        <time>2021-11-15T21:57:49.312Z</time>
      </trkpt>
      <trkpt lat="47.677471" lon="7.764954">
        <ele>375.111738</ele>
        <time>2021-11-15T21:57:51.267Z</time>
      </trkpt>
      <trkpt lat="47.677427" lon="7.764836">
        <ele>374.875191</ele>
        <time>2021-11-15T21:57:52.174Z</time>
      </trkpt>
      <trkpt lat="47.677379" lon="7.764714">
        <ele>374.627393</ele>
        <time>2021-11-15T21:57:53.192Z</time>
      </trkpt>
      <trkpt lat="47.677356" lon="7.764658">
        <ele>374.512358</ele>
        <time>2021-11-15T21:57:53.666Z</time>
      </trkpt>
      <trkpt lat="47.677342" lon="7.764623">
        <ele>374.440965</ele>
        <time>2021-11-15T21:57:53.944Z</time>
      </trkpt>
      <trkpt lat="47.677251" lon="7.764397">
        <ele>373.979170</ele>
        <time>2021-11-15T21:57:55.770Z</time>
      </trkpt>
      <trkpt lat="47.677202" lon="7.764311">
        <ele>373.781601</ele>
        <time>2021-11-15T21:57:56.640Z</time>
      </trkpt>
      <trkpt lat="47.677132" lon="7.764248">
        <ele>373.568419</ele>
        <time>2021-11-15T21:57:57.566Z</time>
      </trkpt>
      <trkpt lat="47.676954" lon="7.764130">
        <ele>373.060718</ele>
        <time>2021-11-15T21:57:59.623Z</time>
      </trkpt>
      <trkpt lat="47.676526" lon="7.763904">
        <ele>371.877600</ele>
        <time>2021-11-15T21:58:04.886Z</time>
      </trkpt>
      <trkpt lat="47.676293" lon="7.763712">
        <ele>371.431040</ele>
        <time>2021-11-15T21:58:07.862Z</time>
      </trkpt>
      <trkpt lat="47.676174" lon="7.763597">
        <ele>371.248784</ele>
        <time>2021-11-15T21:58:09.571Z</time>
      </trkpt>
      <trkpt lat="47.676009" lon="7.763394">
        <ele>370.973731</ele>
        <time>2021-11-15T21:58:11.924Z</time>
      </trkpt>
      <trkpt lat="47.675758" lon="7.763117">
        <ele>370.572297</ele>
        <time>2021-11-15T21:58:15.574Z</time>
      </trkpt>
      <trkpt lat="47.675490" lon="7.762924">
        <ele>370.189945</ele>
        <time>2021-11-15T21:58:19.175Z</time>
      </trkpt>
      <trkpt lat="47.674971" lon="7.762746">
        <ele>369.506155</ele>
        <time>2021-11-15T21:58:25.650Z</time>
      </trkpt>
      <trkpt lat="47.674890" lon="7.762729">
        <ele>369.401139</ele>
        <time>2021-11-15T21:58:26.709Z</time>
      </trkpt>
      <trkpt lat="47.674813" lon="7.762712">
        <ele>369.300019</ele>
        <time>2021-11-15T21:58:27.695Z</time>
      </trkpt>
      <trkpt lat="47.674631" lon="7.762673">
        <ele>369.059397</ele>
        <time>2021-11-15T21:58:30.043Z</time>
      </trkpt>
      <trkpt lat="47.674325" lon="7.762551">
        <ele>368.644802</ele>
        <time>2021-11-15T21:58:33.885Z</time>
      </trkpt>
      <trkpt lat="47.673934" lon="7.762209">
        <ele>368.051015</ele>
        <time>2021-11-15T21:58:39.118Z</time>
      </trkpt>
      <trkpt lat="47.673724" lon="7.761991">
        <ele>367.715741</ele>
        <time>2021-11-15T21:58:42.116Z</time>
      </trkpt>
      <trkpt lat="47.673690" lon="7.762041">
        <ele>367.653128</ele>
        <time>2021-11-15T21:58:47.207Z</time>
      </trkpt>
      <trkpt lat="47.673664" lon="7.762014">
        <ele>367.611613</ele>
        <time>2021-11-15T21:58:47.538Z</time>
      </trkpt>
      <trkpt lat="47.673325" lon="7.761682">
        <ele>367.080243</ele>
        <time>2021-11-15T21:58:52.151Z</time>
      </trkpt>
      <trkpt lat="47.673263" lon="7.761602">
        <ele>366.973576</ele>
        <time>2021-11-15T21:58:53.143Z</time>
      </trkpt>
      <trkpt lat="47.673205" lon="7.761545">
        <ele>366.884600</ele>
        <time>2021-11-15T21:58:53.935Z</time>
      </trkpt>
      <trkpt lat="47.673117" lon="7.761431">
        <ele>366.735206</ele>
        <time>2021-11-15T21:58:55.312Z</time>
      </trkpt>
      <trkpt lat="47.673060" lon="7.761352">
        <ele>366.635462</ele>
        <time>2021-11-15T21:58:56.164Z</time>
      </trkpt>
      <trkpt lat="47.672781" lon="7.760789">
        <ele>366.033282</ele>
        <time>2021-11-15T21:59:01.805Z</time>
      </trkpt>
      <trkpt lat="47.672453" lon="7.760092">
        <ele>365.300754</ele>
        <time>2021-11-15T21:59:08.686Z</time>
      </trkpt>
      <trkpt lat="47.672494" lon="7.760051">
        <ele>365.237518</ele>
        <time>2021-11-15T21:59:09.558Z</time>
      </trkpt>
      <trkpt lat="47.672299" lon="7.759692">
        <ele>364.840180</ele>
        <time>2021-11-15T21:59:13.142Z</time>
      </trkpt>
      <trkpt lat="47.672155" lon="7.759494">
        <ele>364.604143</ele>
        <time>2021-11-15T21:59:15.471Z</time>
      </trkpt>
      <trkpt lat="47.671960" lon="7.759107">
        <ele>364.240416</ele>
        <time>2021-11-15T21:59:19.296Z</time>
      </trkpt>
      <trkpt lat="47.671899" lon="7.758988">
        <ele>364.127873</ele>
        <time>2021-11-15T21:59:20.502Z</time>
      </trkpt>
      <trkpt lat="47.671675" lon="7.758545">
        <ele>363.710988</ele>
        <time>2021-11-15T21:59:24.952Z</time>
      </trkpt>
      <trkpt lat="47.671575" lon="7.758350">
        <ele>363.526540</ele>
        <time>2021-11-15T21:59:26.799Z</time>
      </trkpt>
      <trkpt lat="47.671392" lon="7.758039">
        <ele>363.215744</ele>
        <time>2021-11-15T21:59:30.254Z</time>
      </trkpt>
      <trkpt lat="47.671326" lon="7.757939">
        <ele>363.110374</ele>
        <time>2021-11-15T21:59:31.371Z</time>
      </trkpt>
      <trkpt lat="47.671160" lon="7.757700">
        <ele>362.851994</ele>
        <time>2021-11-15T21:59:34.413Z</time>
      </trkpt>
      <trkpt lat="47.671008" lon="7.757509">
        <ele>362.714658</ele>
        <time>2021-11-15T21:59:36.776Z</time>
      </trkpt>
      <trkpt lat="47.670604" lon="7.757154">
        <ele>362.843236</ele>
        <time>2021-11-15T21:59:42.916Z</time>
      </trkpt>
      <trkpt lat="47.670581" lon="7.757133">
        <ele>362.850631</ele>
        <time>2021-11-15T21:59:43.262Z</time>
      </trkpt>
      <trkpt lat="47.670478" lon="7.757079">
        <ele>362.880550</ele>
        <time>2021-11-15T21:59:44.538Z</time>
      </trkpt>
      <trkpt lat="47.670315" lon="7.757010">
        <ele>362.926975</ele>
        <time>2021-11-15T21:59:46.955Z</time>
      </trkpt>
      <trkpt lat="47.670093" lon="7.756951">
        <ele>362.988748</ele>
        <time>2021-11-15T21:59:49.979Z</time>
      </trkpt>
      <trkpt lat="47.669887" lon="7.756911">
        <ele>363.045652</ele>
        <time>2021-11-15T21:59:54.153Z</time>
      </trkpt>
      <trkpt lat="47.669650" lon="7.756878">
        <ele>363.110852</ele>
        <time>2021-11-15T21:59:58.473Z</time>
      </trkpt>
      <trkpt lat="47.669568" lon="7.756860">
        <ele>363.133557</ele>
        <time>2021-11-15T22:00:00.659Z</time>
      </trkpt>
      <trkpt lat="47.669091" lon="7.756793">
        <ele>363.710112</ele>
        <time>2021-11-15T22:00:11.123Z</time>
      </trkpt>
      <trkpt lat="47.668741" lon="7.756742">
        <ele>364.384201</ele>
        <time>2021-11-15T22:00:19.503Z</time>
      </trkpt>
      <trkpt lat="47.668389" lon="7.756691">
        <ele>365.062105</ele>
        <time>2021-11-15T22:00:27.847Z</time>
      </trkpt>
      <trkpt lat="47.668204" lon="7.756659">
        <ele>365.419104</ele>
        <time>2021-11-15T22:00:31.475Z</time>
      </trkpt>
      <trkpt lat="47.668037" lon="7.756617">
        <ele>365.743762</ele>
        <time>2021-11-15T22:00:36.174Z</time>
      </trkpt>
      <trkpt lat="47.667940" lon="7.756573">
        <ele>365.938169</ele>
        <time>2021-11-15T22:00:37.871Z</time>
      </trkpt>
      <trkpt lat="47.667535" lon="7.756311">
        <ele>366.753672</ele>
        <time>2021-11-15T22:00:47.998Z</time>
      </trkpt>
      <trkpt lat="47.666965" lon="7.755610">
        <ele>367.870276</ele>
        <time>2021-11-15T22:01:04.359Z</time>
      </trkpt>
      <trkpt lat="47.666145" lon="7.754840">
        <ele>369.334029</ele>
        <time>2021-11-15T22:01:23.621Z</time>
      </trkpt>
      <trkpt lat="47.665699" lon="7.754180">
        <ele>370.060394</ele>
        <time>2021-11-15T22:01:35.583Z</time>
      </trkpt>
      <trkpt lat="47.665367" lon="7.753934">
        <ele>370.485913</ele>
        <time>2021-11-15T22:01:42.498Z</time>
      </trkpt>
      <trkpt lat="47.665007" lon="7.753666">
        <ele>370.947753</ele>
        <time>2021-11-15T22:01:50.513Z</time>
      </trkpt>
      <trkpt lat="47.664195" lon="7.752781">
        <ele>371.634410</ele>
        <time>2021-11-15T22:02:10.489Z</time>
      </trkpt>
      <trkpt lat="47.663829" lon="7.752468">
        <ele>371.789154</ele>
        <time>2021-11-15T22:02:18.162Z</time>
      </trkpt>
      <trkpt lat="47.663554" lon="7.752233">
        <ele>371.905402</ele>
        <time>2021-11-15T22:02:23.028Z</time>
      </trkpt>
      <trkpt lat="47.663254" lon="7.751899">
        <ele>372.042780</ele>
        <time>2021-11-15T22:02:27.763Z</time>
      </trkpt>
      <trkpt lat="47.663102" lon="7.751640">
        <ele>372.010683</ele>
        <time>2021-11-15T22:02:30.688Z</time>
      </trkpt>
      <trkpt lat="47.662888" lon="7.751132">
        <ele>371.839111</ele>
        <time>2021-11-15T22:02:35.270Z</time>
      </trkpt>
      <trkpt lat="47.662856" lon="7.751055">
        <ele>371.813203</ele>
        <time>2021-11-15T22:02:36.087Z</time>
      </trkpt>
      <trkpt lat="47.662784" lon="7.750886">
        <ele>371.755942</ele>
        <time>2021-11-15T22:02:38.230Z</time>
      </trkpt>
      <trkpt lat="47.662642" lon="7.750494">
        <ele>371.628490</ele>
        <time>2021-11-15T22:02:42.294Z</time>
      </trkpt>
      <trkpt lat="47.662582" lon="7.750324">
        <ele>371.573532</ele>
        <time>2021-11-15T22:02:44.009Z</time>
      </trkpt>
      <trkpt lat="47.662508" lon="7.750137">
        <ele>371.511427</ele>
        <time>2021-11-15T22:02:45.824Z</time>
      </trkpt>
      <trkpt lat="47.662324" lon="7.749780">
        <ele>371.382704</ele>
        <time>2021-11-15T22:02:50.199Z</time>
      </trkpt>
      <trkpt lat="47.662148" lon="7.749579">
        <ele>371.346923</ele>
        <time>2021-11-15T22:02:54.504Z</time>
      </trkpt>
      <trkpt lat="47.662063" lon="7.749497">
        <ele>371.427406</ele>
        <time>2021-11-15T22:02:55.601Z</time>
      </trkpt>
      <trkpt lat="47.661944" lon="7.749391">
        <ele>371.537588</ele>
        <time>2021-11-15T22:02:58.268Z</time>
      </trkpt>
      <trkpt lat="47.661864" lon="7.749324">
        <ele>371.610514</ele>
        <time>2021-11-15T22:03:00.193Z</time>
      </trkpt>
      <trkpt lat="47.661594" lon="7.749074">
        <ele>371.863158</ele>
        <time>2021-11-15T22:03:05.290Z</time>
      </trkpt>
      <trkpt lat="47.661281" lon="7.748687">
        <ele>372.186559</ele>
        <time>2021-11-15T22:03:13.184Z</time>
      </trkpt>
      <trkpt lat="47.660305" lon="7.747482">
        <ele>372.339948</ele>
        <time>2021-11-15T22:03:38.098Z</time>
      </trkpt>
      <trkpt lat="47.658989" lon="7.745708">
        <ele>370.696889</ele>
        <time>2021-11-15T22:03:58.264Z</time>
      </trkpt>
      <trkpt lat="47.658680" lon="7.745390">
        <ele>370.154247</ele>
        <time>2021-11-15T22:04:02.462Z</time>
      </trkpt>
      <trkpt lat="47.658453" lon="7.745199">
        <ele>369.777663</ele>
        <time>2021-11-15T22:04:05.331Z</time>
      </trkpt>
      <trkpt lat="47.658398" lon="7.745154">
        <ele>369.687026</ele>
        <time>2021-11-15T22:04:06.289Z</time>
      </trkpt>
      <trkpt lat="47.657754" lon="7.744781">
        <ele>368.854843</ele>
        <time>2021-11-15T22:04:14.498Z</time>
      </trkpt>
      <trkpt lat="47.657357" lon="7.744551">
        <ele>368.718079</ele>
        <time>2021-11-15T22:04:20.271Z</time>
      </trkpt>
      <trkpt lat="47.656781" lon="7.744132">
        <ele>368.512229</ele>
        <time>2021-11-15T22:04:30.061Z</time>
      </trkpt>
      <trkpt lat="47.656638" lon="7.744059">
        <ele>368.463699</ele>
        <time>2021-11-15T22:04:32.187Z</time>
      </trkpt>
      <trkpt lat="47.656592" lon="7.744040">
        <ele>368.448376</ele>
        <time>2021-11-15T22:04:32.956Z</time>
      </trkpt>
      <trkpt lat="47.656316" lon="7.743916">
        <ele>368.355833</ele>
        <time>2021-11-15T22:04:37.202Z</time>
      </trkpt>
      <trkpt lat="47.656129" lon="7.743833">
        <ele>368.253534</ele>
        <time>2021-11-15T22:04:40.214Z</time>
      </trkpt>
      <trkpt lat="47.654324" lon="7.743075">
        <ele>366.806261</ele>
        <time>2021-11-15T22:05:03.814Z</time>
      </trkpt>
      <trkpt lat="47.653639" lon="7.742914">
        <ele>365.938751</ele>
        <time>2021-11-15T22:05:11.798Z</time>
      </trkpt>
      <trkpt lat="47.653011" lon="7.743041">
        <ele>365.145958</ele>
        <time>2021-11-15T22:05:19.221Z</time>
      </trkpt>
      <trkpt lat="47.652352" lon="7.743329">
        <ele>364.076131</ele>
        <time>2021-11-15T22:05:27.490Z</time>
      </trkpt>
      <trkpt lat="47.651664" lon="7.743365">
        <ele>362.845034</ele>
        <time>2021-11-15T22:05:35.879Z</time>
      </trkpt>
      <trkpt lat="47.650941" lon="7.743251">
        <ele>361.511061</ele>
        <time>2021-11-15T22:05:43.786Z</time>
      </trkpt>
      <trkpt lat="47.650238" lon="7.743181">
        <ele>357.484878</ele>
        <time>2021-11-15T22:05:50.620Z</time>
      </trkpt>
      <trkpt lat="47.649349" lon="7.742957">
        <ele>352.332198</ele>
        <time>2021-11-15T22:05:58.747Z</time>
      </trkpt>
      <trkpt lat="47.648726" lon="7.742773">
        <ele>348.057111</ele>
        <time>2021-11-15T22:06:04.347Z</time>
      </trkpt>
      <trkpt lat="47.648686" lon="7.742761">
        <ele>347.765588</ele>
        <time>2021-11-15T22:06:04.704Z</time>
      </trkpt>
      <trkpt lat="47.648430" lon="7.742708">
        <ele>345.919118</ele>
        <time>2021-11-15T22:06:06.975Z</time>
      </trkpt>
      <trkpt lat="47.647923" lon="7.742761">
        <ele>342.288327</ele>
        <time>2021-11-15T22:06:11.486Z</time>
      </trkpt>
      <trkpt lat="47.647668" lon="7.742782">
        <ele>340.463900</ele>
        <time>2021-11-15T22:06:13.779Z</time>
      </trkpt>
      <trkpt lat="47.647263" lon="7.742628">
        <ele>338.024543</ele>
        <time>2021-11-15T22:06:17.645Z</time>
      </trkpt>
      <trkpt lat="47.647031" lon="7.742584">
        <ele>337.310066</ele>
        <time>2021-11-15T22:06:19.934Z</time>
      </trkpt>
      <trkpt lat="47.646932" lon="7.742608">
        <ele>337.003633</ele>
        <time>2021-11-15T22:06:20.879Z</time>
      </trkpt>
      <trkpt lat="47.646840" lon="7.742630">
        <ele>336.718967</ele>
        <time>2021-11-15T22:06:21.847Z</time>
      </trkpt>
      <trkpt lat="47.646642" lon="7.742762">
        <ele>336.055910</ele>
        <time>2021-11-15T22:06:24.071Z</time>
      </trkpt>
      <trkpt lat="47.646406" lon="7.742933">
        <ele>335.253665</ele>
        <time>2021-11-15T22:06:26.854Z</time>
      </trkpt>
      <trkpt lat="47.646017" lon="7.743245">
        <ele>333.902958</ele>
        <time>2021-11-15T22:06:31.679Z</time>
      </trkpt>
      <trkpt lat="47.645911" lon="7.743330">
        <ele>333.534916</ele>
        <time>2021-11-15T22:06:32.998Z</time>
      </trkpt>
      <trkpt lat="47.645734" lon="7.743440">
        <ele>332.948734</ele>
        <time>2021-11-15T22:06:35.337Z</time>
      </trkpt>
      <trkpt lat="47.645188" lon="7.743513">
        <ele>332.356368</ele>
        <time>2021-11-15T22:06:41.850Z</time>
      </trkpt>
      <trkpt lat="47.645131" lon="7.743484">
        <ele>332.291963</ele>
        <time>2021-11-15T22:06:42.582Z</time>
      </trkpt>
      <trkpt lat="47.645054" lon="7.743433">
        <ele>332.201839</ele>
        <time>2021-11-15T22:06:43.605Z</time>
      </trkpt>
      <trkpt lat="47.644925" lon="7.743203">
        <ele>331.986332</ele>
        <time>2021-11-15T22:06:46.070Z</time>
      </trkpt>
      <trkpt lat="47.644734" lon="7.742487">
        <ele>331.431784</ele>
        <time>2021-11-15T22:06:52.473Z</time>
      </trkpt>
      <trkpt lat="47.644669" lon="7.742280">
        <ele>331.267324</ele>
        <time>2021-11-15T22:06:54.378Z</time>
      </trkpt>
      <trkpt lat="47.644599" lon="7.742155">
        <ele>331.150274</ele>
        <time>2021-11-15T22:06:55.732Z</time>
      </trkpt>
      <trkpt lat="47.644397" lon="7.741849">
        <ele>330.936841</ele>
        <time>2021-11-15T22:06:59.363Z</time>
      </trkpt>
      <trkpt lat="47.644276" lon="7.741683">
        <ele>330.856612</ele>
        <time>2021-11-15T22:07:01.458Z</time>
      </trkpt>
      <trkpt lat="47.644182" lon="7.741417">
        <ele>330.758076</ele>
        <time>2021-11-15T22:07:04.027Z</time>
      </trkpt>
      <trkpt lat="47.644157" lon="7.741340">
        <ele>330.730036</ele>
        <time>2021-11-15T22:07:04.769Z</time>
      </trkpt>
      <trkpt lat="47.644056" lon="7.741009">
        <ele>330.610834</ele>
        <time>2021-11-15T22:07:08.075Z</time>
      </trkpt>
      <trkpt lat="47.644034" lon="7.740945">
        <ele>330.587263</ele>
        <time>2021-11-15T22:07:08.720Z</time>
      </trkpt>
      <trkpt lat="47.643938" lon="7.740664">
        <ele>330.483907</ele>
        <time>2021-11-15T22:07:11.612Z</time>
      </trkpt>
      <trkpt lat="47.643881" lon="7.740570">
        <ele>330.442419</ele>
        <time>2021-11-15T22:07:12.757Z</time>
      </trkpt>
      <trkpt lat="47.643783" lon="7.740468">
        <ele>330.384139</ele>
        <time>2021-11-15T22:07:14.327Z</time>
      </trkpt>
      <trkpt lat="47.643656" lon="7.740319">
        <ele>330.305315</ele>
        <time>2021-11-15T22:07:16.616Z</time>
      </trkpt>
      <trkpt lat="47.643591" lon="7.740215">
        <ele>330.258778</ele>
        <time>2021-11-15T22:07:17.954Z</time>
      </trkpt>
      <trkpt lat="47.643475" lon="7.739785">
        <ele>330.110213</ele>
        <time>2021-11-15T22:07:22.312Z</time>
      </trkpt>
      <trkpt lat="47.643539" lon="7.739705">
        <ele>330.073556</ele>
        <time>2021-11-15T22:07:23.475Z</time>
      </trkpt>
      <trkpt lat="47.643618" lon="7.739581">
        <ele>330.023184</ele>
        <time>2021-11-15T22:07:25.051Z</time>
      </trkpt>
      <trkpt lat="47.643638" lon="7.739481">
        <ele>329.992395</ele>
        <time>2021-11-15T22:07:26.122Z</time>
      </trkpt>
      <trkpt lat="47.643623" lon="7.739386">
        <ele>329.963594</ele>
        <time>2021-11-15T22:07:27.124Z</time>
      </trkpt>
      <trkpt lat="47.643599" lon="7.739305">
        <ele>329.937476</ele>
        <time>2021-11-15T22:07:27.938Z</time>
      </trkpt>
      <trkpt lat="47.643579" lon="7.739273">
        <ele>329.924593</ele>
        <time>2021-11-15T22:07:28.336Z</time>
      </trkpt>
      <trkpt lat="47.643448" lon="7.739145">
        <ele>329.855883</ele>
        <time>2021-11-15T22:07:30.434Z</time>
      </trkpt>
      <trkpt lat="47.643361" lon="7.739082">
        <ele>329.813475</ele>
        <time>2021-11-15T22:07:31.873Z</time>
      </trkpt>
      <trkpt lat="47.643127" lon="7.738912">
        <ele>329.699339</ele>
        <time>2021-11-15T22:07:35.231Z</time>
      </trkpt>
      <trkpt lat="47.642672" lon="7.738698">
        <ele>329.490237</ele>
        <time>2021-11-15T22:07:41.638Z</time>
      </trkpt>
      <trkpt lat="47.642315" lon="7.738532">
        <ele>329.310087</ele>
        <time>2021-11-15T22:07:46.511Z</time>
      </trkpt>
      <trkpt lat="47.642140" lon="7.738440">
        <ele>329.178451</ele>
        <time>2021-11-15T22:07:48.868Z</time>
      </trkpt>
      <trkpt lat="47.641927" lon="7.738094">
        <ele>328.954552</ele>
        <time>2021-11-15T22:07:52.873Z</time>
      </trkpt>
      <trkpt lat="47.641898" lon="7.737895">
        <ele>328.857287</ele>
        <time>2021-11-15T22:07:54.541Z</time>
      </trkpt>
      <trkpt lat="47.641923" lon="7.737088">
        <ele>328.471355</ele>
        <time>2021-11-15T22:08:01.512Z</time>
      </trkpt>
      <trkpt lat="47.641903" lon="7.736757">
        <ele>328.312594</ele>
        <time>2021-11-15T22:08:04.315Z</time>
      </trkpt>
      <trkpt lat="47.641790" lon="7.736333">
        <ele>328.094767</ele>
        <time>2021-11-15T22:08:08.204Z</time>
      </trkpt>
      <trkpt lat="47.641704" lon="7.736074">
        <ele>327.978346</ele>
        <time>2021-11-15T22:08:10.786Z</time>
      </trkpt>
      <trkpt lat="47.641622" lon="7.735797">
        <ele>327.859623</ele>
        <time>2021-11-15T22:08:13.368Z</time>
      </trkpt>
      <trkpt lat="47.641567" lon="7.735539">
        <ele>327.753437</ele>
        <time>2021-11-15T22:08:15.790Z</time>
      </trkpt>
      <trkpt lat="47.641599" lon="7.734994">
        <ele>327.538768</ele>
        <time>2021-11-15T22:08:20.645Z</time>
      </trkpt>
      <trkpt lat="47.641789" lon="7.734288">
        <ele>327.240452</ele>
        <time>2021-11-15T22:08:27.355Z</time>
      </trkpt>
      <trkpt lat="47.641896" lon="7.733974">
        <ele>327.102376</ele>
        <time>2021-11-15T22:08:30.438Z</time>
      </trkpt>
      <trkpt lat="47.642073" lon="7.733685">
        <ele>326.927381</ele>
        <time>2021-11-15T22:08:33.938Z</time>
      </trkpt>
      <trkpt lat="47.642195" lon="7.733475">
        <ele>326.789246</ele>
        <time>2021-11-15T22:08:36.420Z</time>
      </trkpt>
      <trkpt lat="47.642261" lon="7.733306">
        <ele>326.691936</ele>
        <time>2021-11-15T22:08:38.140Z</time>
      </trkpt>
      <trkpt lat="47.642344" lon="7.733092">
        <ele>326.568927</ele>
        <time>2021-11-15T22:08:40.271Z</time>
      </trkpt>
      <trkpt lat="47.642408" lon="7.732927">
        <ele>326.474081</ele>
        <time>2021-11-15T22:08:41.930Z</time>
      </trkpt>
      <trkpt lat="47.642435" lon="7.732816">
        <ele>326.415292</ele>
        <time>2021-11-15T22:08:42.940Z</time>
      </trkpt>
      <trkpt lat="47.642652" lon="7.731911">
        <ele>325.936756</ele>
        <time>2021-11-15T22:08:51.082Z</time>
      </trkpt>
      <trkpt lat="47.642752" lon="7.731418">
        <ele>325.677512</ele>
        <time>2021-11-15T22:08:55.401Z</time>
      </trkpt>
      <trkpt lat="47.642777" lon="7.731298">
        <ele>325.606131</ele>
        <time>2021-11-15T22:08:56.458Z</time>
      </trkpt>
      <trkpt lat="47.642812" lon="7.731060">
        <ele>325.467694</ele>
        <time>2021-11-15T22:08:58.501Z</time>
      </trkpt>
      <trkpt lat="47.642863" lon="7.730665">
        <ele>325.239134</ele>
        <time>2021-11-15T22:09:01.762Z</time>
      </trkpt>
      <trkpt lat="47.642944" lon="7.730005">
        <ele>324.857892</ele>
        <time>2021-11-15T22:09:07.414Z</time>
      </trkpt>
      <trkpt lat="47.643034" lon="7.729585">
        <ele>324.607430</ele>
        <time>2021-11-15T22:09:11.071Z</time>
      </trkpt>
      <trkpt lat="47.643209" lon="7.728752">
        <ele>324.134340</ele>
        <time>2021-11-15T22:09:18.625Z</time>
      </trkpt>
      <trkpt lat="47.643226" lon="7.728673">
        <ele>324.102279</ele>
        <time>2021-11-15T22:09:19.253Z</time>
      </trkpt>
      <trkpt lat="47.643271" lon="7.728166">
        <ele>323.904586</ele>
        <time>2021-11-15T22:09:23.825Z</time>
      </trkpt>
      <trkpt lat="47.643223" lon="7.727611">
        <ele>323.688270</ele>
        <time>2021-11-15T22:09:28.713Z</time>
      </trkpt>
      <trkpt lat="47.643078" lon="7.727124">
        <ele>323.482437</ele>
        <time>2021-11-15T22:09:33.480Z</time>
      </trkpt>
      <trkpt lat="47.642780" lon="7.726673">
        <ele>323.238232</ele>
        <time>2021-11-15T22:09:39.069Z</time>
      </trkpt>
      <trkpt lat="47.642747" lon="7.726635">
        <ele>323.214267</ele>
        <time>2021-11-15T22:09:39.758Z</time>
      </trkpt>
      <trkpt lat="47.642298" lon="7.726232">
        <ele>322.890007</ele>
        <time>2021-11-15T22:09:46.694Z</time>
      </trkpt>
      <trkpt lat="47.642075" lon="7.725935">
        <ele>322.701310</ele>
        <time>2021-11-15T22:09:50.702Z</time>
      </trkpt>
      <trkpt lat="47.641806" lon="7.725383">
        <ele>322.412235</ele>
        <time>2021-11-15T22:09:56.673Z</time>
      </trkpt>
      <trkpt lat="47.641621" lon="7.724812">
        <ele>322.143385</ele>
        <time>2021-11-15T22:10:02.234Z</time>
      </trkpt>
      <trkpt lat="47.641338" lon="7.723656">
        <ele>321.201543</ele>
        <time>2021-11-15T22:10:12.190Z</time>
      </trkpt>
      <trkpt lat="47.641072" lon="7.722626">
        <ele>320.237736</ele>
        <time>2021-11-15T22:10:20.800Z</time>
      </trkpt>
      <trkpt lat="47.640984" lon="7.722331">
        <ele>319.955847</ele>
        <time>2021-11-15T22:10:23.287Z</time>
      </trkpt>
      <trkpt lat="47.640966" lon="7.722267">
        <ele>319.895250</ele>
        <time>2021-11-15T22:10:23.817Z</time>
      </trkpt>
      <trkpt lat="47.640786" lon="7.721766">
        <ele>319.449723</ele>
        <time>2021-11-15T22:10:28.259Z</time>
      </trkpt>
      <trkpt lat="47.640553" lon="7.721064">
        <ele>318.886723</ele>
        <time>2021-11-15T22:10:34.522Z</time>
      </trkpt>
      <trkpt lat="47.640459" lon="7.720721">
        <ele>318.620322</ele>
        <time>2021-11-15T22:10:37.499Z</time>
      </trkpt>
      <trkpt lat="47.640301" lon="7.720147">
        <ele>318.174229</ele>
        <time>2021-11-15T22:10:42.481Z</time>
      </trkpt>
      <trkpt lat="47.640077" lon="7.719090">
        <ele>317.591529</ele>
        <time>2021-11-15T22:10:52.228Z</time>
      </trkpt>
      <trkpt lat="47.640089" lon="7.717983">
        <ele>317.235417</ele>
        <time>2021-11-15T22:11:02.609Z</time>
      </trkpt>
      <trkpt lat="47.640337" lon="7.716172">
        <ele>316.544465</ele>
        <time>2021-11-15T22:11:19.105Z</time>
      </trkpt>
      <trkpt lat="47.640377" lon="7.714779">
        <ele>315.932827</ele>
        <time>2021-11-15T22:11:31.089Z</time>
      </trkpt>
      <trkpt lat="47.640426" lon="7.714418">
        <ele>315.771282</ele>
        <time>2021-11-15T22:11:48.346Z</time>
      </trkpt>
      <trkpt lat="47.640852" lon="7.712341">
        <ele>314.563449</ele>
        <time>2021-11-15T22:13:30.012Z</time>
      </trkpt>
      <trkpt lat="47.640881" lon="7.712240">
        <ele>314.501864</ele>
        <time>2021-11-15T22:13:35.151Z</time>
      </trkpt>
      <trkpt lat="47.641144" lon="7.712131">
        <ele>314.274530</ele>
        <time>2021-11-15T22:13:54.130Z</time>
      </trkpt>
      <trkpt lat="47.641635" lon="7.711815">
        <ele>313.821780</ele>
        <time>2021-11-15T22:14:31.368Z</time>
      </trkpt>
      <trkpt lat="47.641900" lon="7.711551">
        <ele>313.551389</ele>
        <time>2021-11-15T22:14:53.541Z</time>
      </trkpt>
      <trkpt lat="47.642146" lon="7.711201">
        <ele>313.262690</ele>
        <time>2021-11-15T22:15:17.189Z</time>
      </trkpt>
      <trkpt lat="47.642355" lon="7.710752">
        <ele>312.951183</ele>
        <time>2021-11-15T22:15:42.776Z</time>
      </trkpt>
      <trkpt lat="47.642530" lon="7.710206">
        <ele>312.648213</ele>
        <time>2021-11-15T22:16:11.071Z</time>
      </trkpt>
      <trkpt lat="47.642648" lon="7.709631">
        <ele>312.439050</ele>
        <time>2021-11-15T22:16:39.197Z</time>
      </trkpt>
      <trkpt lat="47.642720" lon="7.708963">
        <ele>312.203646</ele>
        <time>2021-11-15T22:17:10.880Z</time>
      </trkpt>
      <trkpt lat="47.642714" lon="7.708657">
        <ele>312.097120</ele>
        <time>2021-11-15T22:17:25.214Z</time>
      </trkpt>
      <trkpt lat="47.642704" lon="7.708162">
        <ele>311.924794</ele>
        <time>2021-11-15T22:17:48.408Z</time>
      </trkpt>
      <trkpt lat="47.642495" lon="7.706705">
        <ele>311.466479</ele>
        <time>2021-11-15T22:18:58.144Z</time>
      </trkpt>
      <trkpt lat="47.642217" lon="7.705535">
        <ele>311.103232</ele>
        <time>2021-11-15T22:19:56.234Z</time>
      </trkpt>
      <trkpt lat="47.642201" lon="7.705403">
        <ele>311.063963</ele>
        <time>2021-11-15T22:20:02.526Z</time>
      </trkpt>
      <trkpt lat="47.642140" lon="7.704896">
        <ele>310.914846</ele>
        <time>2021-11-15T22:20:26.641Z</time>
      </trkpt>
      <trkpt lat="47.642140" lon="7.704896">
        <ele>310.914846</ele>
        <time>2021-11-15T22:20:26.648Z</time>
      </trkpt>
      <trkpt lat="47.642168" lon="7.704257">
        <ele>310.730841</ele>
        <time>2021-11-15T22:20:32.369Z</time>
      </trkpt>
      <trkpt lat="47.642231" lon="7.703875">
        <ele>310.617833</ele>
        <time>2021-11-15T22:20:35.893Z</time>
      </trkpt>
      <trkpt lat="47.642493" lon="7.702850">
        <ele>310.302816</ele>
        <time>2021-11-15T22:20:45.837Z</time>
      </trkpt>
      <trkpt lat="47.642695" lon="7.702295">
        <ele>310.247317</ele>
        <time>2021-11-15T22:20:51.627Z</time>
      </trkpt>
      <trkpt lat="47.642742" lon="7.702215">
        <ele>310.250230</ele>
        <time>2021-11-15T22:20:52.676Z</time>
      </trkpt>
      <trkpt lat="47.642870" lon="7.701997">
        <ele>310.258166</ele>
        <time>2021-11-15T22:20:55.456Z</time>
      </trkpt>
      <trkpt lat="47.642878" lon="7.701983">
        <ele>310.258670</ele>
        <time>2021-11-15T22:20:55.632Z</time>
      </trkpt>
      <trkpt lat="47.642924" lon="7.701899">
        <ele>310.261641</ele>
        <time>2021-11-15T22:20:56.708Z</time>
      </trkpt>
      <trkpt lat="47.643468" lon="7.701190">
        <ele>310.291133</ele>
        <time>2021-11-15T22:21:07.766Z</time>
      </trkpt>
      <trkpt lat="47.643665" lon="7.700847">
        <ele>310.303503</ele>
        <time>2021-11-15T22:21:12.659Z</time>
      </trkpt>
      <trkpt lat="47.643895" lon="7.700099">
        <ele>310.455899</ele>
        <time>2021-11-15T22:21:21.746Z</time>
      </trkpt>
      <trkpt lat="47.643937" lon="7.699377">
        <ele>310.632788</ele>
        <time>2021-11-15T22:21:29.644Z</time>
      </trkpt>
      <trkpt lat="47.643926" lon="7.698996">
        <ele>310.725872</ele>
        <time>2021-11-15T22:21:33.713Z</time>
      </trkpt>
      <trkpt lat="47.643899" lon="7.698592">
        <ele>310.824969</ele>
        <time>2021-11-15T22:21:38.096Z</time>
      </trkpt>
      <trkpt lat="47.643975" lon="7.697534">
        <ele>310.993379</ele>
        <time>2021-11-15T22:21:50.087Z</time>
      </trkpt>
      <trkpt lat="47.643987" lon="7.697129">
        <ele>311.019129</ele>
        <time>2021-11-15T22:21:54.539Z</time>
      </trkpt>
      <trkpt lat="47.643978" lon="7.696873">
        <ele>311.035412</ele>
        <time>2021-11-15T22:21:57.645Z</time>
      </trkpt>
      <trkpt lat="47.643930" lon="7.696619">
        <ele>311.052168</ele>
        <time>2021-11-15T22:22:00.373Z</time>
      </trkpt>
      <trkpt lat="47.643898" lon="7.696505">
        <ele>311.060013</ele>
        <time>2021-11-15T22:22:01.859Z</time>
      </trkpt>
      <trkpt lat="47.643608" lon="7.695441">
        <ele>311.106984</ele>
        <time>2021-11-15T22:22:12.710Z</time>
      </trkpt>
      <trkpt lat="47.643574" lon="7.695337">
        <ele>311.022881</ele>
        <time>2021-11-15T22:22:13.735Z</time>
      </trkpt>
      <trkpt lat="47.643504" lon="7.695125">
        <ele>310.851113</ele>
        <time>2021-11-15T22:22:15.751Z</time>
      </trkpt>
      <trkpt lat="47.643275" lon="7.694648">
        <ele>310.424978</ele>
        <time>2021-11-15T22:22:20.547Z</time>
      </trkpt>
      <trkpt lat="47.643174" lon="7.694479">
        <ele>310.260619</ele>
        <time>2021-11-15T22:22:22.452Z</time>
      </trkpt>
      <trkpt lat="47.643091" lon="7.694325">
        <ele>310.117136</ele>
        <time>2021-11-15T22:22:24.042Z</time>
      </trkpt>
      <trkpt lat="47.642923" lon="7.693980">
        <ele>309.807431</ele>
        <time>2021-11-15T22:22:27.452Z</time>
      </trkpt>
      <trkpt lat="47.642795" lon="7.694159">
        <ele>309.617520</ele>
        <time>2021-11-15T22:22:29.416Z</time>
      </trkpt>
      <trkpt lat="47.642408" lon="7.694445">
        <ele>309.161465</ele>
        <time>2021-11-15T22:22:34.450Z</time>
      </trkpt>
      <trkpt lat="47.642142" lon="7.694611">
        <ele>308.938684</ele>
        <time>2021-11-15T22:22:37.724Z</time>
      </trkpt>
      <trkpt lat="47.642058" lon="7.694662">
        <ele>308.868615</ele>
        <time>2021-11-15T22:22:38.846Z</time>
      </trkpt>
      <trkpt lat="47.642005" lon="7.694694">
        <ele>308.824440</ele>
        <time>2021-11-15T22:22:39.510Z</time>
      </trkpt>
      <trkpt lat="47.641927" lon="7.694746">
        <ele>308.758423</ele>
        <time>2021-11-15T22:22:40.507Z</time>
      </trkpt>
      <trkpt lat="47.641609" lon="7.694939">
        <ele>308.493176</ele>
        <time>2021-11-15T22:22:44.617Z</time>
      </trkpt>
      <trkpt lat="47.641527" lon="7.694989">
        <ele>308.424733</ele>
        <time>2021-11-15T22:22:45.629Z</time>
      </trkpt>
      <trkpt lat="47.641385" lon="7.695039">
        <ele>308.312058</ele>
        <time>2021-11-15T22:22:47.563Z</time>
      </trkpt>
      <trkpt lat="47.641256" lon="7.695065">
        <ele>308.211549</ele>
        <time>2021-11-15T22:22:49.274Z</time>
      </trkpt>
      <trkpt lat="47.640982" lon="7.695057">
        <ele>307.999965</ele>
        <time>2021-11-15T22:22:53.156Z</time>
      </trkpt>
      <trkpt lat="47.640444" lon="7.695011">
        <ele>307.881427</ele>
        <time>2021-11-15T22:23:01.530Z</time>
      </trkpt>
      <trkpt lat="47.640267" lon="7.695017">
        <ele>307.933034</ele>
        <time>2021-11-15T22:23:04.639Z</time>
      </trkpt>
      <trkpt lat="47.639986" lon="7.695026">
        <ele>308.014961</ele>
        <time>2021-11-15T22:23:09.284Z</time>
      </trkpt>
      <trkpt lat="47.639972" lon="7.695026">
        <ele>308.019042</ele>
        <time>2021-11-15T22:23:09.574Z</time>
      </trkpt>
      <trkpt lat="47.639897" lon="7.695031">
        <ele>308.040926</ele>
        <time>2021-11-15T22:23:10.813Z</time>
      </trkpt>
      <trkpt lat="47.639833" lon="7.695037">
        <ele>308.059618</ele>
        <time>2021-11-15T22:23:11.841Z</time>
      </trkpt>
      <trkpt lat="47.639796" lon="7.695040">
        <ele>308.070419</ele>
        <time>2021-11-15T22:23:12.426Z</time>
      </trkpt>
      <trkpt lat="47.639745" lon="7.695043">
        <ele>308.085297</ele>
        <time>2021-11-15T22:23:13.250Z</time>
      </trkpt>
      <trkpt lat="47.639478" lon="7.695062">
        <ele>308.163214</ele>
        <time>2021-11-15T22:23:17.622Z</time>
      </trkpt>
      <trkpt lat="47.639240" lon="7.695052">
        <ele>308.232616</ele>
        <time>2021-11-15T22:23:21.412Z</time>
      </trkpt>
      <trkpt lat="47.639193" lon="7.695045">
        <ele>308.246384</ele>
        <time>2021-11-15T22:23:22.163Z</time>
      </trkpt>
      <trkpt lat="47.639024" lon="7.695016">
        <ele>308.295974</ele>
        <time>2021-11-15T22:23:24.769Z</time>
      </trkpt>
      <trkpt lat="47.638778" lon="7.694959">
        <ele>308.416182</ele>
        <time>2021-11-15T22:23:28.701Z</time>
      </trkpt>
      <trkpt lat="47.638565" lon="7.694903">
        <ele>308.546913</ele>
        <time>2021-11-15T22:23:31.972Z</time>
      </trkpt>
      <trkpt lat="47.638359" lon="7.694849">
        <ele>308.673335</ele>
        <time>2021-11-15T22:23:35.513Z</time>
      </trkpt>
      <trkpt lat="47.638336" lon="7.694843">
        <ele>308.687449</ele>
        <time>2021-11-15T22:23:35.883Z</time>
      </trkpt>
      <trkpt lat="47.638108" lon="7.694783">
        <ele>308.827389</ele>
        <time>2021-11-15T22:23:39.782Z</time>
      </trkpt>
      <trkpt lat="47.637884" lon="7.694724">
        <ele>308.964879</ele>
        <time>2021-11-15T22:23:43.612Z</time>
      </trkpt>
      <trkpt lat="47.637761" lon="7.694689">
        <ele>309.040568</ele>
        <time>2021-11-15T22:23:45.922Z</time>
      </trkpt>
      <trkpt lat="47.637648" lon="7.694652">
        <ele>309.110501</ele>
        <time>2021-11-15T22:23:47.999Z</time>
      </trkpt>
      <trkpt lat="47.637504" lon="7.694589">
        <ele>309.201230</ele>
        <time>2021-11-15T22:23:50.646Z</time>
      </trkpt>
      <trkpt lat="47.637408" lon="7.694555">
        <ele>309.260877</ele>
        <time>2021-11-15T22:23:52.488Z</time>
      </trkpt>
      <trkpt lat="47.637356" lon="7.694533">
        <ele>309.293555</ele>
        <time>2021-11-15T22:23:53.487Z</time>
      </trkpt>
      <trkpt lat="47.637176" lon="7.694468">
        <ele>309.405512</ele>
        <time>2021-11-15T22:23:56.770Z</time>
      </trkpt>
      <trkpt lat="47.636627" lon="7.694220">
        <ele>310.020011</ele>
        <time>2021-11-15T22:24:08.029Z</time>
      </trkpt>
      <trkpt lat="47.636107" lon="7.693985">
        <ele>310.606282</ele>
        <time>2021-11-15T22:24:19.282Z</time>
      </trkpt>
      <trkpt lat="47.635549" lon="7.693752">
        <ele>311.231479</ele>
        <time>2021-11-15T22:24:30.273Z</time>
      </trkpt>
      <trkpt lat="47.635429" lon="7.693811">
        <ele>311.356240</ele>
        <time>2021-11-15T22:24:32.897Z</time>
      </trkpt>
      <trkpt lat="47.635319" lon="7.693560">
        <ele>311.423205</ele>
        <time>2021-11-15T22:24:35.979Z</time>
      </trkpt>
      <trkpt lat="47.635263" lon="7.693458">
        <ele>311.452631</ele>
        <time>2021-11-15T22:24:37.526Z</time>
      </trkpt>
      <trkpt lat="47.635194" lon="7.693332">
        <ele>311.488943</ele>
        <time>2021-11-15T22:24:39.472Z</time>
      </trkpt>
      <trkpt lat="47.635074" lon="7.693170">
        <ele>311.542786</ele>
        <time>2021-11-15T22:24:41.709Z</time>
      </trkpt>
      <trkpt lat="47.634913" lon="7.692997">
        <ele>311.608760</ele>
        <time>2021-11-15T22:24:44.889Z</time>
      </trkpt>
      <trkpt lat="47.634764" lon="7.692840">
        <ele>311.669411</ele>
        <time>2021-11-15T22:24:47.359Z</time>
      </trkpt>
      <trkpt lat="47.634614" lon="7.692696">
        <ele>311.728706</ele>
        <time>2021-11-15T22:24:50.229Z</time>
      </trkpt>
      <trkpt lat="47.634464" lon="7.692573">
        <ele>311.785586</ele>
        <time>2021-11-15T22:24:52.541Z</time>
      </trkpt>
      <trkpt lat="47.634405" lon="7.692546">
        <ele>311.806078</ele>
        <time>2021-11-15T22:24:53.641Z</time>
      </trkpt>
      <trkpt lat="47.634345" lon="7.692519">
        <ele>311.826888</ele>
        <time>2021-11-15T22:24:54.785Z</time>
      </trkpt>
      <trkpt lat="47.634216" lon="7.692469">
        <ele>311.871140</ele>
        <time>2021-11-15T22:24:56.621Z</time>
      </trkpt>
      <trkpt lat="47.633633" lon="7.692190">
        <ele>312.816182</ele>
        <time>2021-11-15T22:25:06.910Z</time>
      </trkpt>
      <trkpt lat="47.633588" lon="7.692141">
        <ele>312.943428</ele>
        <time>2021-11-15T22:25:07.736Z</time>
      </trkpt>
      <trkpt lat="47.633399" lon="7.692413">
        <ele>313.543653</ele>
        <time>2021-11-15T22:25:13.660Z</time>
      </trkpt>
      <trkpt lat="47.633266" lon="7.692577">
        <ele>313.937881</ele>
        <time>2021-11-15T22:25:17.029Z</time>
      </trkpt>
      <trkpt lat="47.633202" lon="7.692660">
        <ele>314.131654</ele>
        <time>2021-11-15T22:25:19.212Z</time>
      </trkpt>
      <trkpt lat="47.633173" lon="7.692695">
        <ele>314.216872</ele>
        <time>2021-11-15T22:25:20.296Z</time>
      </trkpt>
      <trkpt lat="47.633091" lon="7.692798">
        <ele>314.461794</ele>
        <time>2021-11-15T22:25:22.406Z</time>
      </trkpt>
      <trkpt lat="47.632822" lon="7.693157">
        <ele>315.286581</ele>
        <time>2021-11-15T22:25:31.489Z</time>
      </trkpt>
      <trkpt lat="47.632763" lon="7.693227">
        <ele>315.458794</ele>
        <time>2021-11-15T22:25:33.370Z</time>
      </trkpt>
      <trkpt lat="47.632642" lon="7.693416">
        <ele>315.859299</ele>
        <time>2021-11-15T22:25:39.291Z</time>
      </trkpt>
      <trkpt lat="47.632526" lon="7.693622">
        <ele>316.479984</ele>
        <time>2021-11-15T22:25:45.624Z</time>
      </trkpt>
      <trkpt lat="47.632440" lon="7.693874">
        <ele>317.318963</ele>
        <time>2021-11-15T22:25:53.440Z</time>
      </trkpt>
      <trkpt lat="47.632297" lon="7.694443">
        <ele>319.122673</ele>
        <time>2021-11-15T22:26:08.464Z</time>
      </trkpt>
      <trkpt lat="47.632229" lon="7.694703">
        <ele>319.951031</ele>
        <time>2021-11-15T22:26:15.056Z</time>
      </trkpt>
      <trkpt lat="47.632164" lon="7.694950">
        <ele>320.738611</ele>
        <time>2021-11-15T22:26:21.432Z</time>
      </trkpt>
      <trkpt lat="47.632096" lon="7.695178">
        <ele>321.479164</ele>
        <time>2021-11-15T22:26:27.154Z</time>
      </trkpt>
      <trkpt lat="47.632076" lon="7.695243">
        <ele>321.691396</ele>
        <time>2021-11-15T22:26:28.753Z</time>
      </trkpt>
      <trkpt lat="47.631985" lon="7.695469">
        <ele>322.473349</ele>
        <time>2021-11-15T22:26:33.611Z</time>
      </trkpt>
      <trkpt lat="47.631973" lon="7.695502">
        <ele>322.584724</ele>
        <time>2021-11-15T22:26:35.790Z</time>
      </trkpt>
      <trkpt lat="47.631911" lon="7.695669">
        <ele>323.151033</ele>
        <time>2021-11-15T22:26:38.457Z</time>
      </trkpt>
      <trkpt lat="47.631816" lon="7.695863">
        <ele>323.863311</ele>
        <time>2021-11-15T22:26:42.903Z</time>
      </trkpt>
      <trkpt lat="47.631501" lon="7.695775">
        <ele>324.355661</ele>
        <time>2021-11-15T22:26:52.633Z</time>
      </trkpt>
      <trkpt lat="47.630920" lon="7.695687">
        <ele>325.107266</ele>
        <time>2021-11-15T22:27:09.842Z</time>
      </trkpt>
      <trkpt lat="47.630798" lon="7.695688">
        <ele>325.264277</ele>
        <time>2021-11-15T22:27:12.936Z</time>
      </trkpt>
      <trkpt lat="47.630492" lon="7.695689">
        <ele>325.658086</ele>
        <time>2021-11-15T22:27:20.602Z</time>
      </trkpt>
      <trkpt lat="47.629730" lon="7.695969">
        <ele>326.288149</ele>
        <time>2021-11-15T22:27:34.079Z</time>
      </trkpt>
      <trkpt lat="47.629568" lon="7.696115">
        <ele>326.286406</ele>
        <time>2021-11-15T22:27:37.614Z</time>
      </trkpt>
      <trkpt lat="47.629210" lon="7.696607">
        <ele>326.281918</ele>
        <time>2021-11-15T22:27:46.776Z</time>
      </trkpt>
      <trkpt lat="47.628516" lon="7.697169">
        <ele>326.274646</ele>
        <time>2021-11-15T22:28:04.370Z</time>
      </trkpt>
      <trkpt lat="47.628021" lon="7.697269">
        <ele>327.131359</ele>
        <time>2021-11-15T22:28:16.411Z</time>
      </trkpt>
      <trkpt lat="47.627884" lon="7.697343">
        <ele>327.401597</ele>
        <time>2021-11-15T22:28:19.392Z</time>
      </trkpt>
      <trkpt lat="47.627231" lon="7.697773">
        <ele>328.725798</ele>
        <time>2021-11-15T22:28:35.638Z</time>
      </trkpt>
      <trkpt lat="47.626452" lon="7.698602">
        <ele>331.135260</ele>
        <time>2021-11-15T22:29:00.528Z</time>
      </trkpt>
      <trkpt lat="47.626086" lon="7.698992">
        <ele>332.561110</ele>
        <time>2021-11-15T22:29:13.076Z</time>
      </trkpt>
      <trkpt lat="47.625461" lon="7.699273">
        <ele>334.627604</ele>
        <time>2021-11-15T22:29:31.678Z</time>
      </trkpt>
      <trkpt lat="47.625309" lon="7.699433">
        <ele>335.217326</ele>
        <time>2021-11-15T22:29:37.106Z</time>
      </trkpt>
      <trkpt lat="47.624857" lon="7.700230">
        <ele>337.445115</ele>
        <time>2021-11-15T22:29:56.989Z</time>
      </trkpt>
      <trkpt lat="47.624323" lon="7.701445">
        <ele>340.547789</ele>
        <time>2021-11-15T22:30:21.578Z</time>
      </trkpt>
      <trkpt lat="47.623958" lon="7.701951">
        <ele>342.777643</ele>
        <time>2021-11-15T22:30:37.843Z</time>
      </trkpt>
      <trkpt lat="47.623648" lon="7.702270">
        <ele>344.660771</ele>
        <time>2021-11-15T22:30:49.770Z</time>
      </trkpt>
      <trkpt lat="47.623513" lon="7.702279">
        <ele>345.335312</ele>
        <time>2021-11-15T22:30:53.386Z</time>
      </trkpt>
      <trkpt lat="47.623205" lon="7.702085">
        <ele>347.005517</ele>
        <time>2021-11-15T22:31:05.323Z</time>
      </trkpt>
      <trkpt lat="47.623108" lon="7.702060">
        <ele>347.496950</ele>
        <time>2021-11-15T22:31:08.183Z</time>
      </trkpt>
      <trkpt lat="47.622996" lon="7.702123">
        <ele>348.094834</ele>
        <time>2021-11-15T22:31:14.207Z</time>
      </trkpt>
      <trkpt lat="47.622874" lon="7.702287">
        <ele>348.916586</ele>
        <time>2021-11-15T22:31:19.658Z</time>
      </trkpt>
      <trkpt lat="47.622692" lon="7.702977">
        <ele>352.265229</ele>
        <time>2021-11-15T22:31:40.887Z</time>
      </trkpt>
      <trkpt lat="47.622344" lon="7.703662">
        <ele>356.886282</ele>
        <time>2021-11-15T22:32:07.352Z</time>
      </trkpt>
      <trkpt lat="47.621888" lon="7.704755">
        <ele>363.811215</ele>
        <time>2021-11-15T22:32:50.864Z</time>
      </trkpt>
      <trkpt lat="47.621789" lon="7.705094">
        <ele>365.850543</ele>
        <time>2021-11-15T22:33:03.205Z</time>
      </trkpt>
      <trkpt lat="47.621611" lon="7.706298">
        <ele>372.717040</ele>
        <time>2021-11-15T22:33:43.789Z</time>
      </trkpt>
      <trkpt lat="47.621593" lon="7.707590">
        <ele>379.648105</ele>
        <time>2021-11-15T22:34:25.313Z</time>
      </trkpt>
      <trkpt lat="47.621520" lon="7.707900">
        <ele>380.765958</ele>
        <time>2021-11-15T22:34:35.057Z</time>
      </trkpt>
      <trkpt lat="47.621330" lon="7.708277">
        <ele>382.368433</ele>
        <time>2021-11-15T22:34:48.074Z</time>
      </trkpt>
      <trkpt lat="47.621059" lon="7.709139">
        <ele>385.606378</ele>
        <time>2021-11-15T22:35:10.913Z</time>
      </trkpt>
      <trkpt lat="47.620944" lon="7.709648">
        <ele>387.433887</ele>
        <time>2021-11-15T22:35:21.583Z</time>
      </trkpt>
      <trkpt lat="47.620838" lon="7.710891">
        <ele>388.545747</ele>
        <time>2021-11-15T22:35:38.524Z</time>
      </trkpt>
      <trkpt lat="47.620668" lon="7.711439">
        <ele>388.687737</ele>
        <time>2021-11-15T22:35:44.007Z</time>
      </trkpt>
      <trkpt lat="47.620583" lon="7.712051">
        <ele>388.834811</ele>
        <time>2021-11-15T22:35:49.132Z</time>
      </trkpt>
      <trkpt lat="47.620562" lon="7.712881">
        <ele>389.184506</ele>
        <time>2021-11-15T22:35:56.042Z</time>
      </trkpt>
      <trkpt lat="47.620355" lon="7.714031">
        <ele>389.941000</ele>
        <time>2021-11-15T22:36:10.341Z</time>
      </trkpt>
      <trkpt lat="47.620154" lon="7.714902">
        <ele>390.526110</ele>
        <time>2021-11-15T22:36:23.482Z</time>
      </trkpt>
      <trkpt lat="47.620083" lon="7.715138">
        <ele>390.738562</ele>
        <time>2021-11-15T22:36:28.685Z</time>
      </trkpt>
      <trkpt lat="47.619370" lon="7.716703">
        <ele>392.994792</ele>
        <time>2021-11-15T22:37:00.039Z</time>
      </trkpt>
      <trkpt lat="47.619222" lon="7.716913">
        <ele>393.357694</ele>
        <time>2021-11-15T22:37:04.134Z</time>
      </trkpt>
      <trkpt lat="47.619037" lon="7.717037">
        <ele>393.717426</ele>
        <time>2021-11-15T22:37:07.402Z</time>
      </trkpt>
      <trkpt lat="47.618344" lon="7.717282">
        <ele>393.775732</ele>
        <time>2021-11-15T22:37:16.776Z</time>
      </trkpt>
      <trkpt lat="47.617832" lon="7.717579">
        <ele>393.736100</ele>
        <time>2021-11-15T22:37:23.820Z</time>
      </trkpt>
      <trkpt lat="47.617441" lon="7.717849">
        <ele>393.705009</ele>
        <time>2021-11-15T22:37:29.727Z</time>
      </trkpt>
      <trkpt lat="47.617269" lon="7.718018">
        <ele>393.811433</ele>
        <time>2021-11-15T22:37:32.814Z</time>
      </trkpt>
      <trkpt lat="47.617098" lon="7.718278">
        <ele>394.507200</ele>
        <time>2021-11-15T22:37:36.900Z</time>
      </trkpt>
      <trkpt lat="47.616298" lon="7.719670">
        <ele>398.010921</ele>
        <time>2021-11-15T22:38:09.380Z</time>
      </trkpt>
      <trkpt lat="47.615890" lon="7.720244">
        <ele>400.186335</ele>
        <time>2021-11-15T22:38:30.140Z</time>
      </trkpt>
      <trkpt lat="47.615630" lon="7.720579">
        <ele>401.867279</ele>
        <time>2021-11-15T22:38:42.917Z</time>
      </trkpt>
      <trkpt lat="47.615394" lon="7.720757">
        <ele>403.159561</ele>
        <time>2021-11-15T22:38:52.314Z</time>
      </trkpt>
      <trkpt lat="47.615110" lon="7.720843">
        <ele>404.574381</ele>
        <time>2021-11-15T22:39:02.606Z</time>
      </trkpt>
      <trkpt lat="47.614657" lon="7.720991">
        <ele>406.838512</ele>
        <time>2021-11-15T22:39:18.293Z</time>
      </trkpt>
      <trkpt lat="47.614307" lon="7.721193">
        <ele>408.455264</ele>
        <time>2021-11-15T22:39:30.860Z</time>
      </trkpt>
      <trkpt lat="47.613293" lon="7.722239">
        <ele>413.285261</ele>
        <time>2021-11-15T22:40:07.283Z</time>
      </trkpt>
      <trkpt lat="47.613151" lon="7.722474">
        <ele>414.117248</ele>
        <time>2021-11-15T22:40:13.619Z</time>
      </trkpt>
      <trkpt lat="47.612626" lon="7.724023">
        <ele>418.276746</ele>
        <time>2021-11-15T22:40:48.848Z</time>
      </trkpt>
      <trkpt lat="47.612294" lon="7.725494">
        <ele>420.918978</ele>
        <time>2021-11-15T22:41:19.441Z</time>
      </trkpt>
      <trkpt lat="47.611696" lon="7.727069">
        <ele>420.827751</ele>
        <time>2021-11-15T22:41:36.420Z</time>
      </trkpt>
      <trkpt lat="47.611558" lon="7.727374">
        <ele>420.809212</ele>
        <time>2021-11-15T22:41:39.114Z</time>
      </trkpt>
      <trkpt lat="47.611673" lon="7.727743">
        <ele>419.784644</ele>
        <time>2021-11-15T22:41:41.842Z</time>
      </trkpt>
      <trkpt lat="47.611794" lon="7.728207">
        <ele>418.293516</ele>
        <time>2021-11-15T22:41:45.139Z</time>
      </trkpt>
      <trkpt lat="47.612102" lon="7.728839">
        <ele>415.956165</ele>
        <time>2021-11-15T22:41:50.154Z</time>
      </trkpt>
      <trkpt lat="47.612234" lon="7.729223">
        <ele>414.664258</ele>
        <time>2021-11-15T22:41:52.843Z</time>
      </trkpt>
      <trkpt lat="47.612445" lon="7.730023">
        <ele>411.851183</ele>
        <time>2021-11-15T22:41:58.189Z</time>
      </trkpt>
      <trkpt lat="47.612490" lon="7.730332">
        <ele>410.589919</ele>
        <time>2021-11-15T22:42:00.196Z</time>
      </trkpt>
      <trkpt lat="47.612414" lon="7.731732">
        <ele>404.986217</ele>
        <time>2021-11-15T22:42:09.008Z</time>
      </trkpt>
      <trkpt lat="47.612582" lon="7.733083">
        <ele>399.266212</ele>
        <time>2021-11-15T22:42:17.319Z</time>
      </trkpt>
      <trkpt lat="47.612580" lon="7.733841">
        <ele>395.970244</ele>
        <time>2021-11-15T22:42:21.984Z</time>
      </trkpt>
      <trkpt lat="47.612580" lon="7.733842">
        <ele>395.965896</ele>
        <time>2021-11-15T22:42:22.014Z</time>
      </trkpt>
      <trkpt lat="47.612562" lon="7.734273">
        <ele>394.088224</ele>
        <time>2021-11-15T22:42:24.784Z</time>
      </trkpt>
      <trkpt lat="47.612560" lon="7.734334">
        <ele>393.822670</ele>
        <time>2021-11-15T22:42:25.151Z</time>
      </trkpt>
      <trkpt lat="47.612558" lon="7.734604">
        <ele>392.648582</ele>
        <time>2021-11-15T22:42:26.789Z</time>
      </trkpt>
      <trkpt lat="47.612618" lon="7.734756">
        <ele>391.882687</ele>
        <time>2021-11-15T22:42:27.888Z</time>
      </trkpt>
      <trkpt lat="47.612755" lon="7.734867">
        <ele>390.875816</ele>
        <time>2021-11-15T22:42:29.281Z</time>
      </trkpt>
      <trkpt lat="47.613181" lon="7.734997">
        <ele>389.031267</ele>
        <time>2021-11-15T22:42:33.295Z</time>
      </trkpt>
      <trkpt lat="47.613390" lon="7.735211">
        <ele>388.024561</ele>
        <time>2021-11-15T22:42:35.604Z</time>
      </trkpt>
      <trkpt lat="47.613434" lon="7.735397">
        <ele>387.497794</ele>
        <time>2021-11-15T22:42:36.887Z</time>
      </trkpt>
      <trkpt lat="47.613375" lon="7.735736">
        <ele>386.562171</ele>
        <time>2021-11-15T22:42:39.198Z</time>
      </trkpt>
      <trkpt lat="47.613317" lon="7.735838">
        <ele>386.205575</ele>
        <time>2021-11-15T22:42:40.160Z</time>
      </trkpt>
      <trkpt lat="47.613210" lon="7.735944">
        <ele>385.695524</ele>
        <time>2021-11-15T22:42:41.418Z</time>
      </trkpt>
      <trkpt lat="47.612712" lon="7.736151">
        <ele>383.645357</ele>
        <time>2021-11-15T22:42:47.054Z</time>
      </trkpt>
      <trkpt lat="47.612447" lon="7.736778">
        <ele>383.523648</ele>
        <time>2021-11-15T22:42:52.800Z</time>
      </trkpt>
      <trkpt lat="47.612194" lon="7.737048">
        <ele>383.586938</ele>
        <time>2021-11-15T22:42:57.117Z</time>
      </trkpt>
      <trkpt lat="47.612044" lon="7.737224">
        <ele>383.625775</ele>
        <time>2021-11-15T22:42:59.839Z</time>
      </trkpt>
      <trkpt lat="47.611965" lon="7.737457">
        <ele>383.661479</ele>
        <time>2021-11-15T22:43:03.237Z</time>
      </trkpt>
      <trkpt lat="47.611893" lon="7.737711">
        <ele>383.699199</ele>
        <time>2021-11-15T22:43:06.920Z</time>
      </trkpt>
      <trkpt lat="47.611872" lon="7.738156">
        <ele>383.760268</ele>
        <time>2021-11-15T22:43:13.301Z</time>
      </trkpt>
      <trkpt lat="47.611785" lon="7.738609">
        <ele>384.124570</ele>
        <time>2021-11-15T22:43:20.107Z</time>
      </trkpt>
      <trkpt lat="47.611751" lon="7.738698">
        <ele>384.298236</ele>
        <time>2021-11-15T22:43:22.124Z</time>
      </trkpt>
      <trkpt lat="47.611684" lon="7.738828">
        <ele>384.576039</ele>
        <time>2021-11-15T22:43:24.626Z</time>
      </trkpt>
      <trkpt lat="47.611618" lon="7.738936">
        <ele>384.823507</ele>
        <time>2021-11-15T22:43:26.932Z</time>
      </trkpt>
      <trkpt lat="47.611382" lon="7.739254">
        <ele>385.626407</ele>
        <time>2021-11-15T22:43:35.016Z</time>
      </trkpt>
      <trkpt lat="47.611129" lon="7.739819">
        <ele>386.777914</ele>
        <time>2021-11-15T22:43:47.515Z</time>
      </trkpt>
      <trkpt lat="47.610898" lon="7.741056">
        <ele>389.034907</ele>
        <time>2021-11-15T22:44:09.517Z</time>
      </trkpt>
      <trkpt lat="47.610871" lon="7.741420">
        <ele>389.733537</ele>
        <time>2021-11-15T22:44:14.949Z</time>
      </trkpt>
      <trkpt lat="47.610879" lon="7.741793">
        <ele>390.445506</ele>
        <time>2021-11-15T22:44:20.700Z</time>
      </trkpt>
      <trkpt lat="47.611010" lon="7.743033">
        <ele>392.840046</ele>
        <time>2021-11-15T22:44:43.259Z</time>
      </trkpt>
      <trkpt lat="47.611161" lon="7.743634">
        <ele>394.228439</ele>
        <time>2021-11-15T22:44:56.496Z</time>
      </trkpt>
      <trkpt lat="47.611241" lon="7.743837">
        <ele>394.791483</ele>
        <time>2021-11-15T22:45:01.319Z</time>
      </trkpt>
      <trkpt lat="47.611456" lon="7.744262">
        <ele>396.063801</ele>
        <time>2021-11-15T22:45:11.695Z</time>
      </trkpt>
      <trkpt lat="47.611609" lon="7.744853">
        <ele>397.579701</ele>
        <time>2021-11-15T22:45:23.905Z</time>
      </trkpt>
      <trkpt lat="47.611651" lon="7.745141">
        <ele>398.285264</ele>
        <time>2021-11-15T22:45:30.386Z</time>
      </trkpt>
      <trkpt lat="47.611691" lon="7.745486">
        <ele>399.123489</ele>
        <time>2021-11-15T22:45:37.016Z</time>
      </trkpt>
      <trkpt lat="47.611647" lon="7.746050">
        <ele>400.141652</ele>
        <time>2021-11-15T22:45:48.313Z</time>
      </trkpt>
      <trkpt lat="47.611508" lon="7.746851">
        <ele>401.123115</ele>
        <time>2021-11-15T22:46:02.092Z</time>
      </trkpt>
      <trkpt lat="47.611423" lon="7.747196">
        <ele>401.558981</ele>
        <time>2021-11-15T22:46:07.995Z</time>
      </trkpt>
      <trkpt lat="47.611024" lon="7.748403">
        <ele>403.097500</ele>
        <time>2021-11-15T22:46:23.415Z</time>
      </trkpt>
      <trkpt lat="47.610897" lon="7.748667">
        <ele>403.362508</ele>
        <time>2021-11-15T22:46:26.623Z</time>
      </trkpt>
      <trkpt lat="47.610399" lon="7.749144">
        <ele>404.081015</ele>
        <time>2021-11-15T22:46:36.396Z</time>
      </trkpt>
      <trkpt lat="47.610331" lon="7.749289">
        <ele>404.225345</ele>
        <time>2021-11-15T22:46:38.476Z</time>
      </trkpt>
      <trkpt lat="47.610303" lon="7.749507">
        <ele>404.406683</ele>
        <time>2021-11-15T22:46:41.390Z</time>
      </trkpt>
      <trkpt lat="47.610345" lon="7.749815">
        <ele>404.663455</ele>
        <time>2021-11-15T22:46:46.346Z</time>
      </trkpt>
      <trkpt lat="47.610520" lon="7.750319">
        <ele>405.126699</ele>
        <time>2021-11-15T22:46:55.679Z</time>
      </trkpt>
      <trkpt lat="47.610643" lon="7.750603">
        <ele>406.007133</ele>
        <time>2021-11-15T22:47:01.138Z</time>
      </trkpt>
      <trkpt lat="47.610714" lon="7.750722">
        <ele>406.450685</ele>
        <time>2021-11-15T22:47:04.168Z</time>
      </trkpt>
      <trkpt lat="47.611094" lon="7.750951">
        <ele>408.148868</ele>
        <time>2021-11-15T22:47:15.720Z</time>
      </trkpt>
      <trkpt lat="47.611197" lon="7.751064">
        <ele>408.679280</ele>
        <time>2021-11-15T22:47:18.915Z</time>
      </trkpt>
      <trkpt lat="47.611255" lon="7.751205">
        <ele>409.140314</ele>
        <time>2021-11-15T22:47:22.406Z</time>
      </trkpt>
      <trkpt lat="47.611288" lon="7.751378">
        <ele>409.642146</ele>
        <time>2021-11-15T22:47:26.422Z</time>
      </trkpt>
      <trkpt lat="47.611242" lon="7.752336">
        <ele>412.322874</ele>
        <time>2021-11-15T22:47:49.328Z</time>
      </trkpt>
      <trkpt lat="47.611269" lon="7.753071">
        <ele>415.493081</ele>
        <time>2021-11-15T22:48:10.042Z</time>
      </trkpt>
      <trkpt lat="47.611310" lon="7.753428">
        <ele>417.138023</ele>
        <time>2021-11-15T22:48:19.765Z</time>
      </trkpt>
      <trkpt lat="47.611506" lon="7.753985">
        <ele>419.991959</ele>
        <time>2021-11-15T22:48:37.078Z</time>
      </trkpt>
      <trkpt lat="47.611701" lon="7.754245">
        <ele>421.758563</ele>
        <time>2021-11-15T22:48:48.382Z</time>
      </trkpt>
      <trkpt lat="47.611848" lon="7.754391">
        <ele>422.950514</ele>
        <time>2021-11-15T22:48:56.108Z</time>
      </trkpt>
      <trkpt lat="47.612146" lon="7.754726">
        <ele>425.586171</ele>
        <time>2021-11-15T22:49:12.992Z</time>
      </trkpt>
      <trkpt lat="47.612192" lon="7.754954">
        <ele>426.834471</ele>
        <time>2021-11-15T22:49:20.687Z</time>
      </trkpt>
      <trkpt lat="47.612161" lon="7.755353">
        <ele>428.941135</ele>
        <time>2021-11-15T22:49:32.620Z</time>
      </trkpt>
      <trkpt lat="47.612159" lon="7.755380">
        <ele>429.083606</ele>
        <time>2021-11-15T22:49:34.509Z</time>
      </trkpt>
      <trkpt lat="47.612161" lon="7.755449">
        <ele>429.445855</ele>
        <time>2021-11-15T22:49:36.640Z</time>
      </trkpt>
      <trkpt lat="47.612172" lon="7.755521">
        <ele>429.833082</ele>
        <time>2021-11-15T22:49:38.793Z</time>
      </trkpt>
      <trkpt lat="47.612196" lon="7.755580">
        <ele>430.194517</ele>
        <time>2021-11-15T22:49:40.888Z</time>
      </trkpt>
      <trkpt lat="47.612248" lon="7.755635">
        <ele>430.691417</ele>
        <time>2021-11-15T22:49:43.941Z</time>
      </trkpt>
      <trkpt lat="47.612387" lon="7.755703">
        <ele>431.830193</ele>
        <time>2021-11-15T22:49:50.936Z</time>
      </trkpt>
      <trkpt lat="47.612451" lon="7.755754">
        <ele>432.395444</ele>
        <time>2021-11-15T22:49:54.660Z</time>
      </trkpt>
      <trkpt lat="47.612481" lon="7.755809">
        <ele>432.766527</ele>
        <time>2021-11-15T22:49:56.980Z</time>
      </trkpt>
      <trkpt lat="47.612503" lon="7.755886">
        <ele>433.205176</ele>
        <time>2021-11-15T22:49:59.436Z</time>
      </trkpt>
      <trkpt lat="47.612539" lon="7.756079">
        <ele>434.255517</ele>
        <time>2021-11-15T22:50:05.676Z</time>
      </trkpt>
      <trkpt lat="47.612595" lon="7.756458">
        <ele>436.290599</ele>
        <time>2021-11-15T22:50:17.031Z</time>
      </trkpt>
      <trkpt lat="47.612635" lon="7.756867">
        <ele>438.458301</ele>
        <time>2021-11-15T22:50:30.010Z</time>
      </trkpt>
      <trkpt lat="47.612654" lon="7.757180">
        <ele>439.744607</ele>
        <time>2021-11-15T22:50:39.462Z</time>
      </trkpt>
      <trkpt lat="47.612657" lon="7.757559">
        <ele>441.216555</ele>
        <time>2021-11-15T22:50:51.275Z</time>
      </trkpt>
      <trkpt lat="47.612671" lon="7.757751">
        <ele>441.966536</ele>
        <time>2021-11-15T22:50:57.121Z</time>
      </trkpt>
      <trkpt lat="47.612697" lon="7.758003">
        <ele>442.956572</ele>
        <time>2021-11-15T22:51:03.410Z</time>
      </trkpt>
      <trkpt lat="47.612718" lon="7.758199">
        <ele>443.727291</ele>
        <time>2021-11-15T22:51:09.630Z</time>
      </trkpt>
      <trkpt lat="47.612779" lon="7.758543">
        <ele>445.108656</ele>
        <time>2021-11-15T22:51:17.515Z</time>
      </trkpt>
      <trkpt lat="47.612830" lon="7.758759">
        <ele>445.997451</ele>
        <time>2021-11-15T22:51:23.933Z</time>
      </trkpt>
      <trkpt lat="47.612944" lon="7.759245">
        <ele>447.995814</ele>
        <time>2021-11-15T22:51:35.168Z</time>
      </trkpt>
      <trkpt lat="47.613053" lon="7.759623">
        <ele>449.237251</ele>
        <time>2021-11-15T22:51:42.721Z</time>
      </trkpt>
      <trkpt lat="47.613205" lon="7.760080">
        <ele>449.862050</ele>
        <time>2021-11-15T22:51:52.477Z</time>
      </trkpt>
      <trkpt lat="47.613222" lon="7.760189">
        <ele>449.999221</ele>
        <time>2021-11-15T22:51:54.896Z</time>
      </trkpt>
      <trkpt lat="47.613231" lon="7.760404">
        <ele>450.263333</ele>
        <time>2021-11-15T22:51:58.118Z</time>
      </trkpt>
      <trkpt lat="47.613148" lon="7.760607">
        <ele>450.554424</ele>
        <time>2021-11-15T22:52:01.649Z</time>
      </trkpt>
      <trkpt lat="47.613059" lon="7.760674">
        <ele>450.735943</ele>
        <time>2021-11-15T22:52:04.081Z</time>
      </trkpt>
      <trkpt lat="47.612960" lon="7.760706">
        <ele>450.920222</ele>
        <time>2021-11-15T22:52:06.141Z</time>
      </trkpt>
      <trkpt lat="47.612812" lon="7.760726">
        <ele>451.190509</ele>
        <time>2021-11-15T22:52:08.980Z</time>
      </trkpt>
      <trkpt lat="47.612630" lon="7.760759">
        <ele>451.523982</ele>
        <time>2021-11-15T22:52:12.251Z</time>
      </trkpt>
      <trkpt lat="47.612523" lon="7.760811">
        <ele>451.728764</ele>
        <time>2021-11-15T22:52:14.157Z</time>
      </trkpt>
      <trkpt lat="47.612441" lon="7.760890">
        <ele>451.906594</ele>
        <time>2021-11-15T22:52:15.694Z</time>
      </trkpt>
      <trkpt lat="47.612339" lon="7.761049">
        <ele>452.175701</ele>
        <time>2021-11-15T22:52:18.026Z</time>
      </trkpt>
      <trkpt lat="47.612127" lon="7.761383">
        <ele>452.451698</ele>
        <time>2021-11-15T22:52:22.510Z</time>
      </trkpt>
      <trkpt lat="47.612075" lon="7.761435">
        <ele>452.482729</ele>
        <time>2021-11-15T22:52:23.438Z</time>
      </trkpt>
      <trkpt lat="47.612022" lon="7.761449">
        <ele>452.509367</ele>
        <time>2021-11-15T22:52:24.253Z</time>
      </trkpt>
      <trkpt lat="47.611933" lon="7.761457">
        <ele>452.553486</ele>
        <time>2021-11-15T22:52:25.545Z</time>
      </trkpt>
      <trkpt lat="47.610854" lon="7.761285">
        <ele>453.090465</ele>
        <time>2021-11-15T22:52:43.033Z</time>
      </trkpt>
      <trkpt lat="47.610760" lon="7.761304">
        <ele>453.137407</ele>
        <time>2021-11-15T22:52:44.690Z</time>
      </trkpt>
      <trkpt lat="47.610601" lon="7.761374">
        <ele>453.219475</ele>
        <time>2021-11-15T22:52:47.961Z</time>
      </trkpt>
      <trkpt lat="47.610565" lon="7.761273">
        <ele>453.326170</ele>
        <time>2021-11-15T22:52:49.503Z</time>
      </trkpt>
      <trkpt lat="47.610488" lon="7.761190">
        <ele>453.513950</ele>
        <time>2021-11-15T22:52:51.300Z</time>
      </trkpt>
      <trkpt lat="47.610076" lon="7.761100">
        <ele>454.335511</ele>
        <time>2021-11-15T22:53:00.195Z</time>
      </trkpt>
      <trkpt lat="47.608938" lon="7.760829">
        <ele>456.609308</ele>
        <time>2021-11-15T22:53:28.535Z</time>
      </trkpt>
      <trkpt lat="47.607825" lon="7.760537">
        <ele>458.084775</ele>
        <time>2021-11-15T22:53:54.026Z</time>
      </trkpt>
      <trkpt lat="47.607246" lon="7.760369">
        <ele>458.821670</ele>
        <time>2021-11-15T22:54:04.029Z</time>
      </trkpt>
      <trkpt lat="47.606171" lon="7.760045">
        <ele>459.194671</ele>
        <time>2021-11-15T22:54:19.393Z</time>
      </trkpt>
      <trkpt lat="47.605536" lon="7.759853">
        <ele>459.309670</ele>
        <time>2021-11-15T22:54:29.463Z</time>
      </trkpt>
      <trkpt lat="47.605325" lon="7.759787">
        <ele>459.347935</ele>
        <time>2021-11-15T22:54:33.274Z</time>
      </trkpt>
      <trkpt lat="47.604633" lon="7.759635">
        <ele>459.565133</ele>
        <time>2021-11-15T22:54:46.440Z</time>
      </trkpt>
      <trkpt lat="47.604421" lon="7.759606">
        <ele>459.631414</ele>
        <time>2021-11-15T22:54:50.664Z</time>
      </trkpt>
      <trkpt lat="47.604088" lon="7.759601">
        <ele>459.735091</ele>
        <time>2021-11-15T22:54:56.604Z</time>
      </trkpt>
      <trkpt lat="47.603613" lon="7.759659">
        <ele>459.883470</ele>
        <time>2021-11-15T22:55:03.459Z</time>
      </trkpt>
      <trkpt lat="47.603173" lon="7.759766">
        <ele>458.536340</ele>
        <time>2021-11-15T22:55:08.709Z</time>
      </trkpt>
      <trkpt lat="47.602902" lon="7.759841">
        <ele>457.499560</ele>
        <time>2021-11-15T22:55:11.688Z</time>
      </trkpt>
      <trkpt lat="47.602078" lon="7.760047">
        <ele>454.356910</ele>
        <time>2021-11-15T22:55:19.666Z</time>
      </trkpt>
      <trkpt lat="47.601600" lon="7.760073">
        <ele>452.059593</ele>
        <time>2021-11-15T22:55:24.064Z</time>
      </trkpt>
      <trkpt lat="47.601336" lon="7.760030">
        <ele>450.211564</ele>
        <time>2021-11-15T22:55:26.460Z</time>
      </trkpt>
      <trkpt lat="47.601032" lon="7.760002">
        <ele>448.092175</ele>
        <time>2021-11-15T22:55:29.197Z</time>
      </trkpt>
      <trkpt lat="47.600757" lon="7.759977">
        <ele>446.175059</ele>
        <time>2021-11-15T22:55:31.637Z</time>
      </trkpt>
      <trkpt lat="47.599976" lon="7.759788">
        <ele>440.668774</ele>
        <time>2021-11-15T22:55:38.732Z</time>
      </trkpt>
      <trkpt lat="47.599727" lon="7.759652">
        <ele>438.795138</ele>
        <time>2021-11-15T22:55:41.076Z</time>
      </trkpt>
      <trkpt lat="47.599495" lon="7.759407">
        <ele>436.783451</ele>
        <time>2021-11-15T22:55:43.620Z</time>
      </trkpt>
      <trkpt lat="47.599369" lon="7.759291">
        <ele>435.735935</ele>
        <time>2021-11-15T22:55:44.930Z</time>
      </trkpt>
      <trkpt lat="47.599038" lon="7.759240">
        <ele>433.385412</ele>
        <time>2021-11-15T22:55:47.951Z</time>
      </trkpt>
      <trkpt lat="47.598636" lon="7.759436">
        <ele>430.396461</ele>
        <time>2021-11-15T22:55:51.782Z</time>
      </trkpt>
      <trkpt lat="47.598492" lon="7.759485">
        <ele>429.352920</ele>
        <time>2021-11-15T22:55:53.116Z</time>
      </trkpt>
      <trkpt lat="47.598314" lon="7.759510">
        <ele>428.090035</ele>
        <time>2021-11-15T22:55:54.696Z</time>
      </trkpt>
      <trkpt lat="47.597328" lon="7.759556">
        <ele>420.442006</ele>
        <time>2021-11-15T22:56:03.576Z</time>
      </trkpt>
      <trkpt lat="47.596893" lon="7.759520">
        <ele>417.056988</ele>
        <time>2021-11-15T22:56:07.431Z</time>
      </trkpt>
      <trkpt lat="47.596644" lon="7.759494">
        <ele>415.117577</ele>
        <time>2021-11-15T22:56:09.583Z</time>
      </trkpt>
      <trkpt lat="47.596241" lon="7.759593">
        <ele>411.484344</ele>
        <time>2021-11-15T22:56:13.163Z</time>
      </trkpt>
      <trkpt lat="47.596134" lon="7.759703">
        <ele>410.241097</ele>
        <time>2021-11-15T22:56:14.306Z</time>
      </trkpt>
      <trkpt lat="47.596041" lon="7.759870">
        <ele>408.846448</ele>
        <time>2021-11-15T22:56:15.543Z</time>
      </trkpt>
      <trkpt lat="47.595854" lon="7.760335">
        <ele>405.360142</ele>
        <time>2021-11-15T22:56:18.683Z</time>
      </trkpt>
      <trkpt lat="47.595755" lon="7.760659">
        <ele>403.069608</ele>
        <time>2021-11-15T22:56:20.790Z</time>
      </trkpt>
      <trkpt lat="47.595685" lon="7.760825">
        <ele>401.808889</ele>
        <time>2021-11-15T22:56:21.900Z</time>
      </trkpt>
      <trkpt lat="47.595483" lon="7.761108">
        <ele>399.155302</ele>
        <time>2021-11-15T22:56:24.332Z</time>
      </trkpt>
      <trkpt lat="47.595086" lon="7.761325">
        <ele>395.460697</ele>
        <time>2021-11-15T22:56:27.963Z</time>
      </trkpt>
      <trkpt lat="47.594411" lon="7.761312">
        <ele>390.357035</ele>
        <time>2021-11-15T22:56:33.865Z</time>
      </trkpt>
      <trkpt lat="47.593803" lon="7.761400">
        <ele>385.738502</ele>
        <time>2021-11-15T22:56:39.387Z</time>
      </trkpt>
      <trkpt lat="47.593758" lon="7.761384">
        <ele>385.388643</ele>
        <time>2021-11-15T22:56:39.800Z</time>
      </trkpt>
      <trkpt lat="47.593513" lon="7.761296">
        <ele>383.482793</ele>
        <time>2021-11-15T22:56:42.149Z</time>
      </trkpt>
      <trkpt lat="47.593211" lon="7.761047">
        <ele>381.807670</ele>
        <time>2021-11-15T22:56:45.373Z</time>
      </trkpt>
      <trkpt lat="47.592736" lon="7.760559">
        <ele>379.214520</ele>
        <time>2021-11-15T22:56:50.874Z</time>
      </trkpt>
      <trkpt lat="47.592317" lon="7.760056">
        <ele>376.795332</ele>
        <time>2021-11-15T22:56:56.237Z</time>
      </trkpt>
      <trkpt lat="47.592205" lon="7.759833">
        <ele>375.953875</ele>
        <time>2021-11-15T22:56:58.041Z</time>
      </trkpt>
      <trkpt lat="47.591959" lon="7.759015">
        <ele>373.088236</ele>
        <time>2021-11-15T22:57:03.933Z</time>
      </trkpt>
      <trkpt lat="47.591911" lon="7.758184">
        <ele>370.353842</ele>
        <time>2021-11-15T22:57:09.465Z</time>
      </trkpt>
      <trkpt lat="47.591923" lon="7.757894">
        <ele>369.401294</ele>
        <time>2021-11-15T22:57:11.281Z</time>
      </trkpt>
      <trkpt lat="47.591970" lon="7.757544">
        <ele>368.231299</ele>
        <time>2021-11-15T22:57:13.557Z</time>
      </trkpt>
      <trkpt lat="47.592034" lon="7.757251">
        <ele>367.221577</ele>
        <time>2021-11-15T22:57:15.433Z</time>
      </trkpt>
      <trkpt lat="47.592097" lon="7.757042">
        <ele>366.471046</ele>
        <time>2021-11-15T22:57:16.856Z</time>
      </trkpt>
      <trkpt lat="47.592316" lon="7.756315">
        <ele>363.130137</ele>
        <time>2021-11-15T22:57:21.715Z</time>
      </trkpt>
      <trkpt lat="47.592371" lon="7.756099">
        <ele>362.152091</ele>
        <time>2021-11-15T22:57:23.129Z</time>
      </trkpt>
      <trkpt lat="47.592426" lon="7.755881">
        <ele>361.166115</ele>
        <time>2021-11-15T22:57:24.511Z</time>
      </trkpt>
      <trkpt lat="47.592484" lon="7.755586">
        <ele>359.864443</ele>
        <time>2021-11-15T22:57:26.384Z</time>
      </trkpt>
      <trkpt lat="47.592501" lon="7.755402">
        <ele>359.077721</ele>
        <time>2021-11-15T22:57:27.506Z</time>
      </trkpt>
      <trkpt lat="47.592485" lon="7.755255">
        <ele>358.446957</ele>
        <time>2021-11-15T22:57:28.412Z</time>
      </trkpt>
      <trkpt lat="47.592241" lon="7.754241">
        <ele>354.696982</ele>
        <time>2021-11-15T22:57:35.127Z</time>
      </trkpt>
      <trkpt lat="47.592004" lon="7.753676">
        <ele>353.819159</ele>
        <time>2021-11-15T22:57:39.464Z</time>
      </trkpt>
      <trkpt lat="47.591881" lon="7.753444">
        <ele>353.429827</ele>
        <time>2021-11-15T22:57:41.473Z</time>
      </trkpt>
      <trkpt lat="47.590881" lon="7.751756">
        <ele>352.663770</ele>
        <time>2021-11-15T22:58:05.849Z</time>
      </trkpt>
      <trkpt lat="47.590052" lon="7.749933">
        <ele>355.404278</ele>
        <time>2021-11-15T22:58:45.160Z</time>
      </trkpt>
      <trkpt lat="47.589642" lon="7.749241">
        <ele>355.964139</ele>
        <time>2021-11-15T22:58:59.472Z</time>
      </trkpt>
      <trkpt lat="47.588960" lon="7.748448">
        <ele>356.745232</ele>
        <time>2021-11-15T22:59:11.721Z</time>
      </trkpt>
      <trkpt lat="47.588242" lon="7.747872">
        <ele>354.448885</ele>
        <time>2021-11-15T22:59:21.511Z</time>
      </trkpt>
      <trkpt lat="47.588045" lon="7.747763">
        <ele>353.778735</ele>
        <time>2021-11-15T22:59:23.726Z</time>
      </trkpt>
      <trkpt lat="47.588045" lon="7.747762">
        <ele>353.776585</ele>
        <time>2021-11-15T22:59:23.742Z</time>
      </trkpt>
      <trkpt lat="47.587944" lon="7.747712">
        <ele>353.437220</ele>
        <time>2021-11-15T22:59:24.861Z</time>
      </trkpt>
      <trkpt lat="47.587676" lon="7.747616">
        <ele>352.558504</ele>
        <time>2021-11-15T22:59:27.484Z</time>
      </trkpt>
      <trkpt lat="47.587231" lon="7.747583">
        <ele>351.138475</ele>
        <time>2021-11-15T22:59:31.658Z</time>
      </trkpt>
      <trkpt lat="47.587012" lon="7.747608">
        <ele>349.642326</ele>
        <time>2021-11-15T22:59:33.687Z</time>
      </trkpt>
      <trkpt lat="47.586901" lon="7.747621">
        <ele>348.847188</ele>
        <time>2021-11-15T22:59:34.686Z</time>
      </trkpt>
      <trkpt lat="47.586219" lon="7.747726">
        <ele>343.950734</ele>
        <time>2021-11-15T22:59:40.874Z</time>
      </trkpt>
      <trkpt lat="47.585600" lon="7.747675">
        <ele>339.523540</ele>
        <time>2021-11-15T22:59:46.358Z</time>
      </trkpt>
      <trkpt lat="47.585275" lon="7.747497">
        <ele>337.164182</ele>
        <time>2021-11-15T22:59:49.375Z</time>
      </trkpt>
      <trkpt lat="47.584788" lon="7.747084">
        <ele>333.545436</ele>
        <time>2021-11-15T22:59:54.324Z</time>
      </trkpt>
      <trkpt lat="47.584325" lon="7.746826">
        <ele>330.355092</ele>
        <time>2021-11-15T22:59:58.819Z</time>
      </trkpt>
      <trkpt lat="47.583935" lon="7.746691">
        <ele>327.771919</ele>
        <time>2021-11-15T23:00:02.540Z</time>
      </trkpt>
      <trkpt lat="47.580800" lon="7.746847">
        <ele>316.906946</ele>
        <time>2021-11-15T23:00:34.353Z</time>
      </trkpt>
      <trkpt lat="47.580195" lon="7.746761">
        <ele>314.992378</ele>
        <time>2021-11-15T23:00:40.617Z</time>
      </trkpt>
      <trkpt lat="47.580176" lon="7.746758">
        <ele>314.932187</ele>
        <time>2021-11-15T23:00:40.785Z</time>
      </trkpt>
      <trkpt lat="47.579910" lon="7.746660">
        <ele>314.023807</ele>
        <time>2021-11-15T23:00:43.613Z</time>
      </trkpt>
      <trkpt lat="47.579370" lon="7.746311">
        <ele>312.067826</ele>
        <time>2021-11-15T23:00:49.521Z</time>
      </trkpt>
      <trkpt lat="47.578248" lon="7.745231">
        <ele>307.704647</ele>
        <time>2021-11-15T23:01:02.933Z</time>
      </trkpt>
      <trkpt lat="47.578014" lon="7.745032">
        <ele>306.863044</ele>
        <time>2021-11-15T23:01:05.678Z</time>
      </trkpt>
      <trkpt lat="47.577765" lon="7.744854">
        <ele>306.000638</ele>
        <time>2021-11-15T23:01:08.534Z</time>
      </trkpt>
      <trkpt lat="47.576822" lon="7.744396">
        <ele>302.945778</ele>
        <time>2021-11-15T23:01:18.706Z</time>
      </trkpt>
      <trkpt lat="47.575733" lon="7.744190">
        <ele>299.860288</ele>
        <time>2021-11-15T23:01:29.999Z</time>
      </trkpt>
      <trkpt lat="47.575417" lon="7.744166">
        <ele>298.970995</ele>
        <time>2021-11-15T23:01:33.285Z</time>
      </trkpt>
      <trkpt lat="47.575173" lon="7.744139">
        <ele>298.283317</ele>
        <time>2021-11-15T23:01:35.854Z</time>
      </trkpt>
      <trkpt lat="47.574918" lon="7.744046">
        <ele>297.797116</ele>
        <time>2021-11-15T23:01:38.632Z</time>
      </trkpt>
      <trkpt lat="47.574841" lon="7.744018">
        <ele>297.652564</ele>
        <time>2021-11-15T23:01:39.468Z</time>
      </trkpt>
      <trkpt lat="47.574546" lon="7.743745">
        <ele>297.018492</ele>
        <time>2021-11-15T23:01:43.222Z</time>
      </trkpt>
      <trkpt lat="47.574382" lon="7.743495">
        <ele>296.589579</ele>
        <time>2021-11-15T23:01:45.774Z</time>
      </trkpt>
      <trkpt lat="47.574090" lon="7.742826">
        <ele>295.609490</ele>
        <time>2021-11-15T23:01:51.814Z</time>
      </trkpt>
      <trkpt lat="47.573998" lon="7.742684">
        <ele>295.367325</ele>
        <time>2021-11-15T23:01:53.363Z</time>
      </trkpt>
      <trkpt lat="47.573895" lon="7.742636">
        <ele>295.170469</ele>
        <time>2021-11-15T23:01:54.703Z</time>
      </trkpt>
      <trkpt lat="47.573635" lon="7.742528">
        <ele>294.899532</ele>
        <time>2021-11-15T23:01:58.128Z</time>
      </trkpt>
      <trkpt lat="47.573477" lon="7.743683">
        <ele>294.503074</ele>
        <time>2021-11-15T23:02:09.077Z</time>
      </trkpt>
      <trkpt lat="47.573397" lon="7.744238">
        <ele>294.312154</ele>
        <time>2021-11-15T23:02:14.362Z</time>
      </trkpt>
      <trkpt lat="47.573383" lon="7.744318">
        <ele>294.284351</ele>
        <time>2021-11-15T23:02:15.147Z</time>
      </trkpt>
      <trkpt lat="47.573349" lon="7.744526">
        <ele>294.212353</ele>
        <time>2021-11-15T23:02:16.939Z</time>
      </trkpt>
      <trkpt lat="47.573329" lon="7.744647">
        <ele>294.170444</ele>
        <time>2021-11-15T23:02:18.552Z</time>
      </trkpt>
      <trkpt lat="47.573193" lon="7.745027">
        <ele>294.010850</ele>
        <time>2021-11-15T23:02:22.049Z</time>
      </trkpt>
      <trkpt lat="47.573070" lon="7.745225">
        <ele>293.897936</ele>
        <time>2021-11-15T23:02:25.014Z</time>
      </trkpt>
      <trkpt lat="47.572897" lon="7.745419">
        <ele>293.763041</ele>
        <time>2021-11-15T23:02:27.808Z</time>
      </trkpt>
      <trkpt lat="47.572693" lon="7.745654">
        <ele>293.602382</ele>
        <time>2021-11-15T23:02:31.240Z</time>
      </trkpt>
      <trkpt lat="47.572478" lon="7.745914">
        <ele>293.429837</ele>
        <time>2021-11-15T23:02:35.251Z</time>
      </trkpt>
      <trkpt lat="47.572312" lon="7.746125">
        <ele>293.293856</ele>
        <time>2021-11-15T23:02:38.241Z</time>
      </trkpt>
      <trkpt lat="47.572107" lon="7.746364">
        <ele>293.131673</ele>
        <time>2021-11-15T23:02:41.376Z</time>
      </trkpt>
      <trkpt lat="47.571996" lon="7.746510">
        <ele>293.039391</ele>
        <time>2021-11-15T23:02:43.343Z</time>
      </trkpt>
      <trkpt lat="47.571810" lon="7.746732">
        <ele>292.806159</ele>
        <time>2021-11-15T23:02:46.057Z</time>
      </trkpt>
      <trkpt lat="47.571732" lon="7.746831">
        <ele>292.671699</ele>
        <time>2021-11-15T23:02:47.303Z</time>
      </trkpt>
      <trkpt lat="47.571615" lon="7.746974">
        <ele>292.473135</ele>
        <time>2021-11-15T23:02:49.043Z</time>
      </trkpt>
      <trkpt lat="47.571591" lon="7.747005">
        <ele>292.431451</ele>
        <time>2021-11-15T23:02:49.390Z</time>
      </trkpt>
      <trkpt lat="47.571247" lon="7.747396">
        <ele>291.863830</ele>
        <time>2021-11-15T23:02:54.492Z</time>
      </trkpt>
      <trkpt lat="47.570998" lon="7.747803">
        <ele>291.378470</ele>
        <time>2021-11-15T23:02:58.872Z</time>
      </trkpt>
      <trkpt lat="47.570938" lon="7.747976">
        <ele>291.206629</ele>
        <time>2021-11-15T23:03:00.529Z</time>
      </trkpt>
      <trkpt lat="47.570885" lon="7.748211">
        <ele>290.987735</ele>
        <time>2021-11-15T23:03:02.542Z</time>
      </trkpt>
      <trkpt lat="47.570858" lon="7.749747">
        <ele>289.543770</ele>
        <time>2021-11-15T23:03:14.379Z</time>
      </trkpt>
      <trkpt lat="47.570866" lon="7.750436">
        <ele>288.881337</ele>
        <time>2021-11-15T23:03:19.655Z</time>
      </trkpt>
      <trkpt lat="47.570870" lon="7.750695">
        <ele>288.632296</ele>
        <time>2021-11-15T23:03:21.679Z</time>
      </trkpt>
      <trkpt lat="47.570876" lon="7.751057">
        <ele>288.284201</ele>
        <time>2021-11-15T23:03:24.590Z</time>
      </trkpt>
      <trkpt lat="47.570885" lon="7.751787">
        <ele>287.829814</ele>
        <time>2021-11-15T23:03:30.477Z</time>
      </trkpt>
      <trkpt lat="47.570869" lon="7.752048">
        <ele>287.711296</ele>
        <time>2021-11-15T23:03:32.653Z</time>
      </trkpt>
      <trkpt lat="47.570854" lon="7.752277">
        <ele>287.607249</ele>
        <time>2021-11-15T23:03:34.535Z</time>
      </trkpt>
      <trkpt lat="47.570840" lon="7.752506">
        <ele>287.503264</ele>
        <time>2021-11-15T23:03:36.520Z</time>
      </trkpt>
      <trkpt lat="47.570759" lon="7.753008">
        <ele>287.269843</ele>
        <time>2021-11-15T23:03:41.027Z</time>
      </trkpt>
      <trkpt lat="47.570466" lon="7.754138">
        <ele>286.726365</ele>
        <time>2021-11-15T23:03:52.662Z</time>
      </trkpt>
      <trkpt lat="47.570185" lon="7.755068">
        <ele>286.280624</ele>
        <time>2021-11-15T23:04:02.113Z</time>
      </trkpt>
      <trkpt lat="47.569898" lon="7.756021">
        <ele>285.824109</ele>
        <time>2021-11-15T23:04:10.784Z</time>
      </trkpt>
      <trkpt lat="47.569743" lon="7.756603">
        <ele>285.461616</ele>
        <time>2021-11-15T23:04:15.905Z</time>
      </trkpt>
      <trkpt lat="47.569564" lon="7.757554">
        <ele>284.728968</ele>
        <time>2021-11-15T23:04:23.922Z</time>
      </trkpt>
      <trkpt lat="47.569423" lon="7.758505">
        <ele>284.006426</ele>
        <time>2021-11-15T23:04:31.672Z</time>
      </trkpt>
      <trkpt lat="47.569394" lon="7.758678">
        <ele>283.874146</ele>
        <time>2021-11-15T23:04:33.155Z</time>
      </trkpt>
      <trkpt lat="47.569371" lon="7.758806">
        <ele>283.775851</ele>
        <time>2021-11-15T23:04:34.235Z</time>
      </trkpt>
      <trkpt lat="47.569318" lon="7.759087">
        <ele>283.606144</ele>
        <time>2021-11-15T23:04:36.568Z</time>
      </trkpt>
      <trkpt lat="47.569287" lon="7.759231">
        <ele>283.531393</ele>
        <time>2021-11-15T23:04:37.907Z</time>
      </trkpt>
      <trkpt lat="47.569052" lon="7.760178">
        <ele>283.032384</ele>
        <time>2021-11-15T23:04:46.593Z</time>
      </trkpt>
      <trkpt lat="47.568658" lon="7.761470">
        <ele>282.347701</ele>
        <time>2021-11-15T23:04:59.139Z</time>
      </trkpt>
      <trkpt lat="47.568588" lon="7.761697">
        <ele>282.264948</ele>
        <time>2021-11-15T23:05:01.266Z</time>
      </trkpt>
      <trkpt lat="47.568566" lon="7.761768">
        <ele>282.239043</ele>
        <time>2021-11-15T23:05:01.926Z</time>
      </trkpt>
      <trkpt lat="47.568495" lon="7.761994">
        <ele>282.156385</ele>
        <time>2021-11-15T23:05:04.078Z</time>
      </trkpt>
      <trkpt lat="47.568423" lon="7.762232">
        <ele>282.069904</ele>
        <time>2021-11-15T23:05:06.278Z</time>
      </trkpt>
      <trkpt lat="47.568377" lon="7.762379">
        <ele>282.016177</ele>
        <time>2021-11-15T23:05:07.689Z</time>
      </trkpt>
      <trkpt lat="47.567932" lon="7.763827">
        <ele>281.492429</ele>
        <time>2021-11-15T23:05:22.185Z</time>
      </trkpt>
      <trkpt lat="47.567739" lon="7.764462">
        <ele>281.361755</ele>
        <time>2021-11-15T23:05:29.017Z</time>
      </trkpt>
      <trkpt lat="47.567574" lon="7.765017">
        <ele>281.247960</ele>
        <time>2021-11-15T23:05:34.865Z</time>
      </trkpt>
      <trkpt lat="47.567427" lon="7.765503">
        <ele>281.148029</ele>
        <time>2021-11-15T23:05:39.913Z</time>
      </trkpt>
      <trkpt lat="47.566939" lon="7.766996">
        <ele>280.760886</ele>
        <time>2021-11-15T23:05:54.864Z</time>
      </trkpt>
      <trkpt lat="47.566747" lon="7.767407">
        <ele>280.622742</ele>
        <time>2021-11-15T23:05:59.352Z</time>
      </trkpt>
      <trkpt lat="47.566290" lon="7.768111">
        <ele>280.352775</ele>
        <time>2021-11-15T23:06:08.156Z</time>
      </trkpt>
      <trkpt lat="47.565945" lon="7.768659">
        <ele>280.256021</ele>
        <time>2021-11-15T23:06:15.037Z</time>
      </trkpt>
      <trkpt lat="47.565887" lon="7.768778">
        <ele>280.254416</ele>
        <time>2021-11-15T23:06:16.668Z</time>
      </trkpt>
      <trkpt lat="47.565730" lon="7.769200">
        <ele>280.249149</ele>
        <time>2021-11-15T23:06:21.265Z</time>
      </trkpt>
      <trkpt lat="47.565639" lon="7.769724">
        <ele>280.243234</ele>
        <time>2021-11-15T23:06:26.726Z</time>
      </trkpt>
      <trkpt lat="47.565623" lon="7.769892">
        <ele>280.241380</ele>
        <time>2021-11-15T23:06:28.616Z</time>
      </trkpt>
      <trkpt lat="47.565618" lon="7.770120">
        <ele>280.238886</ele>
        <time>2021-11-15T23:06:30.686Z</time>
      </trkpt>
      <trkpt lat="47.565625" lon="7.770603">
        <ele>280.233605</ele>
        <time>2021-11-15T23:06:35.758Z</time>
      </trkpt>
      <trkpt lat="47.565623" lon="7.771401">
        <ele>280.347904</ele>
        <time>2021-11-15T23:06:44.610Z</time>
      </trkpt>
      <trkpt lat="47.565557" lon="7.771818">
        <ele>280.431214</ele>
        <time>2021-11-15T23:06:49.218Z</time>
      </trkpt>
      <trkpt lat="47.565452" lon="7.772236">
        <ele>280.517969</ele>
        <time>2021-11-15T23:06:54.067Z</time>
      </trkpt>
      <trkpt lat="47.565274" lon="7.772804">
        <ele>280.639782</ele>
        <time>2021-11-15T23:07:00.545Z</time>
      </trkpt>
      <trkpt lat="47.565215" lon="7.772993">
        <ele>280.680288</ele>
        <time>2021-11-15T23:07:02.850Z</time>
      </trkpt>
      <trkpt lat="47.565082" lon="7.773413">
        <ele>280.791961</ele>
        <time>2021-11-15T23:07:07.919Z</time>
      </trkpt>
      <trkpt lat="47.565017" lon="7.773684">
        <ele>280.906058</ele>
        <time>2021-11-15T23:07:11.202Z</time>
      </trkpt>
      <trkpt lat="47.564949" lon="7.774019">
        <ele>281.044836</ele>
        <time>2021-11-15T23:07:15.160Z</time>
      </trkpt>
      <trkpt lat="47.564938" lon="7.774103">
        <ele>281.078781</ele>
        <time>2021-11-15T23:07:16.171Z</time>
      </trkpt>
      <trkpt lat="47.564907" lon="7.774234">
        <ele>281.133853</ele>
        <time>2021-11-15T23:07:17.691Z</time>
      </trkpt>
      <trkpt lat="47.564861" lon="7.774427">
        <ele>281.215053</ele>
        <time>2021-11-15T23:07:20.081Z</time>
      </trkpt>
      <trkpt lat="47.564815" lon="7.774448">
        <ele>281.243351</ele>
        <time>2021-11-15T23:07:20.997Z</time>
      </trkpt>
      <trkpt lat="47.564709" lon="7.774675">
        <ele>281.352864</ele>
        <time>2021-11-15T23:07:24.250Z</time>
      </trkpt>
      <trkpt lat="47.564712" lon="7.774747">
        <ele>281.381481</ele>
        <time>2021-11-15T23:07:25.129Z</time>
      </trkpt>
      <trkpt lat="47.564658" lon="7.774885">
        <ele>281.444766</ele>
        <time>2021-11-15T23:07:27.101Z</time>
      </trkpt>
      <trkpt lat="47.564621" lon="7.774969">
        <ele>281.484561</ele>
        <time>2021-11-15T23:07:28.348Z</time>
      </trkpt>
      <trkpt lat="47.564601" lon="7.775042">
        <ele>281.515817</ele>
        <time>2021-11-15T23:07:29.330Z</time>
      </trkpt>
      <trkpt lat="47.564226" lon="7.776836">
        <ele>282.107129</ele>
        <time>2021-11-15T23:07:51.162Z</time>
      </trkpt>
      <trkpt lat="47.564027" lon="7.778327">
        <ele>282.505667</ele>
        <time>2021-11-15T23:08:07.402Z</time>
      </trkpt>
      <trkpt lat="47.563988" lon="7.778618">
        <ele>282.411342</ele>
        <time>2021-11-15T23:08:10.458Z</time>
      </trkpt>
      <trkpt lat="47.563956" lon="7.778868">
        <ele>282.329164</ele>
        <time>2021-11-15T23:08:13.181Z</time>
      </trkpt>
      <trkpt lat="47.563901" lon="7.779085">
        <ele>282.254303</ele>
        <time>2021-11-15T23:08:15.286Z</time>
      </trkpt>
      <trkpt lat="47.563891" lon="7.779124">
        <ele>282.240829</ele>
        <time>2021-11-15T23:08:15.694Z</time>
      </trkpt>
      <trkpt lat="47.563838" lon="7.779303">
        <ele>282.177700</ele>
        <time>2021-11-15T23:08:17.586Z</time>
      </trkpt>
      <trkpt lat="47.563771" lon="7.779469">
        <ele>282.115232</ele>
        <time>2021-11-15T23:08:19.253Z</time>
      </trkpt>
      <trkpt lat="47.563704" lon="7.779626">
        <ele>282.055239</ele>
        <time>2021-11-15T23:08:20.877Z</time>
      </trkpt>
      <trkpt lat="47.563652" lon="7.779747">
        <ele>282.008909</ele>
        <time>2021-11-15T23:08:22.161Z</time>
      </trkpt>
      <trkpt lat="47.563533" lon="7.779944">
        <ele>281.923518</ele>
        <time>2021-11-15T23:08:24.351Z</time>
      </trkpt>
      <trkpt lat="47.563492" lon="7.780014">
        <ele>281.893583</ele>
        <time>2021-11-15T23:08:25.132Z</time>
      </trkpt>
      <trkpt lat="47.563386" lon="7.780199">
        <ele>281.815203</ele>
        <time>2021-11-15T23:08:27.211Z</time>
      </trkpt>
      <trkpt lat="47.563299" lon="7.780330">
        <ele>281.755842</ele>
        <time>2021-11-15T23:08:28.671Z</time>
      </trkpt>
      <trkpt lat="47.563211" lon="7.780461">
        <ele>281.696144</ele>
        <time>2021-11-15T23:08:30.208Z</time>
      </trkpt>
      <trkpt lat="47.562775" lon="7.781130">
        <ele>281.232780</ele>
        <time>2021-11-15T23:08:38.098Z</time>
      </trkpt>
      <trkpt lat="47.562657" lon="7.781311">
        <ele>281.098448</ele>
        <time>2021-11-15T23:08:40.263Z</time>
      </trkpt>
      <trkpt lat="47.562099" lon="7.782166">
        <ele>280.463563</ele>
        <time>2021-11-15T23:08:50.442Z</time>
      </trkpt>
      <trkpt lat="47.561943" lon="7.782422">
        <ele>280.279451</ele>
        <time>2021-11-15T23:08:53.381Z</time>
      </trkpt>
      <trkpt lat="47.561822" lon="7.782640">
        <ele>280.171822</ele>
        <time>2021-11-15T23:08:55.753Z</time>
      </trkpt>
      <trkpt lat="47.561610" lon="7.782977">
        <ele>280.038523</ele>
        <time>2021-11-15T23:08:59.716Z</time>
      </trkpt>
      <trkpt lat="47.561406" lon="7.783302">
        <ele>279.910101</ele>
        <time>2021-11-15T23:09:03.690Z</time>
      </trkpt>
      <trkpt lat="47.561312" lon="7.783440">
        <ele>279.853370</ele>
        <time>2021-11-15T23:09:05.466Z</time>
      </trkpt>
      <trkpt lat="47.561041" lon="7.783716">
        <ele>279.712382</ele>
        <time>2021-11-15T23:09:09.973Z</time>
      </trkpt>
      <trkpt lat="47.560877" lon="7.783815">
        <ele>279.636456</ele>
        <time>2021-11-15T23:09:12.541Z</time>
      </trkpt>
      <trkpt lat="47.560427" lon="7.783951">
        <ele>279.439126</ele>
        <time>2021-11-15T23:09:19.076Z</time>
      </trkpt>
      <trkpt lat="47.559876" lon="7.784127">
        <ele>279.189057</ele>
        <time>2021-11-15T23:09:26.903Z</time>
      </trkpt>
      <trkpt lat="47.559415" lon="7.784281">
        <ele>278.979399</ele>
        <time>2021-11-15T23:09:33.178Z</time>
      </trkpt>
      <trkpt lat="47.559319" lon="7.784326">
        <ele>278.934728</ele>
        <time>2021-11-15T23:09:34.508Z</time>
      </trkpt>
      <trkpt lat="47.559229" lon="7.784376">
        <ele>278.892085</ele>
        <time>2021-11-15T23:09:35.779Z</time>
      </trkpt>
      <trkpt lat="47.559117" lon="7.784473">
        <ele>278.834532</ele>
        <time>2021-11-15T23:09:37.481Z</time>
      </trkpt>
      <trkpt lat="47.559008" lon="7.784639">
        <ele>278.765188</ele>
        <time>2021-11-15T23:09:39.559Z</time>
      </trkpt>
      <trkpt lat="47.558986" lon="7.784674">
        <ele>278.750868</ele>
        <time>2021-11-15T23:09:39.987Z</time>
      </trkpt>
      <trkpt lat="47.558920" lon="7.784817">
        <ele>278.698999</ele>
        <time>2021-11-15T23:09:41.527Z</time>
      </trkpt>
      <trkpt lat="47.558822" lon="7.785030">
        <ele>278.507056</ele>
        <time>2021-11-15T23:09:43.803Z</time>
      </trkpt>
      <trkpt lat="47.558782" lon="7.785128">
        <ele>278.348967</ele>
        <time>2021-11-15T23:09:44.808Z</time>
      </trkpt>
      <trkpt lat="47.558747" lon="7.785215">
        <ele>278.209160</ele>
        <time>2021-11-15T23:09:45.684Z</time>
      </trkpt>
      <trkpt lat="47.558660" lon="7.785434">
        <ele>277.858382</ele>
        <time>2021-11-15T23:09:47.874Z</time>
      </trkpt>
      <trkpt lat="47.558577" lon="7.785598">
        <ele>277.575422</ele>
        <time>2021-11-15T23:09:49.626Z</time>
      </trkpt>
      <trkpt lat="47.558367" lon="7.785913">
        <ele>276.964231</ele>
        <time>2021-11-15T23:09:53.245Z</time>
      </trkpt>
      <trkpt lat="47.558166" lon="7.786166">
        <ele>276.424803</ele>
        <time>2021-11-15T23:09:56.180Z</time>
      </trkpt>
      <trkpt lat="47.558071" lon="7.786282">
        <ele>276.173017</ele>
        <time>2021-11-15T23:09:57.502Z</time>
      </trkpt>
      <trkpt lat="47.558006" lon="7.786349">
        <ele>276.011063</ele>
        <time>2021-11-15T23:09:58.341Z</time>
      </trkpt>
      <trkpt lat="47.557921" lon="7.786413">
        <ele>275.816046</ele>
        <time>2021-11-15T23:09:59.335Z</time>
      </trkpt>
      <trkpt lat="47.557901" lon="7.786427">
        <ele>275.770803</ele>
        <time>2021-11-15T23:09:59.553Z</time>
      </trkpt>
      <trkpt lat="47.557823" lon="7.786486">
        <ele>275.591676</ele>
        <time>2021-11-15T23:10:00.449Z</time>
      </trkpt>
      <trkpt lat="47.557711" lon="7.786536">
        <ele>275.352419</ele>
        <time>2021-11-15T23:10:01.622Z</time>
      </trkpt>
      <trkpt lat="47.557562" lon="7.786575">
        <ele>275.042934</ele>
        <time>2021-11-15T23:10:03.094Z</time>
      </trkpt>
      <trkpt lat="47.557490" lon="7.786586">
        <ele>274.817680</ele>
        <time>2021-11-15T23:10:03.801Z</time>
      </trkpt>
      <trkpt lat="47.557180" lon="7.786638">
        <ele>273.561782</ele>
        <time>2021-11-15T23:10:06.771Z</time>
      </trkpt>
      <trkpt lat="47.557118" lon="7.786638">
        <ele>273.312197</ele>
        <time>2021-11-15T23:10:07.353Z</time>
      </trkpt>
      <trkpt lat="47.557035" lon="7.786628">
        <ele>272.976972</ele>
        <time>2021-11-15T23:10:08.132Z</time>
      </trkpt>
      <trkpt lat="47.556958" lon="7.786609">
        <ele>272.662734</ele>
        <time>2021-11-15T23:10:08.871Z</time>
      </trkpt>
      <trkpt lat="47.556914" lon="7.786662">
        <ele>272.434470</ele>
        <time>2021-11-15T23:10:09.408Z</time>
      </trkpt>
      <trkpt lat="47.556883" lon="7.786718">
        <ele>272.237700</ele>
        <time>2021-11-15T23:10:09.861Z</time>
      </trkpt>
      <trkpt lat="47.556812" lon="7.787001">
        <ele>271.417469</ele>
        <time>2021-11-15T23:10:11.798Z</time>
      </trkpt>
      <trkpt lat="47.556783" lon="7.787207">
        <ele>270.845783</ele>
        <time>2021-11-15T23:10:13.156Z</time>
      </trkpt>
      <trkpt lat="47.556658" lon="7.787468">
        <ele>269.976318</ele>
        <time>2021-11-15T23:10:15.236Z</time>
      </trkpt>
      <trkpt lat="47.556539" lon="7.787710">
        <ele>269.162861</ele>
        <time>2021-11-15T23:10:17.206Z</time>
      </trkpt>
      <trkpt lat="47.556357" lon="7.788058">
        <ele>267.966787</ele>
        <time>2021-11-15T23:10:20.172Z</time>
      </trkpt>
      <trkpt lat="47.556249" lon="7.788270">
        <ele>267.741676</ele>
        <time>2021-11-15T23:10:21.992Z</time>
      </trkpt>
      <trkpt lat="47.556137" lon="7.788488">
        <ele>267.753264</ele>
        <time>2021-11-15T23:10:23.899Z</time>
      </trkpt>
      <trkpt lat="47.556111" lon="7.788537">
        <ele>267.755901</ele>
        <time>2021-11-15T23:10:24.324Z</time>
      </trkpt>
      <trkpt lat="47.556069" lon="7.788614">
        <ele>267.760088</ele>
        <time>2021-11-15T23:10:25.068Z</time>
      </trkpt>
      <trkpt lat="47.555936" lon="7.788828">
        <ele>267.772393</ele>
        <time>2021-11-15T23:10:27.312Z</time>
      </trkpt>
      <trkpt lat="47.555085" lon="7.789685">
        <ele>267.836878</ele>
        <time>2021-11-15T23:11:09.753Z</time>
      </trkpt>
      <trkpt lat="47.555062" lon="7.789726">
        <ele>267.839133</ele>
        <time>2021-11-15T23:11:11.459Z</time>
      </trkpt>
      <trkpt lat="47.555052" lon="7.789771">
        <ele>267.841137</ele>
        <time>2021-11-15T23:11:12.897Z</time>
      </trkpt>
      <trkpt lat="47.555031" lon="7.789894">
        <ele>267.846503</ele>
        <time>2021-11-15T23:11:17.086Z</time>
      </trkpt>
      <trkpt lat="47.554999" lon="7.790090">
        <ele>268.185201</ele>
        <time>2021-11-15T23:11:24.307Z</time>
      </trkpt>
      <trkpt lat="47.554865" lon="7.790678">
        <ele>269.262846</ele>
        <time>2021-11-15T23:11:45.474Z</time>
      </trkpt>
      <trkpt lat="47.554858" lon="7.790696">
        <ele>269.298919</ele>
        <time>2021-11-15T23:11:46.465Z</time>
      </trkpt>
      <trkpt lat="47.554788" lon="7.790844">
        <ele>269.612734</ele>
        <time>2021-11-15T23:11:51.970Z</time>
      </trkpt>
      <trkpt lat="47.554756" lon="7.790897">
        <ele>269.736217</ele>
        <time>2021-11-15T23:11:54.513Z</time>
      </trkpt>
      <trkpt lat="47.554811" lon="7.791097">
        <ele>270.111223</ele>
        <time>2021-11-15T23:12:01.742Z</time>
      </trkpt>
      <trkpt lat="47.554911" lon="7.791459">
        <ele>270.790421</ele>
        <time>2021-11-15T23:12:14.367Z</time>
      </trkpt>
      <trkpt lat="47.555027" lon="7.791948">
        <ele>271.690448</ele>
        <time>2021-11-15T23:12:30.603Z</time>
      </trkpt>
      <trkpt lat="47.555085" lon="7.792163">
        <ele>272.092494</ele>
        <time>2021-11-15T23:12:37.947Z</time>
      </trkpt>
      <trkpt lat="47.555127" lon="7.792307">
        <ele>272.364887</ele>
        <time>2021-11-15T23:12:42.294Z</time>
      </trkpt>
      <trkpt lat="47.555237" lon="7.792734">
        <ele>272.956159</ele>
        <time>2021-11-15T23:12:56.449Z</time>
      </trkpt>
      <trkpt lat="47.555277" lon="7.793131">
        <ele>273.446954</ele>
        <time>2021-11-15T23:13:08.633Z</time>
      </trkpt>
      <trkpt lat="47.555274" lon="7.793423">
        <ele>273.804026</ele>
        <time>2021-11-15T23:13:17.107Z</time>
      </trkpt>
      <trkpt lat="47.555281" lon="7.793955">
        <ele>274.454631</ele>
        <time>2021-11-15T23:13:32.604Z</time>
      </trkpt>
      <trkpt lat="47.555282" lon="7.794033">
        <ele>274.550020</ele>
        <time>2021-11-15T23:13:34.949Z</time>
      </trkpt>
      <trkpt lat="47.555288" lon="7.794318">
        <ele>274.898661</ele>
        <time>2021-11-15T23:13:43.490Z</time>
      </trkpt>
      <trkpt lat="47.555288" lon="7.794496">
        <ele>275.116303</ele>
        <time>2021-11-15T23:13:48.458Z</time>
      </trkpt>
      <trkpt lat="47.555141" lon="7.794516">
        <ele>275.383750</ele>
        <time>2021-11-15T23:13:54.940Z</time>
      </trkpt>
      <trkpt lat="47.555010" lon="7.794553">
        <ele>275.625362</ele>
        <time>2021-11-15T23:14:00.792Z</time>
      </trkpt>
      <trkpt lat="47.554938" lon="7.794576">
        <ele>275.775599</ele>
        <time>2021-11-15T23:14:03.918Z</time>
      </trkpt>
      <trkpt lat="47.554864" lon="7.794599">
        <ele>276.002419</ele>
        <time>2021-11-15T23:14:07.342Z</time>
      </trkpt>
      <trkpt lat="47.554495" lon="7.794723">
        <ele>277.137479</ele>
        <time>2021-11-15T23:14:24.745Z</time>
      </trkpt>
      <trkpt lat="47.554352" lon="7.794791">
        <ele>277.588009</ele>
        <time>2021-11-15T23:14:31.995Z</time>
      </trkpt>
      <trkpt lat="47.554254" lon="7.794823">
        <ele>277.889049</ele>
        <time>2021-11-15T23:14:36.626Z</time>
      </trkpt>
      <trkpt lat="47.554004" lon="7.794824">
        <ele>278.639017</ele>
        <time>2021-11-15T23:14:49.008Z</time>
      </trkpt>
      <trkpt lat="47.553930" lon="7.794811">
        <ele>278.862561</ele>
        <time>2021-11-15T23:14:52.772Z</time>
      </trkpt>
      <trkpt lat="47.553883" lon="7.794947">
        <ele>279.171906</ele>
        <time>2021-11-15T23:14:56.180Z</time>
      </trkpt>
      <trkpt lat="47.553854" lon="7.795042">
        <ele>279.383002</ele>
        <time>2021-11-15T23:14:58.556Z</time>
      </trkpt>
      <trkpt lat="47.553847" lon="7.795063">
        <ele>279.430422</ele>
        <time>2021-11-15T23:14:59.113Z</time>
      </trkpt>
      <trkpt lat="47.553724" lon="7.795281">
        <ele>280.005704</ele>
        <time>2021-11-15T23:15:06.170Z</time>
      </trkpt>
      <trkpt lat="47.553702" lon="7.795313">
        <ele>280.098186</ele>
        <time>2021-11-15T23:15:07.313Z</time>
      </trkpt>
      <trkpt lat="47.553628" lon="7.795414">
        <ele>280.400003</ele>
        <time>2021-11-15T23:15:10.746Z</time>
      </trkpt>
      <trkpt lat="47.553580" lon="7.795460">
        <ele>280.571490</ele>
        <time>2021-11-15T23:15:12.831Z</time>
      </trkpt>
      <trkpt lat="47.553379" lon="7.795607">
        <ele>281.293366</ele>
        <time>2021-11-15T23:15:20.984Z</time>
      </trkpt>
      <trkpt lat="47.553256" lon="7.795697">
        <ele>281.881800</ele>
        <time>2021-11-15T23:15:25.803Z</time>
      </trkpt>
      <trkpt lat="47.553218" lon="7.795662">
        <ele>282.073727</ele>
        <time>2021-11-15T23:15:27.027Z</time>
      </trkpt>
      <trkpt lat="47.553188" lon="7.795642">
        <ele>282.214838</ele>
        <time>2021-11-15T23:15:27.987Z</time>
      </trkpt>
      <trkpt lat="47.553162" lon="7.795633">
        <ele>282.329367</ele>
        <time>2021-11-15T23:15:28.941Z</time>
      </trkpt>
      <trkpt lat="47.553139" lon="7.795630">
        <ele>282.428407</ele>
        <time>2021-11-15T23:15:29.643Z</time>
      </trkpt>
      <trkpt lat="47.552930" lon="7.795600">
        <ele>283.329108</ele>
        <time>2021-11-15T23:15:35.796Z</time>
      </trkpt>
      <trkpt lat="47.552908" lon="7.795789">
        <ele>283.884344</ele>
        <time>2021-11-15T23:15:39.629Z</time>
      </trkpt>
      <trkpt lat="47.552886" lon="7.795976">
        <ele>284.433875</ele>
        <time>2021-11-15T23:15:43.539Z</time>
      </trkpt>
      <trkpt lat="47.552817" lon="7.796239">
        <ele>285.250769</ele>
        <time>2021-11-15T23:15:49.676Z</time>
      </trkpt>
      <trkpt lat="47.552762" lon="7.796425">
        <ele>285.838659</ele>
        <time>2021-11-15T23:15:54.356Z</time>
      </trkpt>
      <trkpt lat="47.552493" lon="7.797048">
        <ele>287.979783</ele>
        <time>2021-11-15T23:16:11.178Z</time>
      </trkpt>
      <trkpt lat="47.552152" lon="7.797876">
        <ele>290.593351</ele>
        <time>2021-11-15T23:16:33.242Z</time>
      </trkpt>
      <trkpt lat="47.552084" lon="7.798083">
        <ele>291.193130</ele>
        <time>2021-11-15T23:16:38.781Z</time>
      </trkpt>
      <trkpt lat="47.551948" lon="7.798607">
        <ele>292.655756</ele>
        <time>2021-11-15T23:16:50.591Z</time>
      </trkpt>
      <trkpt lat="47.551805" lon="7.799326">
        <ele>294.608593</ele>
        <time>2021-11-15T23:17:04.478Z</time>
      </trkpt>
      <trkpt lat="47.551793" lon="7.799434">
        <ele>294.893752</ele>
        <time>2021-11-15T23:17:06.762Z</time>
      </trkpt>
      <trkpt lat="47.551754" lon="7.799766">
        <ele>295.771711</ele>
        <time>2021-11-15T23:17:13.113Z</time>
      </trkpt>
      <trkpt lat="47.551712" lon="7.800249">
        <ele>296.288866</ele>
        <time>2021-11-15T23:17:22.032Z</time>
      </trkpt>
      <trkpt lat="47.551704" lon="7.800451">
        <ele>296.499907</ele>
        <time>2021-11-15T23:17:25.218Z</time>
      </trkpt>
      <trkpt lat="47.551672" lon="7.801147">
        <ele>297.227491</ele>
        <time>2021-11-15T23:17:34.241Z</time>
      </trkpt>
      <trkpt lat="47.551669" lon="7.801438">
        <ele>297.531029</ele>
        <time>2021-11-15T23:17:38.820Z</time>
      </trkpt>
      <trkpt lat="47.551666" lon="7.801632">
        <ele>297.733417</ele>
        <time>2021-11-15T23:17:40.833Z</time>
      </trkpt>
      <trkpt lat="47.551669" lon="7.801853">
        <ele>297.963959</ele>
        <time>2021-11-15T23:17:44.091Z</time>
      </trkpt>
      <trkpt lat="47.551671" lon="7.802077">
        <ele>298.197603</ele>
        <time>2021-11-15T23:17:46.408Z</time>
      </trkpt>
      <trkpt lat="47.551679" lon="7.802228">
        <ele>298.355575</ele>
        <time>2021-11-15T23:17:47.527Z</time>
      </trkpt>
      <trkpt lat="47.551688" lon="7.802394">
        <ele>298.529264</ele>
        <time>2021-11-15T23:17:50.484Z</time>
      </trkpt>
      <trkpt lat="47.551700" lon="7.802648">
        <ele>298.705641</ele>
        <time>2021-11-15T23:17:52.764Z</time>
      </trkpt>
      <trkpt lat="47.551732" lon="7.803125">
        <ele>299.010249</ele>
        <time>2021-11-15T23:17:58.914Z</time>
      </trkpt>
      <trkpt lat="47.551744" lon="7.803277">
        <ele>299.107498</ele>
        <time>2021-11-15T23:18:00.122Z</time>
      </trkpt>
      <trkpt lat="47.551751" lon="7.803369">
        <ele>299.166330</ele>
        <time>2021-11-15T23:18:01.797Z</time>
      </trkpt>
      <trkpt lat="47.551692" lon="7.803510">
        <ele>299.271753</ele>
        <time>2021-11-15T23:18:05.384Z</time>
      </trkpt>
      <trkpt lat="47.551741" lon="7.804294">
        <ele>299.772085</ele>
        <time>2021-11-15T23:18:17.982Z</time>
      </trkpt>
      <trkpt lat="47.551744" lon="7.804473">
        <ele>299.885867</ele>
        <time>2021-11-15T23:18:21.017Z</time>
      </trkpt>
      <trkpt lat="47.551731" lon="7.804667">
        <ele>300.009752</ele>
        <time>2021-11-15T23:18:25.117Z</time>
      </trkpt>
      <trkpt lat="47.551709" lon="7.805000">
        <ele>300.222371</ele>
        <time>2021-11-15T23:18:29.657Z</time>
      </trkpt>
      <trkpt lat="47.551681" lon="7.805477">
        <ele>300.378962</ele>
        <time>2021-11-15T23:18:37.404Z</time>
      </trkpt>
      <trkpt lat="47.551671" lon="7.806117">
        <ele>300.560431</ele>
        <time>2021-11-15T23:18:47.493Z</time>
      </trkpt>
      <trkpt lat="47.551651" lon="7.806246">
        <ele>300.597951</ele>
        <time>2021-11-15T23:18:50.396Z</time>
      </trkpt>
      <trkpt lat="47.551895" lon="7.806278">
        <ele>300.700833</ele>
        <time>2021-11-15T23:18:53.921Z</time>
      </trkpt>
      <trkpt lat="47.552015" lon="7.806307">
        <ele>300.751899</ele>
        <time>2021-11-15T23:18:56.791Z</time>
      </trkpt>
      <trkpt lat="47.552068" lon="7.806445">
        <ele>300.796908</ele>
        <time>2021-11-15T23:18:58.248Z</time>
      </trkpt>
      <trkpt lat="47.552398" lon="7.808880">
        <ele>300.366682</ele>
        <time>2021-11-15T23:19:20.391Z</time>
      </trkpt>
      <trkpt lat="47.552566" lon="7.810386">
        <ele>299.747693</ele>
        <time>2021-11-15T23:19:33.402Z</time>
      </trkpt>
      <trkpt lat="47.552711" lon="7.812955">
        <ele>298.597961</ele>
        <time>2021-11-15T23:19:56.011Z</time>
      </trkpt>
      <trkpt lat="47.552844" lon="7.816432">
        <ele>297.500514</ele>
        <time>2021-11-15T23:20:26.504Z</time>
      </trkpt>
      <trkpt lat="47.552948" lon="7.819358">
        <ele>297.828249</ele>
        <time>2021-11-15T23:20:57.734Z</time>
      </trkpt>
      <trkpt lat="47.552896" lon="7.820699">
        <ele>298.303206</ele>
        <time>2021-11-15T23:21:13.818Z</time>
      </trkpt>
      <trkpt lat="47.552567" lon="7.824508">
        <ele>300.222557</ele>
        <time>2021-11-15T23:22:00.303Z</time>
      </trkpt>
      <trkpt lat="47.552491" lon="7.827227">
        <ele>301.768558</ele>
        <time>2021-11-15T23:22:32.042Z</time>
      </trkpt>
      <trkpt lat="47.552515" lon="7.828094">
        <ele>302.335625</ele>
        <time>2021-11-15T23:22:43.752Z</time>
      </trkpt>
      <trkpt lat="47.552477" lon="7.828294">
        <ele>302.471407</ele>
        <time>2021-11-15T23:22:46.369Z</time>
      </trkpt>
      <trkpt lat="47.552421" lon="7.828481">
        <ele>302.685919</ele>
        <time>2021-11-15T23:22:49.301Z</time>
      </trkpt>
      <trkpt lat="47.552404" lon="7.828582">
        <ele>302.843189</ele>
        <time>2021-11-15T23:22:50.985Z</time>
      </trkpt>
      <trkpt lat="47.552416" lon="7.828822">
        <ele>303.206788</ele>
        <time>2021-11-15T23:22:54.219Z</time>
      </trkpt>
      <trkpt lat="47.552554" lon="7.829266">
        <ele>303.945323</ele>
        <time>2021-11-15T23:23:01.571Z</time>
      </trkpt>
      <trkpt lat="47.552645" lon="7.830686">
        <ele>306.100380</ele>
        <time>2021-11-15T23:23:24.876Z</time>
      </trkpt>
      <trkpt lat="47.552690" lon="7.832598">
        <ele>309.809097</ele>
        <time>2021-11-15T23:24:00.353Z</time>
      </trkpt>
      <trkpt lat="47.552616" lon="7.832891">
        <ele>310.441501</ele>
        <time>2021-11-15T23:24:05.717Z</time>
      </trkpt>
      <trkpt lat="47.552556" lon="7.832977">
        <ele>310.691538</ele>
        <time>2021-11-15T23:24:08.449Z</time>
      </trkpt>
      <trkpt lat="47.552511" lon="7.833072">
        <ele>310.926157</ele>
        <time>2021-11-15T23:24:10.474Z</time>
      </trkpt>
      <trkpt lat="47.552467" lon="7.833198">
        <ele>311.212938</ele>
        <time>2021-11-15T23:24:12.876Z</time>
      </trkpt>
      <trkpt lat="47.552452" lon="7.833284">
        <ele>311.392497</ele>
        <time>2021-11-15T23:24:14.487Z</time>
      </trkpt>
      <trkpt lat="47.552696" lon="7.833789">
        <ele>312.483125</ele>
        <time>2021-11-15T23:24:25.518Z</time>
      </trkpt>
      <trkpt lat="47.552700" lon="7.833938">
        <ele>312.712631</ele>
        <time>2021-11-15T23:24:28.463Z</time>
      </trkpt>
      <trkpt lat="47.552714" lon="7.835010">
        <ele>314.362845</ele>
        <time>2021-11-15T23:24:46.940Z</time>
      </trkpt>
      <trkpt lat="47.552719" lon="7.836790">
        <ele>316.735331</ele>
        <time>2021-11-15T23:25:12.113Z</time>
      </trkpt>
      <trkpt lat="47.552697" lon="7.838068">
        <ele>318.010773</ele>
        <time>2021-11-15T23:25:29.859Z</time>
      </trkpt>
      <trkpt lat="47.552736" lon="7.838578">
        <ele>318.522842</ele>
        <time>2021-11-15T23:25:36.992Z</time>
      </trkpt>
      <trkpt lat="47.552787" lon="7.838911">
        <ele>318.878073</ele>
        <time>2021-11-15T23:25:41.700Z</time>
      </trkpt>
      <trkpt lat="47.552802" lon="7.839009">
        <ele>318.988334</ele>
        <time>2021-11-15T23:25:43.211Z</time>
      </trkpt>
      <trkpt lat="47.552939" lon="7.839526">
        <ele>319.597772</ele>
        <time>2021-11-15T23:25:51.001Z</time>
      </trkpt>
      <trkpt lat="47.553231" lon="7.841529">
        <ele>321.766657</ele>
        <time>2021-11-15T23:26:21.131Z</time>
      </trkpt>
      <trkpt lat="47.553216" lon="7.841849">
        <ele>321.981586</ele>
        <time>2021-11-15T23:26:25.655Z</time>
      </trkpt>
      <trkpt lat="47.553123" lon="7.842222">
        <ele>322.248021</ele>
        <time>2021-11-15T23:26:30.884Z</time>
      </trkpt>
      <trkpt lat="47.553133" lon="7.842431">
        <ele>322.388411</ele>
        <time>2021-11-15T23:26:34.014Z</time>
      </trkpt>
      <trkpt lat="47.552833" lon="7.842495">
        <ele>322.689319</ele>
        <time>2021-11-15T23:26:41.258Z</time>
      </trkpt>
      <trkpt lat="47.552380" lon="7.842592">
        <ele>323.143726</ele>
        <time>2021-11-15T23:26:51.765Z</time>
      </trkpt>
      <trkpt lat="47.551922" lon="7.842704">
        <ele>323.495746</ele>
        <time>2021-11-15T23:27:01.687Z</time>
      </trkpt>
      <trkpt lat="47.551668" lon="7.842770">
        <ele>323.594409</ele>
        <time>2021-11-15T23:27:07.241Z</time>
      </trkpt>
      <trkpt lat="47.551454" lon="7.842815">
        <ele>323.677106</ele>
        <time>2021-11-15T23:27:11.420Z</time>
      </trkpt>
      <trkpt lat="47.551243" lon="7.842849">
        <ele>323.758310</ele>
        <time>2021-11-15T23:27:15.410Z</time>
      </trkpt>
      <trkpt lat="47.549927" lon="7.842747">
        <ele>324.777248</ele>
        <time>2021-11-15T23:27:45.098Z</time>
      </trkpt>
      <trkpt lat="47.549582" lon="7.842702">
        <ele>325.374288</ele>
        <time>2021-11-15T23:27:54.015Z</time>
      </trkpt>
      <trkpt lat="47.549355" lon="7.842656">
        <ele>325.769252</ele>
        <time>2021-11-15T23:28:00.467Z</time>
      </trkpt>
      <trkpt lat="47.549188" lon="7.842622">
        <ele>326.059846</ele>
        <time>2021-11-15T23:28:05.453Z</time>
      </trkpt>
      <trkpt lat="47.548105" lon="7.842284">
        <ele>327.956358</ele>
        <time>2021-11-15T23:28:38.509Z</time>
      </trkpt>
      <trkpt lat="47.547674" lon="7.842266">
        <ele>328.688346</ele>
        <time>2021-11-15T23:28:50.827Z</time>
      </trkpt>
      <trkpt lat="47.547549" lon="7.842268">
        <ele>328.900567</ele>
        <time>2021-11-15T23:28:54.024Z</time>
      </trkpt>
      <trkpt lat="47.547448" lon="7.842262">
        <ele>329.072170</ele>
        <time>2021-11-15T23:28:56.608Z</time>
      </trkpt>
      <trkpt lat="47.547354" lon="7.842839">
        <ele>329.752337</ele>
        <time>2021-11-15T23:29:06.622Z</time>
      </trkpt>
      <trkpt lat="47.547313" lon="7.843735">
        <ele>330.636322</ele>
        <time>2021-11-15T23:29:21.813Z</time>
      </trkpt>
      <trkpt lat="47.547295" lon="7.844722">
        <ele>331.446852</ele>
        <time>2021-11-15T23:29:37.536Z</time>
      </trkpt>
      <trkpt lat="47.547274" lon="7.845536">
        <ele>332.115557</ele>
        <time>2021-11-15T23:29:50.988Z</time>
      </trkpt>
      <trkpt lat="47.547124" lon="7.848795">
        <ele>336.194946</ele>
        <time>2021-11-15T23:30:53.142Z</time>
      </trkpt>
      <trkpt lat="47.547143" lon="7.849985">
        <ele>337.637394</ele>
        <time>2021-11-15T23:31:15.993Z</time>
      </trkpt>
      <trkpt lat="47.547141" lon="7.850355">
        <ele>338.085775</ele>
        <time>2021-11-15T23:31:23.093Z</time>
      </trkpt>
      <trkpt lat="47.546945" lon="7.851719">
        <ele>339.380930</ele>
        <time>2021-11-15T23:31:47.626Z</time>
      </trkpt>
      <trkpt lat="47.546582" lon="7.856413">
        <ele>340.666342</ele>
        <time>2021-11-15T23:32:55.938Z</time>
      </trkpt>
      <trkpt lat="47.546537" lon="7.857497">
        <ele>340.878631</ele>
        <time>2021-11-15T23:33:11.246Z</time>
      </trkpt>
      <trkpt lat="47.546487" lon="7.859119">
        <ele>341.200007</ele>
        <time>2021-11-15T23:33:34.693Z</time>
      </trkpt>
      <trkpt lat="47.546526" lon="7.861665">
        <ele>341.516614</ele>
        <time>2021-11-15T23:34:11.868Z</time>
      </trkpt>
      <trkpt lat="47.546592" lon="7.863006">
        <ele>340.564723</ele>
        <time>2021-11-15T23:34:28.334Z</time>
      </trkpt>
      <trkpt lat="47.546877" lon="7.864345">
        <ele>339.364824</ele>
        <time>2021-11-15T23:34:43.504Z</time>
      </trkpt>
      <trkpt lat="47.546885" lon="7.864500">
        <ele>339.214206</ele>
        <time>2021-11-15T23:34:45.183Z</time>
      </trkpt>
      <trkpt lat="47.546894" lon="7.864837">
        <ele>338.765496</ele>
        <time>2021-11-15T23:34:48.662Z</time>
      </trkpt>
      <trkpt lat="47.546889" lon="7.865225">
        <ele>338.249190</ele>
        <time>2021-11-15T23:34:52.783Z</time>
      </trkpt>
      <trkpt lat="47.546819" lon="7.865489">
        <ele>337.871825</ele>
        <time>2021-11-15T23:34:55.861Z</time>
      </trkpt>
      <trkpt lat="47.546510" lon="7.865766">
        <ele>337.159947</ele>
        <time>2021-11-15T23:35:01.555Z</time>
      </trkpt>
      <trkpt lat="47.546327" lon="7.865959">
        <ele>336.717179</ele>
        <time>2021-11-15T23:35:04.887Z</time>
      </trkpt>
      <trkpt lat="47.546096" lon="7.866147">
        <ele>336.197684</ele>
        <time>2021-11-15T23:35:08.953Z</time>
      </trkpt>
      <trkpt lat="47.545240" lon="7.866887">
        <ele>335.669150</ele>
        <time>2021-11-15T23:35:25.627Z</time>
      </trkpt>
      <trkpt lat="47.545160" lon="7.866985">
        <ele>335.662283</ele>
        <time>2021-11-15T23:35:27.582Z</time>
      </trkpt>
      <trkpt lat="47.545003" lon="7.867278">
        <ele>335.645579</ele>
        <time>2021-11-15T23:35:33.251Z</time>
      </trkpt>
      <trkpt lat="47.544568" lon="7.867693">
        <ele>335.611353</ele>
        <time>2021-11-15T23:35:46.041Z</time>
      </trkpt>
      <trkpt lat="47.544469" lon="7.867776">
        <ele>335.603828</ele>
        <time>2021-11-15T23:35:48.903Z</time>
      </trkpt>
      <trkpt lat="47.544410" lon="7.867825">
        <ele>335.606281</ele>
        <time>2021-11-15T23:35:50.992Z</time>
      </trkpt>
      <trkpt lat="47.544246" lon="7.867967">
        <ele>335.885608</ele>
        <time>2021-11-15T23:35:55.675Z</time>
      </trkpt>
      <trkpt lat="47.544214" lon="7.867988">
        <ele>335.937073</ele>
        <time>2021-11-15T23:35:56.523Z</time>
      </trkpt>
      <trkpt lat="47.543801" lon="7.868269">
        <ele>336.605367</ele>
        <time>2021-11-15T23:36:08.126Z</time>
      </trkpt>
      <trkpt lat="47.543657" lon="7.868359">
        <ele>336.835188</ele>
        <time>2021-11-15T23:36:12.476Z</time>
      </trkpt>
      <trkpt lat="47.543201" lon="7.868657">
        <ele>337.568069</ele>
        <time>2021-11-15T23:36:22.676Z</time>
      </trkpt>
      <trkpt lat="47.543105" lon="7.868711">
        <ele>337.719068</ele>
        <time>2021-11-15T23:36:25.260Z</time>
      </trkpt>
      <trkpt lat="47.543049" lon="7.868759">
        <ele>337.814205</ele>
        <time>2021-11-15T23:36:26.637Z</time>
      </trkpt>
      <trkpt lat="47.542722" lon="7.869201">
        <ele>338.244506</ele>
        <time>2021-11-15T23:36:36.483Z</time>
      </trkpt>
      <trkpt lat="47.542696" lon="7.869257">
        <ele>338.244506</ele>
        <time>2021-11-15T23:36:37.320Z</time>
      </trkpt>
      <trkpt lat="47.542657" lon="7.869354">
        <ele>338.244506</ele>
        <time>2021-11-15T23:36:38.772Z</time>
      </trkpt>
      <trkpt lat="47.542372" lon="7.869746">
        <ele>338.244506</ele>
        <time>2021-11-15T23:36:45.946Z</time>
      </trkpt>
      <trkpt lat="47.542329" lon="7.869820">
        <ele>338.244506</ele>
        <time>2021-11-15T23:36:47.168Z</time>
      </trkpt>
      <trkpt lat="47.542348" lon="7.869983">
        <ele>338.244506</ele>
        <time>2021-11-15T23:36:48.817Z</time>
      </trkpt>
      <trkpt lat="47.542317" lon="7.870012">
        <ele>338.244506</ele>
        <time>2021-11-15T23:36:49.479Z</time>
      </trkpt>
      <trkpt lat="47.542181" lon="7.870131">
        <ele>338.244506</ele>
        <time>2021-11-15T23:36:51.951Z</time>
      </trkpt>
      <trkpt lat="47.542118" lon="7.870135">
        <ele>338.244506</ele>
        <time>2021-11-15T23:36:53.002Z</time>
      </trkpt>
      <trkpt lat="47.542014" lon="7.870126">
        <ele>338.244506</ele>
        <time>2021-11-15T23:36:54.437Z</time>
      </trkpt>
      <trkpt lat="47.541910" lon="7.870106">
        <ele>338.244506</ele>
        <time>2021-11-15T23:36:55.980Z</time>
      </trkpt>
      <trkpt lat="47.541774" lon="7.870248">
        <ele>338.244506</ele>
        <time>2021-11-15T23:36:58.262Z</time>
      </trkpt>
    </trkseg>
  </trk>
</gpx>